[[{"header":{"parameterUnit":"m.s-1","parameterCategory":1,"la1":31.0,"la2":29.5877,"lo1":-88.7671,"lo2":-86.6584,"dy":0.0162,"dx":0.0185,"nx":115,"ny":88,"refTime":"2023-06-26T00:00:00:Z","depth":0,"parameterNumber":2,"parameterNumberName":"U-component_of_WINDS"},"data":[0.0,0.0,0.0,0.0,0.0,0.0,0.0,0.0,0.0,0.0,0.0,0.0,0.0,0.0,0.0,0.0,0.0,0.0,0.0,0.0,0.0,0.0,0.0,0.0,0.0,0.0,0.0,0.0,0.0,0.0,0.0,0.0,0.0,0.0,0.0,0.0,0.0,0.0,0.0,0.0,0.0,0.0,0.0,0.0,0.0,0.0,0.0,0.0,0.0,0.0,0.0,0.0,0.0,0.0,0.0,0.0,0.0,0.0,0.0,0.0,0.0,0.0,0.0,0.0,0.0,0.0,0.0,0.0,0.0,0.0,0.0,0.0,0.0,0.0,0.0,0.0,0.0,0.0,0.0,0.0,0.0,0.0,0.0,0.0,0.0,0.0,0.0,0.0,0.0,0.0,0.0,0.0,0.0,0.0,0.0,0.0,0.0,0.0,0.0,0.0,0.0,0.0,0.0,0.0,0.0,0.0,0.0,0.0,0.0,0.0,0.0,0.0,0.0,0.0,0.0,0.0,0.0,0.0,0.0,0.0,0.0,0.0,0.0,0.0,0.0,0.0,0.0,0.0,0.0,0.0,0.0,0.0,0.0,0.0,0.0,0.0,0.0,0.0,0.0,0.0,0.0,0.0,0.0,0.0,0.0,0.0,0.0,0.0,0.0,0.0,0.0,0.0,0.0,0.0,0.0,0.0,0.0,0.0,0.0,0.0,0.0,0.0,0.0,0.0,0.0,0.0,0.0,0.0,0.0,0.0,0.0,0.0,0.0,0.0,0.0,0.0,0.0,0.0,0.0,0.0,0.0,0.0,0.0,0.0,0.0,0.0,0.0,0.0,0.0,0.0,0.0,0.0,0.0,0.0,0.0,0.0,0.0,0.0,0.0,0.0,0.0,0.0,0.0,0.0,0.0,0.0,0.0,0.0,0.0,0.0,0.0,0.0,0.0,0.0,0.0,0.0,0.0,0.0,0.0,0.0,0.0,0.0,0.0,0.0,0.0,0.0,0.0,0.0,0.0,0.0,0.0,0.0,0.0,0.0,0.0,0.0,0.0,0.0,0.0,0.0,0.0,0.0,0.0,0.0,0.0,0.0,0.0,0.0,0.0,0.0,0.0,0.0,0.0,0.0,0.0,0.0,0.0,0.0,0.0,0.0,0.0,0.0,0.0,0.0,0.0,0.0,0.0,0.0,0.0,0.0,0.0,0.0,0.0,0.0,0.0,0.0,0.0,0.0,0.0,0.0,0.0,0.0,0.0,0.0,0.0,0.0,0.0,0.0,0.0,0.0,0.0,0.0,0.0,0.0,0.0,0.0,0.0,0.0,0.0,0.0,0.0,0.0,0.0,0.0,0.0,0.0,0.0,0.0,0.0,0.0,0.0,0.0,0.0,0.0,0.0,0.0,0.0,0.0,0.0,0.0,0.0,0.0,0.0,0.0,0.0,0.0,0.0,0.0,0.0,0.0,0.0,0.0,0.0,0.0,0.0,0.0,0.0,0.0,0.0,0.0,0.0,0.0,0.0,0.0,0.0,0.0,0.0,0.0,0.0,0.0,0.0,0.0,0.0,0.0,0.0,0.0,0.0,0.0,0.0,0.0,0.0,0.0,0.0,0.0,0.0,0.0,0.0,0.0,0.0,0.0,0.0,0.0,0.0,0.0,0.0,0.0,0.0,0.0,0.0,0.0,0.0,0.0,0.0,0.0,0.0,0.0,0.0,0.0,0.0,0.0,0.0,0.0,0.0,0.0,0.0,0.0,0.0,0.0,0.0,0.0,0.0,0.0,0.0,0.0,0.0,0.0,0.0,0.0,0.0,0.0,0.0,0.0,0.0,0.0,0.0,0.0,0.0,0.0,0.0,0.0,0.0,0.0,0.0,0.0,0.0,0.0,0.0,0.0,0.0,0.0,0.0,0.0,0.0,0.0,0.0,0.0,0.0,0.0,0.0,0.0,0.0,0.0,0.0,0.0,0.0,0.0,0.0,0.0,0.0,0.0,0.0,0.0,0.0,0.0,0.0,0.0,0.0,0.0,0.0,0.0,0.0,0.0,0.0,0.0,0.0,0.0,0.0,0.0,0.0,0.0,0.0,0.0,0.0,0.0,0.0,0.0,0.0,0.0,0.0,0.0,0.0,0.0,0.0,0.0,0.0,0.0,0.0,0.0,0.0,0.0,0.0,0.0,0.0,0.0,0.0,0.0,0.0,0.0,0.0,0.0,0.0,0.0,0.0,0.0,0.0,0.0,0.0,0.0,0.0,0.0,0.0,0.0,0.0,0.0,0.0,0.0,0.0,0.0,0.0,0.0,0.0,0.0,0.0,0.0,0.0,0.0,0.0,0.0,0.0,0.0,0.0,0.0,0.0,0.0,0.0,0.0,0.0,0.0,0.0,0.0,0.0,0.0,0.0,0.0,0.0,0.0,0.0,0.0,0.0,0.0,0.0,0.0,0.0,0.0,0.0,0.0,0.0,0.0,0.0,0.0,0.0,0.0,0.0,0.0,0.0,0.0,0.0,0.0,0.0,0.0,0.0,0.0,0.0,0.0,0.0,0.0,0.0,0.0,0.0,0.0,0.0,0.0,0.0,0.0,0.0,0.0,0.0,0.0,0.0,0.0,0.0,0.0,0.0,0.0,0.0,0.0,0.0,0.0,0.0,0.0,0.0,0.0,0.0,0.0,0.0,0.0,0.0,0.0,0.0,0.0,0.0,0.0,0.0,0.0,0.0,0.0,0.0,0.0,0.0,0.0,0.0,0.0,0.0,0.0,0.0,0.0,0.0,0.0,0.0,0.0,0.0,0.0,0.0,0.0,0.0,0.0,0.0,0.0,0.0,0.0,0.0,0.0,0.0,0.0,0.0,0.0,0.0,0.0,0.0,0.0,0.0,0.0,0.0,0.0,0.0,0.0,0.0,0.0,0.0,0.0,0.0,0.0,0.0,0.0,0.0,0.0,0.0,0.0,0.0,0.0,0.0,0.0,0.0,0.0,0.0,0.0,0.0,0.0,0.0,0.0,0.0,0.0,0.0,0.0,0.0,0.0,0.0,0.0,0.0,0.0,0.0,0.0,0.0,0.0,0.0,0.0,0.0,0.0,0.0,0.0,0.0,0.0,0.0,0.0,0.0,0.0,0.0,0.0,0.0,0.0,0.0,0.0,0.0,0.0,0.0,0.0,0.0,0.0,0.0,0.0,0.0,0.0,0.0,0.0,0.0,0.0,0.0,0.0,0.0,0.0,0.0,0.0,0.0,0.0,0.0,0.0,0.0,0.0,0.0,0.0,0.0,0.0,0.0,0.0,0.0,0.0,0.0,0.0,0.0,0.0,0.0,0.0,0.0,0.0,0.0,0.0,0.0,0.0,0.0,0.0,0.0,0.0,0.0,0.0,0.0,0.0,0.0,0.0,0.0,0.0,0.0,0.0,0.0,0.0,0.0,0.0,0.0,0.0,0.0,0.0,0.0,0.0,0.0,0.0,0.0,0.0,0.0,0.0,0.0,0.0,0.0,0.0,0.0,0.0,0.0,0.0,0.0,0.0,0.0,0.0,0.0,0.0,0.0,0.0,0.0,0.0,0.0,0.0,0.0,0.0,0.0,0.0,0.0,0.0,0.0,0.0,0.0,0.0,0.0,0.0,0.0,0.0,0.0,0.0,0.0,0.0,0.0,0.0,0.0,0.0,0.0,0.0,0.0,0.0,0.0,0.0,0.0,0.0,0.0,0.0,0.0,0.0,0.0,0.0,0.0,0.0,0.0,0.0,0.0,0.0,0.0,0.0,0.0,0.0,0.0,0.0,0.0,0.0,0.0,0.0,0.0,0.0,0.0,0.0,0.0,0.0,0.0,0.0,0.0,0.0,0.0,0.0,0.0,0.0,0.0,0.0,0.0,0.0,0.0,0.0,0.0,0.0,0.0,0.0,0.0,0.0,0.0,0.0,0.0,0.0,0.0,0.0,0.0,0.0,0.0,0.0,0.0,0.0,0.0,0.0,0.0,0.0,0.0,0.0,0.0,0.0,0.0,0.0,0.0,0.0,0.0,0.0,0.0,0.0,0.0,0.0,0.0,0.0,0.0,0.0,0.0,0.0,0.0,0.0,0.0,0.0,0.0,0.0,0.0,0.0,0.0,0.0,0.0,0.0,0.0,0.0,0.0,0.0,0.0,0.0,0.0,0.0,0.0,0.0,0.0,0.0,0.0,0.0,0.0,0.0,0.0,0.0,0.0,0.0,0.0,0.0,0.0,0.0,0.0,0.0,0.0,0.0,0.0,0.0,0.0,0.0,-0.1953,0.0,0.0,0.0,0.0,0.0,0.0,0.0,0.0,0.0,0.0,0.0,0.0,0.0,0.0,0.0,0.0,0.0,0.0,0.0,0.0,0.0,0.0,0.0,0.0,0.0,0.0,0.0,0.0,0.0,0.0,0.0,0.0,0.0,0.0,0.0,0.0,0.0,0.0,0.0,0.0,0.0,0.0,0.0,0.0,0.0,0.0,0.0,0.0,0.0,0.0,0.0,0.0,0.0,0.0,0.0,0.0,0.0,0.0,0.0,0.0,0.0,0.0,0.0,0.0,0.0,0.0,0.0,0.0,0.0,0.0,0.0,0.0,0.0,0.0,0.0,0.0,0.0,0.0,0.0,0.0,0.0,0.0,0.0,0.0,0.0,0.0,0.0,0.0,0.0,0.0,0.0,0.0,0.0,0.0,0.0,0.0,0.0,0.0,0.0,0.0,0.0,0.0,0.0,0.0,0.0,0.0,0.0,0.0,0.0,0.0,-0.1967,-0.2202,-0.1966,-0.1926,-0.1999,0.0,0.0,0.0,0.0,0.0,0.0,0.0,0.0,0.0,0.0,0.0,0.0,0.0,0.0,0.0,0.0,0.0,0.0,0.0,0.0,0.0,0.0,0.0,0.0,0.0,0.0,0.0,0.0,0.0,0.0,0.0,0.0,0.0,0.0,0.0,0.0,0.0,0.0,0.0,0.0,0.0,0.0,0.0,0.0,0.0,0.0,0.0,0.0,0.0,0.0,0.0,0.0,0.0,0.0,0.0,0.0,0.0,0.0,0.0,0.0,0.0,0.0,0.0,0.0,0.0,0.0,0.0,0.0,0.0,0.0,0.0,0.0,0.0,0.0,0.0,0.0,0.0,0.0,0.0,0.0,0.0,0.0,0.0,0.0,0.0,0.0,0.0,0.0,0.0,0.0,0.0,0.0,0.0,0.0,0.0,0.0,0.0,0.0,0.0,0.0,0.0,0.0,0.0,0.0,0.0,0.0,0.0,0.0,0.0,0.0,0.0,0.0,-0.1884,-0.1835,-0.1915,0.0,0.0,0.0,0.0,0.0,0.0,0.0,0.0,0.0,0.0,0.0,0.0,0.0,0.0,0.0,0.0,0.0,0.0,0.0,0.0,0.0,0.0,0.0,0.0,0.0,0.0,0.0,0.0,0.0,0.0,0.0,0.0,0.0,0.0,0.0,0.0,0.0,0.0,0.0,0.0,0.0,0.0,0.0,0.0,0.0,0.0,0.0,0.0,0.0,0.0,0.0,0.0,0.0,0.0,0.0,0.0,0.0,0.0,0.0,0.0,0.0,0.0,0.0,0.0,0.0,0.0,0.0,0.0,0.0,0.0,0.0,0.0,0.0,0.0,0.0,0.0,0.0,0.0,0.0,0.0,0.0,0.0,0.0,0.0,0.0,0.0,0.0,0.0,0.0,0.0,0.0,0.0,0.0,0.0,0.0,0.0,0.0,0.0,0.0,0.0,0.0,0.0,0.0,0.0,0.0,0.0,0.0,0.0,0.0,0.0,-0.1479,-0.121,-0.1479,0.0,-0.1548,0.0,0.0,0.0,0.0,0.0,0.0,0.0,0.0,0.0,0.0,0.0,0.0,0.0,0.0,0.0,0.0,0.0,0.0,0.0,0.0,0.0,0.0,0.0,0.0,0.0,0.0,0.0,0.0,0.0,0.0,0.0,0.0,0.0,0.0,0.0,0.0,0.0,0.0,0.0,0.0,0.0,0.0,0.0,0.0,0.0,0.0,0.0,0.0,0.0,0.0,0.0,0.0,0.0,0.0,0.0,0.0,0.0,0.0,0.0,0.0,0.0,0.0,0.0,0.0,0.0,0.0,0.0,0.0,0.0,0.0,0.0,0.0,0.0,0.0,0.0,0.0,0.0,0.0,0.0,0.0,0.0,0.0,0.0,0.0,0.0,0.0,0.0,0.0,0.0,0.0,0.0,0.0,0.0,0.0,0.0,0.0,0.0,0.0,0.0,0.0,0.0,0.0,0.0,0.0,0.0,0.0,0.0,0.0,0.0,0.0,-0.121,-0.1076,-0.1172,-0.1329,0.0,0.0,0.0,0.0,0.0,0.0,0.0,0.0,0.0,0.0,0.0,0.0,0.0,0.0,0.0,0.0,0.0,0.0,0.0,0.0,0.0,0.0,0.0,0.0,0.0,0.0,0.0,0.0,0.0,0.0,0.0,0.0,0.0,0.0,0.0,0.0,0.0,0.0,0.0,0.0,0.0,0.0,0.0,0.0,0.0,0.0,0.0,0.0,0.0,0.0,0.0,0.0,0.0,0.0,0.0,0.0,0.0,0.0,0.0,0.0,0.0,0.0,0.0,0.0,0.0,0.0,0.0,0.0,0.0,0.0,0.0,0.0,0.0,0.0,0.0,0.0,0.0,0.0,0.0,0.0,0.0,0.0,0.0,0.0,0.0,0.0,0.0,0.0,0.0,0.0,0.0,0.0,0.0,0.0,0.0,0.0,0.0,0.0,0.0,0.0,0.0,0.0,0.0,0.0,0.0,0.0,0.0,0.0,0.0,0.0,-0.1076,-0.1076,-0.1073,-0.1019,-0.1112,-0.1359,0.0,0.0,0.0,0.0,0.0,0.0,0.0,0.0,0.0,0.0,0.0,0.0,0.0,0.0,0.0,0.0,0.0,0.0,0.0,0.0,0.0,0.0,0.0,0.0,0.0,0.0,0.0,0.0,0.0,0.0,0.0,0.0,0.0,0.0,0.0,0.0,0.0,0.0,0.0,0.0,0.0,0.0,0.0,0.0,0.0,0.0,0.0,0.0,0.0,0.0,0.0,0.0,0.0,0.0,0.0,0.0,0.0,0.0,0.0,0.0,0.0,0.0,0.0,0.0,0.0,0.0,0.0,0.0,0.0,0.0,0.0,0.0,0.0,0.0,0.0,0.0,0.0,0.0,0.0,0.0,0.0,0.0,0.0,0.0,0.0,0.0,0.0,0.0,0.0,0.0,0.0,0.0,0.0,0.0,0.0,0.0,0.0,0.0,0.0,0.0,0.0,0.0,0.0,0.0,0.0,0.0,0.0,0.0,-0.1076,-0.1076,-0.1076,-0.1074,-0.1019,-0.0988,0.0,0.0,0.0,0.0,0.0,0.0,0.0,0.0,0.0,0.0,0.0,0.0,0.0,0.0,0.0,0.0,0.0,0.0,0.0,0.0,0.0,0.0,0.0,0.0,0.0,0.0,0.0,0.0,0.0,0.0,0.0,0.0,0.0,0.0,0.0,0.0,0.0,0.0,0.0,0.0,0.0,0.0,0.0,0.0,0.0,0.0,0.0,0.0,0.0,0.0,0.0,0.0,0.0,0.0,0.0,0.0,0.0,0.0,0.0,0.0,0.0,0.0,0.0,0.0,0.0,0.0,0.0,0.0,0.0,0.0,0.0,0.0,0.0,0.0,0.0,0.0,0.0,0.0,0.0,0.0,0.0,0.0,0.0,0.0,0.0,0.0,0.0,0.0,0.0,0.0,0.0,0.0,0.0,0.0,0.0,0.0,0.0,0.0,0.0,0.0,0.0,0.0,0.0,0.0,0.0,0.0,0.0,0.0,0.0,-0.1078,-0.1078,-0.1078,-0.1075,-0.1037,-0.1008,0.0,0.0,0.0,0.0,0.0,0.0,0.0,0.0,0.0,0.0,0.0,0.0,0.0,0.0,0.0,0.0,0.0,0.0,0.0,0.0,0.0,0.0,0.0,0.0,0.0,0.0,0.0,0.0,0.0,0.0,0.0,0.0,0.0,0.0,0.0,0.0,0.0,0.0,0.0,0.0,0.0,0.0,0.0,0.0,0.0,0.0,0.0,0.0,0.0,0.0,0.0,0.0,0.0,0.0,0.0,0.0,0.0,0.0,0.0,0.0,0.0,0.0,0.0,0.0,0.0,0.0,0.0,0.0,0.0,0.0,0.0,0.0,0.0,0.0,0.0,0.0,0.0,0.0,0.0,0.0,0.0,0.0,0.0,0.0,0.0,0.0,0.0,0.0,0.0,0.0,0.0,0.0,0.0,0.0,0.0,0.0,0.0,0.0,0.0,0.0,0.0,0.0,0.0,0.0,0.0,0.0,0.0,0.0,0.0,-0.108,0.0,-0.1078,-0.1075,-0.1048,-0.1019,0.0,0.0,0.0,0.0,0.0,0.0,0.0,0.0,0.0,0.0,0.0,0.0,0.0,0.0,0.0,0.0,0.0,0.0,0.0,0.0,0.0,0.0,0.0,0.0,0.0,0.0,0.0,0.0,0.0,0.0,0.0,0.0,0.0,0.0,0.0,0.0,0.0,0.0,0.0,0.0,0.0,0.0,0.0,0.0,0.0,0.0,0.0,0.0,0.0,0.0,0.0,0.0,0.0,0.0,0.0,0.0,0.0,0.0,0.0,0.0,0.0,0.0,0.0,0.0,0.0,0.0,0.0,0.0,0.0,0.0,0.0,0.0,0.0,0.0,0.0,0.0,0.0,0.0,0.0,0.0,0.0,0.0,0.0,0.0,0.0,0.0,0.0,0.0,0.0,0.0,0.0,0.0,0.0,0.0,0.0,0.0,0.0,0.0,0.0,0.0,0.0,0.0,0.0,0.0,0.0,0.0,0.0,0.0,-0.108,-0.108,-0.108,-0.1078,-0.1075,-0.1049,-0.102,0.0,0.0,0.0,0.0,0.0,0.0,0.0,0.0,0.0,0.0,0.0,0.0,0.0,0.0,0.0,0.0,0.0,0.0,0.0,0.0,0.0,0.0,0.0,0.0,0.0,0.0,0.0,0.0,0.0,0.0,0.0,0.0,0.0,0.0,0.0,0.0,0.0,0.0,0.0,0.0,0.0,0.0,0.0,0.0,0.0,0.0,0.0,0.0,0.0,0.0,0.0,0.0,0.0,0.0,0.0,0.0,0.0,0.0,0.0,0.0,0.0,0.0,0.0,0.0,0.0,0.0,0.0,0.0,0.0,0.0,0.0,0.0,0.0,0.0,0.0,0.0,0.0,0.0,0.0,0.0,0.0,0.0,0.0,0.0,0.0,0.0,0.0,0.0,0.0,0.0,0.0,0.0,0.0,0.0,0.0,0.0,0.0,0.0,0.0,0.0,0.0,0.0,0.0,0.0,0.0,0.0,0.0,0.0,0.0,-0.0337,-0.0809,-0.1078,-0.1078,-0.1068,-0.1039,0.0,0.0,0.0,0.0,0.0,0.0,0.0,0.0,0.0,0.0,0.0,0.0,0.0,0.0,0.0,0.0,0.0,0.0,0.0,0.0,0.0,0.0,0.0,0.0,0.0,0.0,0.0,0.0,0.0,0.0,0.0,0.0,0.0,0.0,0.0,0.0,0.0,0.0,0.0,0.0,0.0,0.0,0.0,0.0,0.0,0.0,0.0,0.0,0.0,0.0,0.0,0.0,0.0,0.0,0.0,0.0,0.0,0.0,0.0,0.0,0.0,0.0,0.0,0.0,0.0,0.0,0.0,0.0,0.0,0.0,0.0,0.0,0.0,0.0,0.0,0.0,0.0,0.0,0.0,0.0,0.0,0.0,0.0,0.0,0.0,0.0,0.0,0.0,0.0,0.0,0.0,0.0,0.0,0.0,0.0,0.0,0.0,0.0,0.0,0.0,0.0,0.0,0.0,0.0,0.0,0.0,0.0,0.0,0.0,-0.0,-0.0472,-0.0809,-0.108,-0.1078,-0.105,-0.0991,0.0,0.0,0.0,0.0,0.0,0.0,0.0,0.0,0.0,0.0,0.0,0.0,0.0,0.0,0.0,0.0,0.0,0.0,0.0,0.0,0.0,0.0,0.0,0.0,0.0,0.0,0.0,0.0,0.0,0.0,0.0,0.0,0.0,0.0,0.0,0.0,0.0,0.0,0.0,0.0,0.0,0.0,0.0,0.0,0.0,0.0,0.0,0.0,0.0,0.0,0.0,0.0,0.0,0.0,0.0,0.0,0.0,0.0,0.0,0.0,0.0,0.0,0.0,0.0,0.0,0.0,0.0,0.0,0.0,0.0,0.0,0.0,0.0,0.0,0.0,0.0,0.0,0.0,0.0,0.0,0.0,0.0,0.0,0.0,0.0,0.0,0.0,0.0,0.0,0.0,0.0,0.0,0.0,0.0,0.0,0.0,0.0,0.0,0.0,0.0,0.0,0.0,0.0,0.0,0.0,0.0,0.0,0.0,0.0067,-0.0,-0.0337,-0.1012,-0.1079,-0.105,0.0,0.0,0.0,0.0,0.0,0.0,0.0,0.0,0.0,0.0,0.0,0.0,0.0,0.0,0.0,0.0,0.0,0.0,0.0,0.0,0.0,0.0,0.0,0.0,0.0,0.0,0.0,0.0,0.0,0.0,0.0,0.0,0.0,0.0,0.0,0.0,0.0,0.0,0.0,0.0,0.0,0.0,0.0,0.0,0.0,0.0,0.0,0.0,0.0,0.0,0.0,0.0,0.0,0.0,0.0,0.0,0.0,0.0,0.0,0.0,0.0,0.0,0.0,0.0,0.0,0.0,0.0,0.0,0.0,0.0,0.0,0.0,0.0,0.0,0.0,0.0,0.0,0.0,0.0,0.0,0.0,0.0,0.0,0.0,0.0,0.0,0.0,0.0,0.0,0.0,0.0,0.0,0.0,0.0,0.0,0.0,0.0,0.0,0.0,0.0,0.0,0.0,0.0,0.0,0.0,0.0,0.0,0.0,0.0,0.0809,0.027,-0.0202,-0.0674,-0.0945,-0.105,0.0,0.0,0.0,0.0,0.0,0.0,0.0,0.0,0.0,0.0,0.0,0.0,0.0,0.0,0.0,0.0,0.0,0.0,0.0,0.0,0.0,0.0,0.0,0.0,0.0,0.0,0.0,0.0,0.0,0.0,0.0,0.0,0.0,0.0,0.0,0.0,0.0,0.0,0.0,0.0,0.0,0.0,0.0,0.0,0.0,0.0,0.0,0.0,0.0,0.0,0.0,0.0,0.0,0.0,0.0,0.0,0.0,0.0,0.0,0.0,0.0,0.0,0.0,0.0,0.0,0.0,0.0,0.0,0.0,0.0,0.0,0.0,0.0,0.0,0.0,0.0,0.0,0.0,0.0,0.0,0.0,0.0,0.0,0.0,0.0,0.0,0.0,0.0,0.0,0.0,0.0,0.0,0.0,0.0,0.0,0.0,0.0,0.0,0.0,0.0,0.0,0.0,0.0,0.0,0.0,0.0,0.0,0.0,0.1077,0.108,0.0405,-0.0135,-0.0472,-0.0877,-0.1057,0.0,0.0,0.0,0.0,0.0,0.0,0.0,0.0,0.0,0.0,0.0,0.0,0.0,0.0,0.0,0.0,0.0,0.0,0.0,0.0,0.0,0.0,0.0,0.0,0.0,0.0,0.0,0.0,0.0,0.0,0.0,0.0,0.0,0.0,0.0,0.0,0.0,0.0,0.0,0.0,0.0,0.0,0.0,0.0,0.0,0.0,0.0,0.0,0.0,0.0,0.0,0.0,0.0,0.0,0.0,0.0,0.0,0.0,0.0,0.0,0.0,0.0,0.0,0.0,0.0,0.0,0.0,0.0,0.0,0.0,0.0,0.0,0.0,0.0,0.0,0.0,0.0,0.0,0.0,0.0,0.0,0.0,0.0,0.0,0.0,0.0,0.0,0.0,0.0,0.0,0.0,0.0,0.0,0.0,0.0,0.0,0.0,0.0,0.0,0.0,0.0,0.0,0.0,0.0,0.0,0.0,0.0,0.0,0.1144,0.1079,0.0337,-0.0202,-0.0472,-0.0877,-0.1065,0.0,0.0,0.0,0.0,0.0,0.0,0.0,0.0,0.0,0.0,0.0,0.0,0.0,0.0,0.0,0.0,0.0,0.0,0.0,0.0,0.0,0.0,0.0,0.0,0.0,0.0,0.0,0.0,0.0,0.0,0.0,0.0,0.0,0.0,0.0,0.0,0.0,0.0,0.0,0.0,0.0,0.0,0.0,0.0,0.0,0.0,0.0,0.0,0.0,0.0,0.0,0.0,0.0,0.0,0.0,0.0,0.0,0.0,0.0,0.0,0.0,0.0,0.0,0.0,0.0,0.0,0.0,0.0,0.0,0.0,0.0,0.0,0.0,0.0,0.0,0.0,0.0,0.0,0.0,0.0,0.0,0.0,0.0,0.0,0.0,0.0,0.0,0.0,0.0,0.0,0.0,0.0,0.0,0.0,0.0,0.0,0.0,0.0,0.0,0.0,0.0,0.0,0.0,0.0,0.0,0.0,0.0,0.0,0.1346,0.1079,-0.0202,-0.0742,-0.0472,-0.0877,-0.1132,0.0,0.0,0.0,0.0,0.0,0.0,0.0,0.0,0.0,0.0,0.0,0.0,0.0,0.0,0.0,0.0,0.0,0.0,0.0,0.0,0.0,0.0,0.0,0.0,0.0,0.0,0.0,0.0,0.0,0.0,0.0,0.0,0.0,0.0,0.0,0.0,0.0,0.0,0.0,0.0,0.0,0.0,0.0,0.0,0.0,0.0,0.0,0.0,-0.1122,0.0,0.0,0.0,0.0,0.0,0.0,0.0,0.0,0.0,0.0,0.0,0.0,0.0,0.0,0.0,0.0,0.0,0.0,0.0,0.0,0.0,0.0,0.0,0.0,0.0,0.0,0.0,0.0,0.0,0.0,0.0,0.0,0.0,0.0,0.0,0.0,0.0,0.0,0.0,0.0,0.0,0.0,0.0,0.0,0.0,0.0,0.0,0.0,0.0,0.0,0.0,0.0,0.0,0.0,0.0,0.0,0.0,0.0,0.0,0.1413,0.1079,-0.0337,-0.1012,-0.0809,-0.1012,-0.1072,0.0,0.0,0.0,0.0,0.0,0.0,0.0,0.0,0.0,0.0,0.0,0.0,0.0,0.0,0.0,0.0,0.0,0.0,0.0,0.0,0.0,0.0,0.0,0.0,0.0,0.0,0.0,0.0,0.0,0.0,0.0,0.0,0.0,0.0,0.0,0.0,0.0,0.0,0.0,0.0,0.0,0.0,0.0,0.0,0.0,0.0,0.0,0.0,0.0,0.0,0.0,0.0,0.0,0.0,0.0,0.0,0.0,0.0,0.0,0.0,0.0,0.0,0.0,0.0,0.0,0.0,0.0,0.0,0.0,0.0,0.0,0.0,0.0,0.0,0.0,0.0,0.0,0.0,0.0,0.0,0.0,0.0,0.0,0.0,0.0,0.0,0.0,0.0,0.0,0.0,0.0,0.0,0.0,0.0,0.0,0.0,0.0,0.0,0.0,0.0,0.0,0.0,0.0,0.0,0.0,0.0,0.0,0.1479,0.1414,0.1079,-0.027,-0.1012,-0.1079,-0.1078,-0.1078,-0.1078,0.0,0.0,0.0,0.0,0.0,0.0,0.0,0.0,0.0,0.0,0.0,0.0,0.0,0.0,0.0,0.0,0.0,0.0,0.0,0.0,0.0,0.0,0.0,0.0,0.0,0.0,0.0,0.0,0.0,0.0,0.0,0.0,0.0,0.0,0.0,0.0,0.0,0.0,0.0697,0.0221,0.0,0.0,0.0,0.0,0.0,0.0,0.0,0.0,-0.1696,0.0,0.0,0.0,0.0,0.0,0.0,0.0,0.0,0.0,0.0,0.0,0.0,0.0,0.0,0.0,0.0,0.0,0.0,0.0,0.0,0.0,0.0,0.0,0.0,0.0,0.0,0.0,0.0,0.0,0.0,0.0,0.0,0.0,0.0,0.0,0.0,0.0,0.0,0.0,0.0,0.0,0.0,0.0,0.0,0.0,0.0,0.0,0.0,0.0,0.0,0.0,0.0,0.0,0.0,0.0,0.0,0.1344,0.1547,0.1413,0.1079,-0.0,-0.0742,-0.1079,-0.1077,-0.1077,-0.1076,0.0,0.0,0.0,0.0,0.0,0.0,0.0,0.0,0.0,0.0,0.0,0.0,0.0,0.0,0.0,0.0,0.0,0.0,0.0,0.0,0.0,0.0,0.0,0.0,0.0,0.0,0.0,0.0,0.0,0.0,0.0,0.0,0.0,0.0,0.0,0.0,0.0,0.0,0.0,-0.0229,-0.0762,0.0,0.0,0.0,0.0,0.0,0.0,0.0,0.0,-0.2256,0.0,0.0,0.0,0.0,0.0,0.0,0.0,0.0,0.0,0.0,0.0,0.0,0.0,0.0,0.0,0.0,0.0,0.0,0.0,0.0,0.0,0.0,0.0,0.0,0.0,0.0,0.0,0.0,0.0,0.0,0.0,0.0,0.0,0.0,0.0,0.0,0.0,0.0,0.0,0.0,0.0,0.0,0.0,0.0,0.0,0.0,0.0,0.0,0.0,0.0,0.0,0.0,0.0,0.0,0.0,0.128,0.1347,0.128,0.1079,-0.0135,-0.0877,-0.1079,-0.1076,-0.1076,0.0,0.0,0.0,0.0,0.0,0.0,0.0,0.0,0.0,0.0,0.0,0.0,0.0,0.0,0.0,0.0,0.0,0.0,0.0,0.0,0.0,0.0,0.0,0.0,0.0,0.0,0.0,0.0,0.0,0.0,0.0,0.0,0.0,0.0,0.0,0.0,0.0,0.0,0.0,0.0,-0.0635,-0.1185,-0.1685,0.0,0.0,0.0,0.0,0.0,0.0,-0.2474,-0.252,0.0,0.0,0.0,0.0,0.0,0.0,0.0,0.0,0.0,0.0,0.0,0.0,0.0,0.0,0.0,0.0,0.0,0.0,0.0,0.0,0.0,0.0,0.0,0.0,0.0,0.0,0.0,0.0,0.0,0.0,0.0,0.0,0.0,0.0,0.0,0.0,0.0,0.0,0.0,0.0,0.0,0.0,0.0,0.0,0.0,0.0,0.0,0.0,0.0,0.0,0.0,0.0,0.0,0.0,0.0,0.108,0.108,0.0945,0.0607,-0.0472,-0.1078,-0.1078,-0.1078,-0.1077,0.0,0.0,0.0,0.0,0.0,0.0,0.0,0.0,0.0,0.0,0.0,0.0,0.0,0.0,0.0,0.0,0.0,0.0,0.0,0.0,0.0,0.0,0.0,0.0,0.0,0.0,0.0,0.0,0.0,0.0,0.0,0.0,0.0,0.0,0.0,0.0,0.0,0.0,0.0,0.0,0.0,-0.1685,-0.2044,-0.2126,0.0,0.0,0.0,0.0,-0.2678,-0.2801,0.0,0.0,0.0,0.0,0.0,0.0,0.0,0.0,0.0,0.0,0.0,0.0,0.0,0.0,0.0,0.0,0.0,0.0,0.0,0.0,0.0,0.0,0.0,0.0,0.0,0.0,0.0,0.0,0.0,0.0,0.0,0.0,0.0,0.0,0.0,0.0,0.0,0.0,0.0,0.0,0.0,0.0,0.0,0.0,0.0,0.0,0.0,0.0,0.0,0.0,0.0,0.0,0.0,0.0,0.0,0.0,0.1079,0.108,0.0472,-0.0809,-0.1012,-0.1078,-0.1076,-0.1078,-0.1078,0.0,0.0,0.0,0.0,0.0,0.0,0.0,0.0,0.0,0.0,0.0,0.0,0.0,0.0,0.0,0.0,0.0,0.0,0.0,0.0,0.0,0.0,0.0,0.0,0.0,0.0,0.0,0.0,0.0,0.0,0.0,0.0,0.0,0.0,0.0,0.0,0.0,0.0,0.0,0.0,0.0,-0.2358,-0.2365,-0.2687,-0.3,0.0,0.0,-0.3434,-0.3478,-0.3462,0.0,0.0,0.0,0.0,0.0,0.0,0.0,0.0,0.0,0.0,0.0,0.0,0.0,0.0,0.0,0.0,0.0,0.0,0.0,0.0,0.0,0.0,0.0,0.0,0.0,0.0,0.0,0.0,0.0,0.0,0.0,0.0,0.0,0.0,0.0,0.0,0.0,0.0,0.0,0.0,0.0,0.0,0.0,0.0,0.0,0.0,0.0,0.0,0.0,0.0,0.0,0.0,0.0,0.0,0.0,0.0674,0.0472,0.0472,0.0202,-0.0472,-0.0877,-0.1078,-0.1078,-0.1078,-0.0877,0.0,0.0,0.0,0.0,0.0,0.0,0.0,0.0,0.0,0.0,0.0,0.0,0.0,0.0,0.0,0.0,0.0,0.0,0.0,0.0,0.0,0.0,0.0,0.0,0.0,0.0,0.0,0.0,0.0,0.0,0.0,0.0,0.0,0.0,0.0,0.0,0.0,0.0,0.0,0.0,0.0,0.0,-0.2766,-0.3103,0.0,0.0,0.0,-0.3747,-0.3701,0.0,0.0,0.0,0.0,0.0,0.0,0.0,0.0,0.0,0.0,0.0,0.0,0.0,0.0,0.0,0.0,0.0,0.0,0.0,0.0,0.0,0.0,0.0,0.0,0.0,0.0,0.0,0.0,0.0,0.0,0.0,0.0,0.0,0.0,0.0,0.0,0.0,0.0,0.0,0.0,0.0,0.0,0.0,0.0,0.0,0.0,0.0,0.0,0.0,0.0,0.0,0.0,0.0,0.0,0.0,0.0,0.0,-0.0,-0.0,-0.0,-0.0,-0.054,-0.0945,-0.108,-0.108,0.0,0.0,0.0,0.0,0.0,0.0,0.0,0.0,0.0,0.0,0.0,0.0,0.0,0.0,0.0,0.0,0.0,0.0,0.0,0.0,0.0,0.0,0.0,0.0,0.0,0.0,0.0,-0.0,0.0,0.0,0.0,0.0,0.0,0.0,0.0,0.0,0.0,0.0,0.0,0.0,0.0,0.0,-0.2844,-0.3251,-0.3513,-0.3763,0.0,0.0,-0.4161,-0.4092,-0.4161,-0.4161,0.0,0.0,0.0,0.0,0.0,0.0,0.0,0.0,0.0,0.0,0.0,0.0,0.0,0.0,0.0,0.0,0.0,0.0,0.0,0.0,0.0,0.0,0.0,0.0,0.0,0.0,0.0,0.0,0.0,0.0,0.0,0.0,0.0,0.0,0.0,0.0,0.0,0.0,0.0,0.0,0.0,0.0,0.0,0.0,0.0,0.0,0.0,0.0,0.0,0.0,0.0,0.0,0.0,0.0,0.0337,-0.0,-0.0,-0.0,-0.0,-0.0067,-0.0405,-0.108,-0.108,-0.0742,0.0,0.0,0.0,0.0,0.0,0.0,0.0,0.0,0.0,0.0,0.0,0.0,0.0,0.0,0.0,0.0,0.0,0.0,0.0,0.0,0.0,0.0,0.0,0.0,0.0,0.0,0.0,0.0,0.0,0.0,0.0,0.0,0.0,0.0,0.0,0.0,0.0,0.0,0.0,0.0,0.0,-0.3579,-0.3801,-0.409,-0.4364,0.0,-0.4764,-0.4761,-0.4697,-0.4764,-0.4631,-0.4298,0.0,0.0,0.0,0.0,0.0,0.0,0.0,0.0,0.0,0.0,0.0,0.0,0.0,0.0,0.0,0.0,0.0,0.0,0.0,0.0,0.0,0.0,0.0,0.0,0.0,0.0,0.0,0.0,0.0,0.0,0.0,0.0,0.0,0.0,0.0,0.0,0.0,0.0,0.0,0.0,0.0,0.0,0.0,0.0,0.0,0.0,0.0,0.0,0.0,0.0,0.0,0.0,0.0,0.0607,-0.0,-0.0,-0.0,-0.0,-0.0,-0.0135,-0.0405,-0.0877,-0.0742,0.0,0.0,0.0,0.0,0.0,0.0,0.0,0.0,0.0,0.0,0.0,0.0,0.0,0.0,0.0,0.0,0.0,0.0,0.0,0.0,0.0,0.0,0.0,0.0,0.0,0.0,0.0,0.0,-0.0405,-0.0809,-0.108,0.0,0.0,0.0,0.0,0.0,0.0,0.0,0.0,0.0,0.0,-0.3916,-0.4092,-0.4364,0.0,0.0,-0.4891,-0.4891,-0.4827,-0.4891,-0.4891,-0.4631,-0.4564,0.0,0.0,0.0,0.0,0.0,0.0,0.0,0.0,0.0,0.0,0.0,0.0,0.0,0.0,0.0,0.0,0.0,0.0,0.0,0.0,0.0,0.0,0.0,0.0,0.0,0.0,0.0,0.0,0.0,0.0,0.0,0.0,0.0,0.0,0.0,0.0,0.0,0.0,0.0,0.0,0.0,0.0,0.0,0.0,0.0,0.0,0.0,0.0,0.0,0.0,0.0,0.0,0.0877,0.0337,0.0135,-0.0,-0.0,-0.0,-0.0135,-0.0409,-0.0887,-0.0891,0.0,0.0,0.0,0.0,0.0,0.0,0.0,0.0,0.0,0.0,0.0,0.0,0.0,0.0,0.0,0.0,0.0,0.0,0.0,0.0,0.0,0.0,0.0,0.0,0.0,0.0,0.0,0.0,-0.0809,-0.1146,-0.1146,0.0,0.0,0.0,0.0,0.0,0.0,0.0,0.0,0.0,0.0,-0.4228,-0.4567,-0.4761,-0.4824,-0.496,-0.5024,-0.509,-0.5027,-0.5093,-0.516,-0.496,0.0,0.0,0.0,0.0,0.0,0.0,0.0,0.0,0.0,0.0,0.0,0.0,0.0,0.0,0.0,0.0,0.0,0.0,0.0,0.0,0.0,0.0,0.0,0.0,0.0,0.0,0.0,0.402,0.0,0.0,0.4278,0.0,0.0,0.0,0.0,0.0,0.0,0.0,0.0,0.0,0.0,0.0,0.0,0.0,0.0,0.0,0.0,0.0,0.0,0.0,0.0,0.0,0.0,0.108,0.108,0.0338,-0.0,-0.0,-0.0,-0.041,-0.1189,-0.1261,-0.1276,-0.1235,0.0,0.0,0.0,0.0,0.0,0.0,0.0,0.0,0.0,0.0,0.0,0.0,0.0,0.0,0.0,0.0,0.0,0.0,0.0,0.0,0.0,0.0,0.0,0.0,0.0,0.0,-0.0945,-0.108,-0.1215,0.0,0.0,0.0,0.0,0.0,0.0,0.0,0.0,0.0,-0.3151,-0.3825,-0.4564,-0.5296,-0.5223,-0.5153,-0.5359,-0.5359,-0.5428,-0.5359,-0.5359,-0.5292,0.0,0.0,0.0,0.0,0.0,0.0,0.0,0.0,0.0,0.0,0.0,0.0,0.0,0.0,0.0,0.0,0.0,0.0,0.0,0.0,0.0,0.0,0.0,0.0,0.0,0.0,0.0,0.3191,0.3405,0.0,0.0,0.0,0.0,0.0,0.0,0.0,0.0,0.0,0.0,0.0,0.2481,0.2033,0.0,0.0,0.0,0.0,0.0,0.0,0.0,0.0,0.0,0.0,0.0,0.0,0.1066,0.1066,0.0355,-0.0,-0.0,-0.0,-0.0428,-0.1295,-0.1295,-0.13,-0.1311,0.0,0.0,0.0,0.0,0.0,0.0,0.0,0.0,0.0,0.0,0.0,0.0,0.0,0.0,0.0,0.0,0.0,0.0,0.0,0.0,0.0,0.0,0.0,0.0,0.0,-0.0901,0.0,0.0,0.0,0.0,0.0,0.0,0.0,0.0,0.0,0.0,0.0,-0.3694,-0.3623,-0.4289,-0.496,-0.5359,-0.5359,-0.5359,0.0,0.0,0.0,0.0,0.0,0.0,0.0,0.0,0.0,0.0,0.0,0.0,0.0,0.0,-0.4431,-0.4298,-0.4364,-0.435,-0.4312,0.0,0.0,0.0,0.0,0.0,0.0,0.0,0.0,0.0,0.0,0.0,0.0,0.0,0.0,0.2623,0.284,0.3203,0.0,0.0,0.0,0.0,0.0,0.0,0.0,0.0,0.2431,0.2276,0.2277,0.1649,0.1336,0.0,0.1179,0.1005,0.0,0.0,0.0,0.0,0.0,0.0,0.0,0.0,0.0947,0.0729,-0.0073,-0.0291,-0.0,-0.0291,-0.0732,-0.1256,-0.1342,-0.1348,-0.1347,-0.1336,-0.1034,0.0,0.0,0.0,0.0,0.0,0.0,0.0,0.0,0.0,0.0,0.0,0.0,0.0,0.0,0.0,0.0,0.0,0.0,0.0,0.0,0.0,0.0,0.0,-0.1281,0.0,0.0,0.0,0.0,0.0,0.0,0.0,0.0,0.0,-0.3608,-0.4008,-0.4214,-0.414,-0.4716,-0.5228,-0.5373,0.0,0.0,0.0,0.0,0.0,0.0,0.0,-0.5428,-0.5428,-0.5292,-0.5223,-0.5223,-0.5024,-0.4891,-0.4824,0.0,0.0,-0.4364,-0.4303,-0.4303,-0.4303,-0.4431,-0.4472,-0.4392,-0.4634,-0.48,0.0,0.0,0.0,0.0,0.0,0.0,0.0,0.0,0.1977,0.2048,0.0,0.2706,0.0,0.0,0.0,0.0,0.2425,0.2249,0.0,0.0,0.1963,0.173,0.1808,0.1022,0.0629,0.0629,0.0629,0.0628,0.0628,0.1021,0.0,0.0,0.0,0.0,0.0,0.0,0.073,-0.0073,-0.0878,-0.0877,-0.0146,-0.0877,-0.1258,-0.1288,-0.1319,-0.1335,-0.1334,-0.1305,-0.1289,-0.1289,-0.0518,0.0,0.0,0.0,0.0,0.0,0.0,0.0,0.0,0.0,0.0,0.0,0.0,0.0,0.0,0.0,0.0,0.0,0.0,0.0,0.0,-0.0803,0.0,0.0,0.0,0.0,0.0,0.0,0.0,0.0,0.0,-0.4012,-0.437,-0.4579,-0.472,-0.4781,0.0,0.0,0.0,0.0,-0.5446,-0.5446,-0.5442,-0.5442,-0.5372,-0.5439,-0.5435,-0.5428,0.0,0.0,-0.5428,-0.5223,-0.5087,-0.5087,-0.4824,-0.4561,-0.4364,-0.4303,-0.4303,-0.4303,-0.43,-0.4367,-0.4558,-0.4613,-0.468,0.059,0.0,0.0,0.0,0.0,0.126,0.1128,0.1,0.1386,0.1616,0.1846,0.2386,0.0,0.0,0.0,0.0,0.0,0.0,0.2121,0.2043,0.1649,0.1415,0.1493,0.1258,0.0786,0.0157,0.0471,0.0629,0.0629,0.0707,0.0782,0.0778,0.0,0.0,0.0,0.0,-0.0077,-0.0923,-0.1154,-0.1154,-0.0923,-0.1154,-0.1312,-0.1322,-0.133,-0.1336,-0.1336,-0.1327,-0.1322,-0.1321,-0.1063,0.0,0.0,0.0,0.0,0.0,0.0,0.0,0.0,0.0,0.0,0.0,0.0,0.0,0.0,0.0,0.0,0.0,0.0,0.0,-0.0897,-0.1142,-0.1299,0.0,0.0,0.0,0.0,0.0,0.0,0.0,0.0,0.0,-0.5214,-0.5126,-0.5084,0.0,0.0,-0.5668,-0.5668,-0.5701,-0.5677,-0.5674,-0.5674,0.0,-0.5538,-0.5525,-0.5488,-0.5446,-0.5428,-0.5428,-0.5428,-0.5359,-0.5226,-0.496,-0.4827,-0.4631,-0.4367,-0.4303,-0.4303,-0.4303,-0.4303,-0.43,-0.4364,-0.4495,-0.4625,0.0784,0.1157,0.0964,0.0888,0.0908,0.106,0.0922,0.0629,0.0707,0.0943,0.1336,0.1808,0.1887,0.1651,0.1415,0.0,0.0,0.0,0.1573,0.1651,0.1415,0.11,0.0786,0.0786,0.055,-0.0,0.0236,0.0393,0.0393,0.0393,0.0393,0.0393,0.0,0.0786,0.0786,0.0236,-0.0471,-0.1258,-0.1336,-0.1336,-0.1336,-0.1336,-0.1336,-0.1336,-0.1336,-0.1336,-0.1336,-0.1336,-0.1336,-0.1335,-0.1317,-0.1076,0.0,0.0,0.0,0.0,0.0,0.0,0.0,0.0,0.0,0.0,0.0,-0.0,-0.0,0.0,0.0,0.0,-0.0971,-0.1285,-0.1305,-0.1324,0.0,0.0,0.0,0.0,0.0,0.0,0.0,-0.4155,-0.4693,-0.5162,-0.5556,-0.5566,-0.5535,-0.5686,-0.5785,-0.5891,-0.5967,0.0,-0.58,-0.58,-0.58,-0.5772,-0.5688,-0.5674,-0.5623,-0.5477,-0.545,-0.5494,-0.5369,-0.5359,-0.5226,-0.4957,-0.4827,-0.4628,-0.4428,-0.4364,-0.4303,-0.4303,-0.4303,-0.4303,-0.4303,-0.4434,-0.4498,0.1348,0.1339,0.0767,0.0599,0.0534,0.0917,0.0927,0.0551,0.0236,0.0236,0.0707,0.11,0.1258,0.1179,0.1258,0.0,0.1258,0.0864,0.0864,0.1179,0.1179,0.0786,-0.0,-0.0,-0.0,-0.0,-0.0,-0.0,-0.0,-0.0,-0.0,-0.0,-0.0,-0.0,-0.0,-0.0079,-0.0471,-0.1258,-0.1258,-0.1336,-0.1336,-0.1336,-0.1336,-0.1336,-0.1336,-0.1336,-0.1336,-0.1336,-0.1336,-0.1336,-0.1336,-0.1336,-0.1256,0.0,0.0,0.0,0.0,0.0,0.0,0.0,0.0,0.0,0.0,0.0,0.0,0.0,0.0,0.0,-0.1241,0.0,-0.1336,-0.1336,0.0,0.0,0.0,-0.2201,-0.2984,-0.3372,-0.3759,-0.4307,0.0,0.0,-0.5559,-0.5786,-0.6018,-0.6257,-0.6139,-0.6051,-0.6279,-0.6012,-0.584,-0.5857,-0.5844,-0.5837,-0.5823,-0.5803,-0.5745,-0.563,-0.5596,-0.5532,-0.5346,-0.5163,-0.509,-0.5024,-0.4824,-0.4625,-0.4561,-0.4364,-0.4233,-0.43,-0.43,-0.43,-0.4233,-0.4233,-0.4231,0.1095,0.1346,0.1235,0.0982,0.0658,0.074,0.0735,0.0565,0.0484,0.0719,0.1179,0.1258,0.0943,0.0314,0.1022,0.1336,0.1336,0.1179,0.0864,0.0314,0.0314,0.0236,-0.0,-0.0,-0.0,-0.0,-0.0,-0.0,-0.0,-0.0,-0.0,-0.0,-0.0,-0.0,-0.0,-0.0629,-0.0943,-0.0786,-0.11,-0.1336,-0.1336,-0.1336,-0.1336,-0.1336,-0.1336,-0.1336,-0.1336,-0.1336,-0.1336,-0.1336,-0.1336,-0.1336,-0.1336,-0.1094,0.0,0.0,0.0,0.0,0.0,0.0,0.0,0.0,0.0,-0.0303,-0.0925,0.0,-0.0935,0.0,-0.1096,-0.1336,-0.1336,-0.1336,0.0,0.0,-0.1651,-0.22,-0.2984,-0.345,-0.3917,-0.4307,-0.501,-0.5482,-0.5562,-0.5948,-0.618,-0.6257,-0.6227,-0.6283,-0.628,-0.6256,-0.6149,-0.6142,-0.6139,-0.6112,-0.5993,-0.5874,-0.5724,-0.5548,-0.545,-0.5296,-0.5127,-0.4962,-0.4827,-0.4758,-0.4691,-0.4558,-0.4434,-0.4231,-0.4097,-0.4097,-0.4097,-0.4097,-0.4097,-0.3964,-0.3894,0.1474,0.182,0.182,0.156,0.1385,0.1104,0.1004,0.0992,0.0909,0.1067,0.1298,0.1297,0.1054,0.0649,0.0892,0.0892,0.073,0.073,0.0486,-0.0,-0.0,-0.0,-0.0,-0.0,-0.0,-0.0,-0.0,-0.0,-0.0,-0.0,-0.0,-0.0,-0.0,-0.0157,-0.055,-0.1022,-0.1179,-0.0943,-0.1179,-0.1336,-0.1336,-0.1336,-0.1336,-0.1336,-0.1336,-0.1336,-0.1336,-0.1336,-0.1336,-0.1336,-0.1336,-0.1336,-0.1336,-0.1336,-0.11,0.0,0.0,0.0,0.0,0.0,0.0,0.0,0.0,0.0,0.0,0.0,-0.1179,-0.0943,-0.1179,-0.1336,-0.1336,-0.1336,-0.1336,-0.1336,-0.1651,-0.2201,-0.3061,-0.353,-0.3997,-0.4384,-0.501,-0.5482,-0.5479,-0.587,-0.6177,-0.6257,-0.6261,-0.6261,-0.6261,-0.6261,-0.6261,-0.6261,-0.6261,-0.623,-0.5983,-0.5907,-0.5757,-0.5475,-0.5403,-0.5263,-0.513,-0.492,-0.4786,-0.4659,-0.4509,-0.4355,-0.418,-0.403,-0.3894,-0.3894,-0.3828,-0.3828,-0.3894,-0.3828,-0.3758,0.2073,0.2343,0.2247,0.2244,0.2238,0.1812,0.1526,0.1523,0.1438,0.1351,0.1348,0.1348,0.1348,0.1263,0.0927,0.059,0.0168,0.0084,-0.0,-0.0,-0.0,-0.0,-0.0,-0.0,-0.0,-0.0,-0.0,-0.0,-0.0,-0.0,-0.0079,-0.0158,-0.0079,-0.0394,-0.1179,-0.1258,-0.1336,-0.1336,-0.1336,-0.1336,-0.1336,-0.1336,-0.1336,-0.1336,-0.1336,-0.1336,-0.1336,-0.1336,-0.1336,-0.1336,-0.1336,-0.1336,-0.1336,-0.1336,-0.1336,0.0,-0.1336,0.0,0.0,0.0,0.0,0.0,0.0,0.0,0.0,-0.11,-0.1336,-0.1336,-0.1336,-0.1336,-0.1336,-0.1336,-0.1336,-0.1336,-0.165,-0.2278,-0.2984,-0.353,-0.3919,-0.4384,-0.4929,-0.5243,-0.5321,-0.5631,-0.5941,-0.6261,-0.6183,-0.618,-0.6183,-0.618,-0.6257,-0.6257,-0.6257,-0.6096,-0.5931,-0.5854,-0.5733,-0.5406,-0.5277,-0.5244,-0.5056,-0.4873,-0.4759,-0.4593,-0.4359,-0.4114,-0.4004,-0.3849,-0.3708,-0.3696,-0.3493,-0.3429,-0.3627,-0.3692,-0.3558,0.2209,0.2298,0.2441,0.2424,0.2422,0.2578,0.2369,0.1988,0.1901,0.1882,0.1767,0.1682,0.1513,0.1346,0.1263,0.118,0.1095,0.0337,-0.0,-0.0,-0.0,-0.0,-0.0,-0.0,-0.0,-0.0,-0.0,-0.0,-0.0,-0.0,-0.0329,-0.1051,-0.0323,-0.024,-0.0708,0.0,0.0,0.0,-0.1336,-0.1336,-0.1336,-0.1336,-0.1336,-0.1336,-0.1336,0.0,-0.1336,-0.1336,-0.1336,-0.1336,-0.1336,0.0,0.0,0.0,0.0,0.0,0.0,0.0,0.0,0.0,0.0,0.0,-0.1336,-0.1258,-0.1179,-0.1258,-0.1336,-0.1336,-0.1336,-0.1336,-0.1336,-0.1415,-0.1493,-0.1336,-0.1806,-0.2433,-0.3061,-0.3374,-0.3761,-0.4307,-0.4774,-0.5087,-0.5251,-0.5556,-0.5799,-0.6132,-0.5957,-0.5715,-0.5724,-0.5876,-0.5941,-0.5941,-0.587,-0.5715,-0.5637,-0.5637,-0.547,-0.5197,-0.4966,-0.4833,-0.4502,-0.4279,-0.4152,-0.4118,-0.4044,-0.4013,-0.3908,-0.3682,-0.3451,-0.3307,-0.3094,-0.2956,-0.3226,-0.3226,-0.3092,0.2912,0.3004,0.316,0.3147,0.0,0.3328,0.3217,0.3001,0.2671,0.2367,0.2173,0.2085,0.1998,0.1824,0.1652,0.1565,0.1391,0.0869,0.0434,-0.0,-0.0,-0.0,-0.0,-0.0,-0.0,-0.0,-0.0,-0.0,-0.0,-0.0505,-0.0921,-0.1325,-0.0911,-0.0741,-0.0977,-0.1207,-0.1352,-0.1336,-0.1336,-0.1336,-0.1336,-0.1336,-0.1336,-0.1336,-0.1336,0.0,0.0,0.0,0.0,0.0,0.0,0.0,0.0,-0.1336,0.0,-0.1336,-0.1336,-0.1336,-0.1336,-0.1336,-0.1336,-0.1336,-0.1336,-0.1336,-0.1336,-0.1336,-0.1336,-0.1336,-0.1336,-0.1342,-0.1278,-0.1359,-0.1445,-0.1298,-0.1868,-0.2355,-0.2844,-0.3329,-0.3734,-0.414,-0.4542,-0.4862,-0.5025,-0.5186,-0.535,-0.5594,-0.5514,-0.5345,-0.5253,-0.5474,-0.5712,-0.5786,-0.5634,-0.5482,-0.5323,-0.5323,-0.5165,-0.4841,-0.465,-0.4466,-0.4234,-0.4116,-0.3991,-0.3871,-0.3708,-0.3607,-0.3522,-0.3285,-0.3115,-0.2902,-0.2742,-0.2589,-0.2565,-0.2622,-0.2622,0.3736,0.3927,0.3915,0.4003,0.3908,0.4005,0.4005,0.3996,0.331,0.0,0.0,0.2723,0.2541,0.2357,0.2079,0.1804,0.1443,0.1438,0.0987,0.0269,0.009,-0.0,-0.0,-0.0,-0.0,-0.0,-0.0,-0.0087,-0.0256,-0.1023,-0.1446,-0.1356,-0.1356,-0.1354,-0.1431,-0.1323,-0.1299,-0.1274,-0.1342,-0.1336,-0.1336,-0.1336,-0.1336,-0.1336,-0.1336,-0.1336,-0.1336,-0.1336,-0.1336,-0.1336,-0.1336,-0.1336,-0.1336,-0.1336,-0.1336,-0.1336,-0.1336,-0.1336,-0.1336,-0.1336,-0.1338,-0.1344,-0.1344,-0.1342,-0.1337,-0.1341,-0.1344,-0.1344,-0.1349,-0.1284,-0.1308,-0.131,-0.1402,-0.1594,-0.2019,-0.2439,-0.2776,-0.3196,-0.369,-0.3952,-0.436,-0.4617,-0.4694,-0.4853,-0.4946,-0.4944,-0.5098,-0.5116,-0.4838,-0.5178,-0.5436,-0.5329,-0.5246,-0.5243,-0.5007,-0.4851,-0.4696,-0.4382,-0.4226,-0.4151,-0.3999,-0.3921,-0.3812,-0.3512,-0.3351,-0.3165,-0.3025,-0.286,-0.2688,-0.2479,-0.2397,-0.2237,-0.198,-0.2034,-0.2168,0.3903,0.39,0.4124,0.4189,0.4189,0.4383,0.4478,0.4476,0.398,0.3782,0.369,0.3499,0.3213,0.2928,0.2598,0.221,0.1841,0.1538,0.1346,0.1166,0.0359,-0.0,-0.0,-0.0,-0.0,-0.0,-0.0,-0.0446,-0.1156,-0.1333,-0.1411,-0.139,-0.1387,-0.1374,-0.1434,-0.1427,-0.1339,-0.1334,-0.1284,-0.1336,-0.1336,-0.1336,-0.1336,-0.1336,-0.1336,-0.1336,-0.1336,-0.1336,-0.1336,-0.1336,-0.1336,-0.1336,-0.1336,-0.1336,-0.1336,-0.1336,-0.1336,-0.1336,-0.1336,-0.1336,-0.1348,-0.1294,-0.1296,-0.1286,-0.1339,-0.1281,-0.1296,-0.1296,-0.1318,-0.1337,-0.1341,-0.1508,-0.1844,-0.2525,-0.2695,-0.2779,-0.3039,-0.3121,-0.3376,-0.388,-0.4036,-0.4294,-0.4555,-0.4715,-0.4636,-0.4624,-0.465,-0.4708,-0.4694,-0.4764,-0.4811,-0.4646,-0.454,-0.454,-0.4462,-0.4309,-0.4153,-0.3919,-0.3761,-0.3526,-0.3295,-0.3217,-0.3132,-0.2966,-0.2882,-0.278,-0.2571,-0.2332,-0.2233,-0.2115,-0.1958,-0.1797,-0.1683,-0.1671,-0.159,0.4674,0.4767,0.4925,0.5005,0.5005,0.5103,0.5105,0.5105,0.491,0.4564,0.41,0.3906,0.3716,0.3523,0.3113,0.2725,0.2538,0.2049,0.1764,0.1392,0.102,0.0557,-0.0,-0.0,-0.0,-0.0,-0.0,-0.0449,-0.1348,-0.1436,-0.1428,-0.1416,-0.1416,-0.1409,-0.1395,-0.1379,-0.1371,-0.1369,-0.1328,-0.1307,-0.1305,-0.129,-0.1281,-0.1282,-0.1346,-0.1336,-0.1336,-0.1336,-0.1336,-0.1336,-0.1336,-0.1336,-0.1336,-0.1336,-0.1336,-0.1337,-0.1273,-0.1281,-0.1281,-0.1298,-0.1313,-0.1326,-0.1327,-0.1322,-0.1308,-0.1319,-0.1327,-0.1327,-0.134,-0.1354,-0.1369,-0.1455,-0.1719,-0.2089,-0.2354,-0.2616,-0.2703,-0.2963,-0.3222,-0.3398,-0.3658,-0.3832,-0.4092,-0.4092,-0.4092,-0.409,-0.4004,-0.3986,-0.4026,-0.4071,-0.4155,-0.4266,-0.4229,-0.4049,-0.3851,-0.3682,-0.3448,-0.3294,-0.3057,-0.2901,-0.2668,-0.2589,-0.2511,-0.2356,-0.2278,-0.2268,-0.2163,-0.2085,-0.191,-0.1799,-0.1712,-0.1621,-0.1444,-0.1347,-0.1251,0.5338,0.5534,0.5534,0.5534,0.5534,0.5534,0.5534,0.5534,0.5534,0.5149,0.4542,0.4436,0.4246,0.3959,0.3558,0.326,0.3068,0.2676,0.2193,0.1717,0.1622,0.1144,0.0381,0.0281,0.0093,-0.0,-0.0,-0.0365,-0.1002,-0.1274,-0.1361,-0.1446,-0.1439,-0.1436,-0.1434,-0.1412,-0.14,-0.1399,-0.1378,-0.1276,-0.1348,-0.1324,-0.1313,-0.1311,-0.129,-0.1277,-0.1278,-0.1277,-0.1277,-0.1278,-0.1278,-0.1277,-0.1277,-0.1277,-0.1277,-0.128,-0.13,-0.1313,-0.1314,-0.1335,-0.1351,-0.1357,-0.1357,-0.1276,-0.1281,-0.1368,-0.1364,-0.1359,-0.1365,-0.1378,-0.1396,-0.14,-0.141,-0.1522,-0.1974,-0.2239,-0.2332,-0.269,-0.3048,-0.2957,-0.3226,-0.3492,-0.3587,-0.3587,-0.3669,-0.3666,-0.3406,-0.3293,-0.3335,-0.3325,-0.344,-0.3675,-0.3695,-0.3572,-0.3337,-0.3084,-0.2841,-0.2673,-0.2511,-0.2354,-0.2276,-0.2198,-0.212,-0.1964,-0.1965,-0.1885,-0.1807,-0.1728,-0.1714,-0.1533,-0.1451,-0.1288,-0.1109,-0.1081,-0.1053,0.5636,0.5839,0.5636,0.5534,0.5636,0.5636,0.5636,0.5636,0.5634,0.5529,0.5397,0.5211,0.4808,0.4407,0.4237,0.3814,0.3224,0.3074,0.2769,0.2198,0.1812,0.1526,0.1338,0.0952,0.0475,-0.0,-0.0,-0.0,-0.0189,-0.0946,-0.1408,-0.1384,-0.1449,-0.1348,-0.1346,-0.1343,-0.1431,-0.1431,-0.1429,-0.1401,-0.1352,-0.1346,-0.1343,-0.1344,-0.1341,-0.1339,-0.1335,-0.1339,-0.1339,-0.1339,-0.1338,-0.1339,-0.1338,-0.1339,-0.1339,-0.1338,-0.1342,-0.1343,-0.1345,-0.1346,-0.1361,-0.1382,-0.1386,-0.1397,-0.1421,-0.1425,-0.1415,-0.1397,-0.141,-0.1424,-0.1431,-0.143,-0.1519,-0.1703,-0.1885,-0.2064,-0.2244,-0.2513,-0.2602,-0.2868,-0.3047,-0.3315,-0.3408,-0.3497,-0.3408,-0.3227,-0.3138,-0.3045,-0.2943,-0.2763,-0.266,-0.2683,-0.2892,-0.2997,-0.2855,-0.2512,-0.2334,-0.2215,-0.2123,-0.197,-0.1973,-0.2047,-0.2045,-0.165,-0.1808,-0.1651,-0.1415,-0.1336,-0.1335,-0.1328,-0.109,-0.0699,-0.0682,-0.0888,-0.0937,0.5939,0.6137,0.6137,0.6034,0.6034,0.6037,0.6037,0.6037,0.6034,0.6037,0.5839,0.5536,0.5238,0.4836,0.4501,0.4189,0.3887,0.3563,0.3158,0.2862,0.2466,0.2073,0.1578,0.1365,0.1164,0.0872,0.0671,0.0381,-0.0,-0.0381,-0.0854,-0.1319,-0.1121,-0.0837,-0.0651,-0.0827,-0.1005,-0.1004,-0.1264,-0.1423,-0.1401,-0.1383,-0.1374,-0.1371,-0.1356,-0.1348,-0.1348,-0.1348,-0.1348,-0.1348,-0.1348,-0.1348,-0.1348,-0.1348,-0.1348,-0.1349,-0.1364,-0.138,-0.1398,-0.1399,-0.1405,-0.1416,-0.1417,-0.1423,-0.1433,-0.1436,-0.1429,-0.1421,-0.1428,-0.1436,-0.1436,-0.1436,-0.1436,-0.1615,-0.1705,-0.1885,-0.1795,-0.2155,-0.2334,-0.2332,-0.2511,-0.2691,-0.2781,-0.2781,-0.2691,-0.2601,-0.2602,-0.2602,-0.2512,-0.2423,-0.2325,-0.2308,-0.2373,-0.2327,-0.2344,-0.2075,-0.1899,-0.1882,-0.1698,-0.1606,-0.1603,-0.1346,-0.1179,-0.118,-0.1181,-0.1102,-0.0943,-0.0943,-0.0943,-0.1022,-0.0707,-0.0235,-0.0233,-0.0683,-0.0966,0.6239,0.6437,0.6437,0.6437,0.6437,0.6437,0.6437,0.6437,0.6437,0.6239,0.6039,0.5737,0.5536,0.5238,0.4738,0.4438,0.4338,0.4038,0.3635,0.3332,0.3029,0.2524,0.2017,0.1893,0.1781,0.1581,0.1172,0.0775,0.029,0.0289,-0.0096,-0.0673,-0.0478,-0.0095,0.0095,-0.0094,-0.028,-0.0373,-0.101,-0.1366,-0.1446,-0.1427,-0.1412,-0.1402,-0.1383,-0.1371,-0.1372,-0.1372,-0.1371,-0.1371,-0.1286,-0.1286,-0.1286,-0.1372,-0.1286,-0.1373,-0.1391,-0.1412,-0.1434,-0.1436,-0.1436,-0.1436,-0.1436,-0.1436,-0.1436,-0.1436,-0.1436,-0.1435,-0.1436,-0.1436,-0.1436,-0.1436,-0.1436,-0.1436,-0.1615,-0.1615,-0.1436,-0.1795,-0.2064,-0.1974,-0.2154,-0.2155,-0.2244,-0.2244,-0.2244,-0.2154,-0.2064,-0.2064,-0.1974,-0.1974,-0.1974,-0.1974,-0.1883,-0.1854,-0.1967,-0.1784,-0.1613,-0.1343,-0.1159,-0.1151,-0.1232,-0.097,-0.0557,-0.0722,-0.0557,-0.0474,-0.0472,-0.0471,-0.0471,-0.0707,-0.0393,-0.0,-0.0,-0.0,-0.0537,0.6337,0.6437,0.6437,0.6437,0.6437,0.6437,0.6437,0.6437,0.6437,0.6437,0.6337,0.5837,0.5534,0.5534,0.5035,0.4636,0.4438,0.4338,0.4038,0.3534,0.3332,0.3029,0.2725,0.252,0.2116,0.1711,0.1607,0.1305,0.0803,0.0791,0.0785,0.0686,0.0676,0.0764,0.0765,0.0668,0.0762,0.0571,-0.0569,-0.1318,-0.1297,-0.1292,-0.1279,-0.1348,-0.1431,-0.1427,-0.1428,-0.143,-0.1429,-0.143,-0.1427,-0.1429,-0.1429,-0.1429,-0.1427,-0.1429,-0.1431,-0.1433,-0.1435,-0.1436,-0.1436,-0.1436,-0.1436,-0.1436,-0.1436,-0.1436,-0.1437,-0.1436,-0.144,-0.1439,-0.1442,-0.1439,-0.1438,-0.1439,-0.1438,-0.1438,-0.1439,-0.1623,-0.1796,-0.1887,-0.1976,-0.2065,-0.2155,-0.2155,-0.2064,-0.1885,-0.1795,-0.1795,-0.1615,-0.1525,-0.1525,-0.1436,-0.1433,-0.1514,-0.1745,-0.165,-0.1292,-0.1025,-0.0934,-0.0757,-0.1093,-0.1173,-0.0745,-0.0,-0.0,-0.0,-0.0,-0.0,-0.0,-0.0079,-0.0,-0.0,-0.0,-0.0,-0.0,0.6437,0.6437,0.6437,0.6437,0.6437,0.6437,0.6437,0.6437,0.6437,0.6437,0.6337,0.5834,0.5534,0.5534,0.5035,0.4734,0.4638,0.4437,0.4237,0.3833,0.3534,0.323,0.2826,0.2725,0.2422,0.212,0.212,0.1918,0.1715,0.1404,0.13,0.1299,0.1292,0.1287,0.1284,0.1271,0.1264,0.1262,0.0768,0.0475,0.0472,0.0471,0.0188,-0.0466,-0.1091,-0.1436,-0.1436,-0.1436,-0.1436,-0.1436,-0.1436,-0.1436,-0.1436,-0.1436,-0.1436,-0.1436,-0.1436,-0.1436,-0.1436,-0.1436,-0.1436,-0.1436,-0.1436,-0.1438,-0.1436,-0.1436,-0.1443,-0.1459,-0.1464,-0.1471,-0.1481,-0.1459,-0.1444,-0.146,-0.1465,-0.1472,-0.1484,-0.1569,-0.1647,-0.1644,-0.1721,-0.1705,-0.1709,-0.1705,-0.1615,-0.1525,-0.1525,-0.1526,-0.1436,-0.1436,-0.1346,-0.1076,-0.1256,-0.1432,-0.1513,-0.1509,-0.1326,-0.1053,-0.0784,-0.0432,-0.043,-0.051,-0.0168,-0.0084,-0.0,-0.0,0.0081,0.0079,0.0158,0.0552,0.0631,0.055,-0.0,0.0393,0.055,0.6437,0.6437,0.6437,0.6437,0.6437,0.6437,0.6437,0.6437,0.6437,0.6437,0.6337,0.5837,0.5534,0.5536,0.5033,0.4832,0.4734,0.4636,0.4437,0.4137,0.3835,0.3533,0.313,0.2928,0.2826,0.2522,0.2422,0.2321,0.222,0.1918,0.1818,0.1817,0.1818,0.1817,0.1813,0.1894,0.1883,0.1877,0.1662,0.1551,0.1543,0.154,0.1247,0.0475,-0.0464,-0.0915,-0.1007,-0.119,-0.1373,-0.1373,-0.1464,-0.1465,-0.1373,-0.1373,-0.1373,-0.1464,-0.1465,-0.1465,-0.1373,-0.1373,-0.1465,-0.1465,-0.1465,-0.1465,-0.1464,-0.1464,-0.1475,-0.149,-0.1495,-0.1506,-0.1513,-0.1489,-0.1474,-0.1492,-0.1495,-0.1503,-0.1521,-0.1507,-0.1497,-0.1493,-0.148,-0.1468,-0.1373,-0.1282,-0.1187,-0.118,-0.1178,-0.1176,-0.1168,-0.1346,-0.1166,-0.0628,-0.0359,-0.0448,-0.0537,-0.0447,-0.0268,-0.0089,-0.0089,0.0264,0.0262,0.0259,0.0257,0.0256,0.0254,0.0252,0.0248,0.0242,0.0559,0.1034,0.1105,0.0943,0.0943,0.0864,0.0943,0.6437,0.6437,0.6437,0.6437,0.6437,0.6437,0.6437,0.6437,0.6437,0.6437,0.6337,0.5837,0.5534,0.5536,0.5033,0.4832,0.4832,0.4734,0.4638,0.4336,0.4135,0.3835,0.3536,0.3332,0.3029,0.2826,0.2522,0.2422,0.2422,0.2321,0.2321,0.2321,0.2321,0.222,0.2422,0.2316,0.2317,0.2213,0.1906,0.1695,0.1575,0.167,0.156,0.144,0.0477,-0.0,-0.0,-0.0856,-0.1423,-0.1425,-0.1426,-0.143,-0.1424,-0.1423,-0.1427,-0.1518,-0.1521,-0.1428,-0.1426,-0.1519,-0.1516,-0.1516,-0.1521,-0.1516,-0.1514,-0.1517,-0.1519,-0.1525,-0.1526,-0.1529,-0.1532,-0.153,-0.1526,-0.1526,-0.1526,-0.1528,-0.1532,-0.1528,-0.1525,-0.1523,-0.1517,-0.1523,-0.1429,-0.1137,-0.0846,-0.0557,-0.0462,-0.0552,-0.0546,-0.0816,-0.0811,-0.009,0.0451,0.0542,0.063,0.0718,0.0987,0.1165,0.1074,0.107,0.0801,0.0706,0.0701,0.0698,0.0691,0.0685,0.093,0.0911,0.0899,0.1217,0.1281,0.1425,0.1346,0.1346,0.1416,0.6437,0.6437,0.6437,0.6437,0.6437,0.6437,0.6437,0.6437,0.6437,0.6437,0.6337,0.5834,0.5534,0.5434,0.5033,0.4832,0.4832,0.4734,0.4636,0.4438,0.4338,0.4036,0.3635,0.3536,0.3332,0.313,0.3029,0.2928,0.2927,0.2927,0.2826,0.2725,0.2826,0.2725,0.2422,0.2422,0.2422,0.2422,0.2219,0.2112,0.2102,0.1802,0.1598,0.159,0.129,0.1092,0.0991,-0.0484,-0.1336,-0.1337,-0.1431,-0.1431,-0.1431,-0.1431,-0.1431,-0.1526,-0.1622,-0.1526,-0.1526,-0.1528,-0.1529,-0.1527,-0.1528,-0.1526,-0.1526,-0.1528,-0.1538,-0.1553,-0.1558,-0.1564,-0.1583,-0.1589,-0.1578,-0.156,-0.1558,-0.1566,-0.1578,-0.1569,-0.1549,-0.153,-0.1526,-0.1526,-0.1431,-0.1146,-0.0477,0.0568,0.0756,0.0659,0.0374,0.0186,0.0093,0.0552,0.1101,0.1461,0.1274,0.1268,0.1354,0.1532,0.153,0.1526,0.1256,0.1165,0.116,0.1242,0.123,0.1306,0.1549,0.1613,0.1507,0.1573,0.1799,0.1864,0.1769,0.1758,0.1826,0.6437,0.6437,0.6437,0.6437,0.6437,0.6437,0.6437,0.6437,0.6437,0.6437,0.6337,0.5834,0.5534,0.5434,0.5035,0.4834,0.4832,0.4832,0.4734,0.4537,0.4437,0.4137,0.3734,0.3534,0.3332,0.3232,0.323,0.323,0.323,0.323,0.313,0.3029,0.313,0.3029,0.2725,0.2725,0.2725,0.2725,0.2725,0.2725,0.2623,0.2322,0.202,0.1615,0.1616,0.1617,0.1513,0.0395,-0.0487,-0.078,-0.0877,-0.1072,-0.1365,-0.1463,-0.1463,-0.156,-0.156,-0.1561,-0.156,-0.1563,-0.156,-0.156,-0.156,-0.156,-0.156,-0.156,-0.157,-0.1584,-0.1588,-0.1596,-0.1612,-0.1616,-0.1607,-0.1591,-0.1588,-0.1597,-0.1611,-0.16,-0.1484,-0.1371,-0.1367,-0.1267,-0.0974,-0.039,-0.0,0.116,0.1447,0.1535,0.1243,0.1238,0.1228,0.1315,0.1687,0.1861,0.1751,0.174,0.182,0.1812,0.1806,0.1799,0.1705,0.1705,0.17,0.1698,0.1686,0.1683,0.193,0.1986,0.1957,0.2191,0.2343,0.2154,0.2052,0.2019,0.2084,0.6437,0.6437,0.6437,0.6437,0.6437,0.6437,0.6437,0.6437,0.6437,0.6337,0.6237,0.5834,0.5536,0.5434,0.5035,0.4832,0.4832,0.4832,0.4832,0.4736,0.4537,0.4236,0.3932,0.3533,0.3332,0.323,0.323,0.323,0.323,0.323,0.323,0.313,0.323,0.323,0.313,0.313,0.313,0.313,0.313,0.313,0.313,0.313,0.2725,0.1816,0.1817,0.1819,0.1716,0.1408,0.0906,0.0202,0.0101,-0.0301,-0.121,-0.1515,-0.1409,-0.1307,-0.1514,-0.151,-0.1513,-0.1405,-0.1306,-0.1305,-0.1405,-0.1616,-0.1608,-0.1605,-0.1606,-0.1611,-0.1612,-0.1614,-0.1616,-0.1617,-0.1615,-0.1515,-0.1511,-0.1614,-0.1515,-0.1515,-0.1307,-0.0905,-0.111,-0.111,-0.0,0.0804,0.1098,0.1187,0.1476,0.1661,0.1744,0.1836,0.2111,0.2296,0.2293,0.2274,0.2253,0.2331,0.2317,0.2493,0.2289,0.2173,0.2068,0.2064,0.2243,0.224,0.2239,0.2239,0.2319,0.2369,0.2437,0.2602,0.2491,0.2373,0.2342,0.2474,0.2516,0.6437,0.6437,0.6437,0.6437,0.6437,0.6437,0.6437,0.6437,0.6437,0.6237,0.6039,0.5737,0.5539,0.5238,0.4935,0.4832,0.4832,0.4832,0.4832,0.4832,0.4736,0.4435,0.4033,0.3633,0.3433,0.323,0.323,0.323,0.323,0.323,0.323,0.323,0.323,0.323,0.323,0.323,0.323,0.323,0.323,0.323,0.323,0.323,0.313,0.2826,0.2726,0.2524,0.2221,0.1817,0.1312,0.0707,0.101,0.0707,-0.0303,-0.0404,-0.0404,-0.0404,-0.0404,-0.0808,-0.1212,-0.0808,-0.0505,-0.0505,-0.0808,-0.1212,-0.1617,-0.1617,-0.1617,-0.1617,-0.1617,-0.1516,-0.1516,-0.1516,-0.1415,-0.1111,-0.1212,-0.1313,-0.1111,-0.1313,-0.1313,-0.0404,0.0303,0.0606,0.0707,0.1111,0.1613,0.1806,0.1901,0.2099,0.2176,0.2172,0.2362,0.2538,0.2624,0.2699,0.2774,0.285,0.293,0.3111,0.298,0.274,0.2534,0.2333,0.2511,0.2688,0.2688,0.2688,0.2867,0.2935,0.3021,0.2921,0.3065,0.3017,0.3082,0.3215,0.3147,0.638,0.6437,0.6437,0.6437,0.6437,0.6437,0.6437,0.6337,0.6237,0.6139,0.5942,0.5639,0.5338,0.514,0.4935,0.4832,0.4832,0.4832,0.4832,0.4832,0.4834,0.4535,0.4135,0.3836,0.3536,0.3332,0.3232,0.323,0.323,0.323,0.323,0.323,0.323,0.323,0.323,0.323,0.323,0.323,0.323,0.323,0.323,0.323,0.323,0.323,0.323,0.3029,0.2522,0.2219,0.1817,0.1313,0.1415,0.1313,0.0808,0.0707,0.0707,0.0707,0.0707,0.0202,-0.0505,-0.0101,0.0404,0.0505,0.0101,-0.0303,-0.0606,-0.0808,-0.0909,-0.0909,-0.0909,-0.0909,-0.0909,-0.0909,-0.0808,-0.0505,-0.0505,-0.0606,-0.0404,-0.0505,-0.0303,0.0404,0.101,0.1617,0.1313,0.1718,0.192,0.2221,0.2217,0.2418,0.2515,0.252,0.2716,0.2886,0.3168,0.3348,0.3323,0.3399,0.3465,0.3743,0.3701,0.3441,0.3193,0.2886,0.2962,0.3139,0.3227,0.3226,0.3405,0.3405,0.34,0.338,0.3534,0.3608,0.3673,0.3806,0.3727,0.6471,0.6475,0.6475,0.6467,0.6461,0.6456,0.6456,0.6337,0.6139,0.6042,0.5842,0.5441,0.524,0.5138,0.4935,0.4832,0.4832,0.4832,0.4832,0.4832,0.4734,0.4636,0.4438,0.3935,0.3736,0.3534,0.3332,0.3232,0.323,0.323,0.323,0.323,0.323,0.323,0.323,0.323,0.323,0.323,0.323,0.323,0.323,0.323,0.323,0.323,0.323,0.313,0.2826,0.2725,0.2422,0.1819,0.1718,0.1717,0.1616,0.1515,0.1717,0.1717,0.1717,0.1313,0.0505,0.0707,0.1111,0.1313,0.0909,0.0606,0.0505,0.0303,0.0202,0.0202,0.0202,0.0202,0.0303,0.0303,0.0303,0.0404,0.0606,0.0707,0.0505,0.0707,0.101,0.101,0.1515,0.1819,0.2123,0.2224,0.2324,0.2625,0.2725,0.2925,0.3127,0.3228,0.3327,0.3519,0.3715,0.4026,0.3997,0.4069,0.4128,0.4195,0.4344,0.4173,0.397,0.3824,0.3699,0.3773,0.3855,0.3853,0.3942,0.3853,0.3853,0.3849,0.4092,0.4014,0.4018,0.4228,0.4239,0.6747,0.6725,0.6722,0.6668,0.6589,0.6578,0.6526,0.6342,0.6145,0.5847,0.5639,0.5441,0.514,0.4935,0.4834,0.4832,0.4832,0.4832,0.4832,0.4832,0.4832,0.4734,0.4636,0.4336,0.4038,0.3737,0.3536,0.3433,0.3232,0.323,0.323,0.323,0.323,0.323,0.323,0.323,0.323,0.323,0.323,0.323,0.323,0.323,0.323,0.323,0.323,0.313,0.313,0.313,0.3029,0.2827,0.2524,0.2221,0.1817,0.1615,0.2018,0.2523,0.2727,0.2322,0.1615,0.1615,0.1918,0.1617,0.1515,0.1414,0.1313,0.1313,0.1212,0.1212,0.1313,0.1313,0.1616,0.1817,0.1615,0.1412,0.1716,0.2119,0.1917,0.1919,0.202,0.2221,0.2322,0.2423,0.2423,0.2624,0.2725,0.3027,0.3229,0.3428,0.363,0.3833,0.4034,0.4033,0.4334,0.4638,0.4526,0.4598,0.4674,0.4745,0.4801,0.4842,0.4622,0.4449,0.4326,0.4363,0.4482,0.4482,0.4399,0.4565,0.4476,0.4565,0.4565,0.4565,0.4559,0.4703,0.4773,0.6965,0.6804,0.6804,0.6766,0.6711,0.6703,0.6535,0.6235,0.6017,0.5684,0.5445,0.524,0.5037,0.4834,0.4832,0.4832,0.4832,0.4832,0.4832,0.4832,0.4832,0.4832,0.4832,0.4636,0.4336,0.4038,0.3835,0.3734,0.3531,0.3432,0.3433,0.3332,0.3232,0.323,0.323,0.323,0.323,0.323,0.323,0.323,0.323,0.323,0.323,0.323,0.323,0.323,0.323,0.323,0.323,0.313,0.3029,0.2826,0.2422,0.2118,0.2321,0.2826,0.313,0.2826,0.2321,0.2219,0.2321,0.2324,0.2121,0.2019,0.1918,0.2019,0.202,0.2019,0.2019,0.212,0.2323,0.2523,0.2321,0.2118,0.2522,0.2825,0.2823,0.2523,0.2524,0.2624,0.2725,0.2825,0.2925,0.3026,0.3228,0.3531,0.3632,0.383,0.4031,0.4236,0.4537,0.4736,0.4939,0.514,0.5138,0.5125,0.5313,0.5293,0.5273,0.531,0.5216,0.505,0.4804,0.4908,0.491,0.4862,0.4862,0.5027,0.5018,0.4921,0.4832,0.501,0.5006,0.4991,0.507,0.7061,0.6855,0.6855,0.6847,0.6831,0.6722,0.655,0.6246,0.5906,0.5539,0.5269,0.4947,0.4834,0.4832,0.4832,0.4832,0.4832,0.4832,0.4832,0.4832,0.4832,0.4832,0.4832,0.4734,0.4636,0.4437,0.4236,0.4033,0.3934,0.3734,0.3635,0.3536,0.3332,0.323,0.323,0.323,0.323,0.323,0.323,0.323,0.323,0.323,0.323,0.323,0.323,0.323,0.323,0.323,0.323,0.323,0.323,0.323,0.313,0.2826,0.2623,0.2826,0.3029,0.2928,0.2624,0.2623,0.2725,0.313,0.2725,0.2422,0.2422,0.2422,0.2423,0.2522,0.2521,0.2623,0.2623,0.2925,0.2825,0.2724,0.3027,0.3328,0.3327,0.2924,0.2925,0.3027,0.3127,0.3328,0.353,0.363,0.3831,0.4034,0.4133,0.4234,0.4435,0.4736,0.4937,0.5037,0.5338,0.5541,0.5539,0.5536,0.5627,0.5722,0.5717,0.5676,0.5713,0.5679,0.5499,0.5265,0.5269,0.5225,0.5272,0.5348,0.533,0.5119,0.5191,0.528,0.5282,0.5282,0.5364,0.7224,0.7097,0.7097,0.7043,0.6961,0.6624,0.6455,0.6243,0.5744,0.5485,0.5353,0.4972,0.4841,0.4832,0.4832,0.4832,0.4832,0.4832,0.4832,0.4832,0.4832,0.4832,0.4832,0.4834,0.4736,0.4636,0.4435,0.4236,0.4135,0.3934,0.3835,0.3635,0.3331,0.323,0.323,0.323,0.3331,0.3331,0.323,0.3232,0.323,0.323,0.323,0.323,0.323,0.323,0.323,0.323,0.323,0.323,0.323,0.323,0.323,0.313,0.3029,0.3029,0.313,0.313,0.3029,0.3029,0.313,0.313,0.2927,0.2624,0.2623,0.2623,0.2826,0.2925,0.3127,0.3428,0.3428,0.353,0.3729,0.3731,0.3831,0.4033,0.4237,0.4135,0.3729,0.3831,0.383,0.3831,0.4033,0.4234,0.4334,0.4535,0.4736,0.4836,0.4937,0.5138,0.5436,0.5536,0.5536,0.5739,0.5842,0.5939,0.5934,0.6132,0.6129,0.6129,0.6192,0.6205,0.6124,0.5782,0.5677,0.5621,0.5668,0.57,0.5551,0.5515,0.5492,0.5555,0.5552,0.5463,0.5552,0.7154,0.7154,0.7154,0.7014,0.6861,0.6633,0.6349,0.6039,0.5663,0.5374,0.5188,0.4924,0.4774,0.4744,0.4832,0.4832,0.4832,0.4832,0.4832,0.4832,0.4832,0.4832,0.4832,0.4832,0.4832,0.4734,0.4636,0.4535,0.4435,0.4236,0.4137,0.3935,0.3531,0.3328,0.353,0.3632,0.3632,0.3632,0.3432,0.3332,0.323,0.323,0.323,0.323,0.323,0.3232,0.3433,0.3433,0.3331,0.3328,0.3429,0.3531,0.353,0.3328,0.3229,0.323,0.323,0.323,0.3232,0.3332,0.3432,0.3632,0.343,0.333,0.3228,0.3328,0.333,0.3429,0.3531,0.3831,0.3831,0.4034,0.4133,0.4131,0.4332,0.4736,0.5039,0.4935,0.4834,0.4634,0.4435,0.4334,0.4636,0.4738,0.4939,0.5037,0.5238,0.5338,0.5438,0.5639,0.5837,0.5837,0.5837,0.5937,0.6139,0.6139,0.6139,0.6337,0.6437,0.6437,0.6437,0.6334,0.6307,0.6121,0.6034,0.604,0.5938,0.586,0.589,0.5828,0.5697,0.5668,0.5652,0.5733,0.5822,0.7154,0.7154,0.7154,0.7046,0.6715,0.6601,0.622,0.582,0.5569,0.5373,0.5039,0.49,0.4844,0.4875,0.4843,0.4832,0.4832,0.4832,0.4832,0.4832,0.4832,0.4832,0.4832,0.4832,0.4832,0.4834,0.4734,0.4832,0.4736,0.4537,0.4437,0.4237,0.3731,0.3629,0.3934,0.4034,0.4135,0.3934,0.3833,0.3534,0.3331,0.3229,0.323,0.3331,0.333,0.3533,0.3635,0.3633,0.3632,0.3528,0.3731,0.4034,0.4034,0.3629,0.3328,0.333,0.333,0.3331,0.3229,0.3533,0.3734,0.4137,0.4034,0.3934,0.3934,0.3831,0.3932,0.4131,0.4234,0.4236,0.4334,0.4535,0.4433,0.4429,0.4832,0.5338,0.5539,0.5536,0.5434,0.5135,0.4839,0.4937,0.5138,0.5138,0.5238,0.5338,0.5536,0.5639,0.5739,0.5939,0.6137,0.6137,0.6137,0.6237,0.6337,0.6339,0.6337,0.6337,0.6437,0.6437,0.6437,0.6437,0.631,0.6289,0.6259,0.626,0.6143,0.6051,0.6015,0.5956,0.5844,0.5793,0.5803,0.5852,0.5908,0.7154,0.7154,0.7154,0.7046,0.6715,0.6495,0.6154,0.5793,0.5389,0.5237,0.5184,0.5012,0.4926,0.4939,0.4861,0.4836,0.4832,0.4832,0.4832,0.4832,0.4832,0.4832,0.4832,0.4832,0.4832,0.4832,0.4832,0.4832,0.4734,0.4734,0.4638,0.4438,0.4438,0.444,0.4135,0.4438,0.444,0.4135,0.4034,0.3731,0.3325,0.3325,0.3528,0.3831,0.3932,0.3934,0.3935,0.3934,0.3932,0.3932,0.3932,0.4236,0.4541,0.4237,0.3934,0.3934,0.3831,0.3731,0.3426,0.363,0.4036,0.4438,0.4438,0.4236,0.4135,0.4336,0.4437,0.4734,0.4836,0.4937,0.5037,0.5236,0.5131,0.5031,0.5231,0.5739,0.6042,0.5939,0.5837,0.5734,0.5436,0.5436,0.5534,0.5534,0.5536,0.5636,0.5739,0.5839,0.6039,0.6139,0.6237,0.6237,0.6337,0.6337,0.6437,0.6437,0.6437,0.6437,0.6437,0.6437,0.6437,0.6437,0.6437,0.6418,0.6399,0.6372,0.6268,0.6195,0.6162,0.6078,0.5966,0.5915,0.5885,0.5916,0.6025,0.7154,0.7154,0.6932,0.6715,0.6495,0.6161,0.5826,0.5594,0.5452,0.5292,0.5233,0.5149,0.503,0.4914,0.4847,0.4834,0.4832,0.4832,0.4832,0.4832,0.4832,0.4832,0.4832,0.4832,0.4832,0.4832,0.4832,0.4832,0.4832,0.4832,0.4734,0.4636,0.4738,0.4638,0.4435,0.4638,0.4636,0.4535,0.4438,0.4137,0.3831,0.3932,0.4237,0.444,0.444,0.4338,0.4237,0.4237,0.4336,0.4435,0.4435,0.4535,0.4738,0.4535,0.4433,0.4433,0.4433,0.4334,0.4133,0.4135,0.4437,0.4638,0.4636,0.4535,0.4535,0.4638,0.4839,0.5037,0.5236,0.5436,0.5438,0.5536,0.5434,0.5434,0.5634,0.5937,0.6242,0.6239,0.6137,0.6034,0.6034,0.5934,0.5934,0.5837,0.5937,0.6037,0.6037,0.6139,0.6239,0.6337,0.6337,0.6337,0.6337,0.6437,0.6437,0.6437,0.6437,0.6437,0.6437,0.6437,0.6437,0.6437,0.6437,0.6437,0.6423,0.6393,0.6355,0.6304,0.6236,0.6165,0.6089,0.6045,0.5996,0.6087,0.6286,0.7154,0.7046,0.6824,0.6492,0.6161,0.5933,0.5601,0.5382,0.538,0.5328,0.523,0.5124,0.4992,0.4888,0.4851,0.4832,0.4832,0.4832,0.4832,0.4832,0.4832,0.4832,0.4832,0.4832,0.4832,0.4832,0.4832,0.4832,0.4832,0.4832,0.4832,0.4832,0.4734,0.4734,0.4834,0.4734,0.4734,0.4734,0.4738,0.4537,0.4334,0.4537,0.464,0.4742,0.4742,0.474,0.4537,0.4537,0.4636,0.4736,0.4734,0.4734,0.4734,0.4734,0.4734,0.4734,0.4734,0.4736,0.4638,0.4537,0.4638,0.4736,0.4834,0.4734,0.4935,0.5138,0.5238,0.5238,0.5539,0.5636,0.5737,0.5737,0.5834,0.5937,0.5937,0.6237,0.6337,0.6337,0.6237,0.6237,0.6237,0.6337,0.6237,0.6139,0.6239,0.6337,0.6437,0.6437,0.6437,0.6437,0.6437,0.6437,0.6437,0.6437,0.6437,0.6437,0.6437,0.6437,0.6437,0.6437,0.6437,0.6437,0.6437,0.6437,0.6437,0.6426,0.6396,0.635,0.6309,0.6268,0.6222,0.6165,0.6194,0.6281,0.6554,0.7046,0.6712,0.6712,0.6379,0.5822,0.5822,0.5601,0.5382,0.538,0.5318,0.52,0.5069,0.4979,0.4934,0.4865,0.4832,0.4832,0.4832,0.4832,0.4832,0.4832,0.4832,0.4832,0.4832,0.4832,0.4832,0.4832,0.4832,0.4832,0.4832,0.4832,0.4832,0.4832,0.4832,0.4832,0.4832,0.4832,0.4832,0.4836,0.4834,0.4634,0.4734,0.4734,0.4834,0.4834,0.4734,0.4736,0.4736,0.4734,0.4832,0.4832,0.4832,0.4832,0.4832,0.4832,0.4832,0.4832,0.4834,0.4736,0.4736,0.4734,0.4834,0.4834,0.4935,0.5037,0.514,0.5338,0.5536,0.5837,0.5939,0.6039,0.6139,0.6237,0.6237,0.6239,0.6237,0.6337,0.6337,0.6337,0.6437,0.6437,0.6437,0.6437,0.6339,0.6239,0.6437,0.6437,0.6437,0.6437,0.6437,0.6437,0.6437,0.6437,0.6437,0.6437,0.6437,0.6437,0.6437,0.6437,0.6437,0.6437,0.6437,0.6437,0.6437,0.6437,0.6437,0.6437,0.6399,0.6374,0.6385,0.635,0.6368,0.6379,0.6567,0.6842,0.6712,0.6383,0.627,0.6044,0.5822,0.5601,0.5493,0.5369,0.532,0.5212,0.5077,0.5002,0.4941,0.489,0.4861,0.4832,0.4832,0.4832,0.4832,0.4832,0.4832,0.4832,0.4832,0.4832,0.4832,0.4832,0.4832,0.4832,0.4832,0.4832,0.4832,0.4832,0.4832,0.4832,0.4832,0.4832,0.4832,0.4832,0.4832,0.4832,0.4832,0.4832,0.4832,0.4832,0.4832,0.4832,0.4834,0.4834,0.4834,0.4832,0.4832,0.4832,0.4832,0.4832,0.4832,0.4832,0.4832,0.4832,0.4832,0.4832,0.4832,0.4832,0.4834,0.4935,0.524,0.5338,0.5539,0.5837,0.6039,0.6239,0.6239,0.6339,0.6337,0.6437,0.6437,0.6437,0.6437,0.6437,0.6437,0.6437,0.6437,0.6437,0.6437,0.6437,0.6437,0.6437,0.6437,0.6437,0.6437,0.6437,0.6437,0.6437,0.6437,0.6437,0.6437,0.6437,0.6437,0.6437,0.6437,0.6437,0.6437,0.6437,0.6437,0.6437,0.6437,0.6437,0.6437,0.6437,0.6429,0.6418,0.6393,0.6451,0.6557,0.6756,0.7051,0.6396,0.6067,0.5845,0.5641,0.5556,0.5452,0.5324,0.5292,0.523,0.512,0.4971,0.4945,0.49,0.4847,0.4832,0.4832,0.4832,0.4832,0.4832,0.4832,0.4832,0.4832,0.4832,0.4832,0.4832,0.4832,0.4832,0.4832,0.4832,0.4832,0.4832,0.4832,0.4832,0.4832,0.4832,0.4832,0.4832,0.4832,0.4832,0.4832,0.4832,0.4832,0.4832,0.4832,0.4832,0.4832,0.4832,0.4832,0.4832,0.4832,0.4832,0.4832,0.4832,0.4832,0.4832,0.4832,0.4834,0.4834,0.4834,0.4832,0.4834,0.4935,0.4935,0.5138,0.534,0.5639,0.5839,0.6137,0.6337,0.6437,0.6437,0.6437,0.6437,0.6437,0.6437,0.6437,0.6437,0.6437,0.6437,0.6437,0.6437,0.6437,0.6437,0.6437,0.6437,0.6437,0.6437,0.6437,0.6437,0.6437,0.6437,0.6437,0.6437,0.6437,0.6437,0.6437,0.6437,0.6437,0.6437,0.6437,0.6437,0.6437,0.6437,0.6437,0.6437,0.6437,0.6437,0.6437,0.6437,0.6437,0.6512,0.649,0.6845,0.6955,0.718,0.6071,0.5638,0.5647,0.5489,0.5235,0.5247,0.5202,0.5145,0.5116,0.5055,0.4955,0.4883,0.4849,0.4832,0.4832,0.4832,0.4832,0.4832,0.4832,0.4832,0.4832,0.4832,0.4832,0.4832,0.4832,0.4832,0.4832,0.4832,0.4832,0.4832,0.4832,0.4832,0.4832,0.4832,0.4832,0.4832,0.4832,0.4832,0.4832,0.4832,0.4832,0.4832,0.4832,0.4832,0.4832,0.4832,0.4832,0.4832,0.4832,0.4832,0.4832,0.4832,0.4832,0.4832,0.4832,0.4832,0.4834,0.4834,0.4834,0.4834,0.5035,0.5138,0.5138,0.5441,0.5842,0.6042,0.6042,0.6239,0.6337,0.6437,0.6437,0.6437,0.6437,0.6437,0.6437,0.6437,0.6437,0.6437,0.6437,0.6437,0.6437,0.6437,0.6437,0.6437,0.6437,0.6437,0.6437,0.6437,0.6437,0.6437,0.6437,0.6437,0.6437,0.6437,0.6437,0.6437,0.6437,0.6437,0.6437,0.6437,0.6437,0.6437,0.6437,0.6437,0.6437,0.6437,0.6437,0.6437,0.6437,0.6437,0.6439,0.662,0.6892,0.7159,0.7388,0.5955,0.564,0.532,0.5195,0.5075,0.513,0.5132,0.51,0.5043,0.4967,0.489,0.4841,0.4832,0.4832,0.4832,0.4832,0.4832,0.4832,0.4832,0.4832,0.4832,0.4832,0.4832,0.4832,0.4832,0.4832,0.4832,0.4832,0.4832,0.4832,0.4832,0.4832,0.4832,0.4832,0.4832,0.4832,0.4832,0.4832,0.4832,0.4832,0.4832,0.4832,0.4832,0.4832,0.4832,0.4832,0.4832,0.4832,0.4832,0.4832,0.4832,0.4832,0.4832,0.4832,0.4832,0.4935,0.5037,0.534,0.5438,0.5539,0.5741,0.5641,0.5438,0.5641,0.5942,0.6042,0.6142,0.6339,0.6437,0.6437,0.6437,0.6437,0.6437,0.6437,0.6437,0.6437,0.6437,0.6437,0.6437,0.6437,0.6437,0.6437,0.6437,0.6437,0.6437,0.6437,0.6437,0.6437,0.6437,0.6437,0.6437,0.6437,0.6437,0.6437,0.6437,0.6437,0.6437,0.6437,0.6437,0.6437,0.6437,0.6437,0.6437,0.6437,0.6437,0.6437,0.6437,0.6437,0.6437,0.6437,0.6539,0.6739,0.7018,0.731,0.7598,0.5536,0.5328,0.5118,0.4981,0.4943,0.5022,0.5045,0.5008,0.4951,0.489,0.4843,0.4834,0.4832,0.4832,0.4832,0.4832,0.4832,0.4832,0.4832,0.4832,0.4832,0.4832,0.4832,0.4832,0.4832,0.4832,0.4832,0.4832,0.4832,0.4832,0.4832,0.4832,0.4832,0.4832,0.4832,0.4832,0.4832,0.4832,0.4832,0.4832,0.4832,0.4832,0.4832,0.4832,0.4832,0.4832,0.4832,0.4832,0.4832,0.4832,0.4832,0.4834,0.4834,0.4832,0.4832,0.4935,0.5441,0.5744,0.5842,0.6039,0.6039,0.5937,0.5837,0.5839,0.6039,0.6139,0.6239,0.6337,0.6437,0.6437,0.6437,0.6437,0.6437,0.6437,0.6437,0.6437,0.6437,0.6437,0.6437,0.6437,0.6437,0.6437,0.6437,0.6437,0.6437,0.6437,0.6437,0.6437,0.6437,0.6437,0.6437,0.6437,0.6437,0.6437,0.6437,0.6437,0.6437,0.6437,0.6437,0.6437,0.6437,0.6437,0.6437,0.6437,0.6437,0.6437,0.6437,0.6437,0.6439,0.6639,0.6839,0.6939,0.7135,0.7437,0.7743,0.5039,0.4834,0.4834,0.4841,0.4853,0.4934,0.492,0.4843,0.4839,0.4839,0.4832,0.4832,0.4832,0.4832,0.4832,0.4832,0.4832,0.4832,0.4832,0.4832,0.4832,0.4832,0.4832,0.4832,0.4832,0.4832,0.4832,0.4832,0.4832,0.4832,0.4832,0.4832,0.4832,0.4832,0.4832,0.4832,0.4832,0.4832,0.4832,0.4832,0.4832,0.4832,0.4832,0.4832,0.4832,0.4832,0.4832,0.4832,0.4832,0.4832,0.4832,0.4834,0.4834,0.4832,0.4832,0.5135,0.5944,0.6042,0.6142,0.6339,0.6339,0.6237,0.6139,0.6239,0.6239,0.6339,0.6337,0.6337,0.6437,0.6437,0.6437,0.6437,0.6437,0.6437,0.6437,0.6437,0.6437,0.6437,0.6437,0.6437,0.6437,0.6437,0.6437,0.6437,0.6437,0.6437,0.6437,0.6437,0.6437,0.6437,0.6437,0.6437,0.6437,0.6437,0.6437,0.6437,0.6437,0.6437,0.6437,0.6437,0.6437,0.6437,0.6437,0.6437,0.6437,0.6437,0.6437,0.6439,0.6539,0.6739,0.6939,0.7138,0.7338,0.754,0.7743,0.5037,0.4834,0.4832,0.4832,0.4836,0.4863,0.4857,0.4836,0.4832,0.4832,0.4832,0.4832,0.4832,0.4832,0.4832,0.4832,0.4832,0.4832,0.4832,0.4832,0.4832,0.4832,0.4832,0.4832,0.4832,0.4832,0.4832,0.4832,0.4832,0.4832,0.4832,0.4832,0.4832,0.4832,0.4832,0.4832,0.4832,0.4832,0.4832,0.4832,0.4832,0.4832,0.4832,0.4832,0.4832,0.4832,0.4832,0.4832,0.4832,0.4832,0.4832,0.4834,0.5037,0.4935,0.4935,0.5842,0.6242,0.6337,0.6339,0.6337,0.6437,0.6437,0.6339,0.6337,0.6337,0.6437,0.6437,0.6437,0.6437,0.6437,0.6437,0.6437,0.6437,0.6437,0.6437,0.6437,0.6437,0.6437,0.6437,0.6437,0.6437,0.6437,0.6437,0.6437,0.6437,0.6437,0.6437,0.6437,0.6437,0.6437,0.6437,0.6437,0.6437,0.6437,0.6437,0.6437,0.6437,0.6437,0.6437,0.6437,0.6437,0.6437,0.6437,0.6437,0.6437,0.6437,0.6437,0.6539,0.6642,0.6842,0.7141,0.7341,0.754,0.7743,0.7842,0.4935,0.4834,0.4832,0.4832,0.4832,0.4832,0.4832,0.4832,0.4832,0.4832,0.4832,0.4832,0.4832,0.4832,0.4832,0.4832,0.4832,0.4832,0.4832,0.4832,0.4832,0.4832,0.4832,0.4832,0.4832,0.4832,0.4832,0.4832,0.4832,0.4832,0.4832,0.4832,0.4832,0.4832,0.4832,0.4832,0.4832,0.4832,0.4832,0.4832,0.4832,0.4832,0.4832,0.4832,0.4832,0.4832,0.4832,0.4832,0.4832,0.4834,0.4834,0.5037,0.524,0.5238,0.5436,0.6242,0.6339,0.6437,0.6337,0.6437,0.6437,0.6437,0.6437,0.6437,0.6437,0.6437,0.6437,0.6437,0.6437,0.6437,0.6437,0.6437,0.6437,0.6437,0.6437,0.6437,0.6437,0.6437,0.6437,0.6437,0.6437,0.6437,0.6437,0.6437,0.6437,0.6437,0.6437,0.6437,0.6437,0.6437,0.6437,0.6437,0.6437,0.6437,0.6437,0.6437,0.6437,0.6437,0.6437,0.6437,0.6437,0.6437,0.6437,0.6437,0.6437,0.6439,0.6539,0.6642,0.6845,0.7045,0.7344,0.7543,0.7739,0.7839,0.7939,0.4832,0.4832,0.4832,0.4832,0.4832,0.4832,0.4832,0.4832,0.4832,0.4832,0.4832,0.4832,0.4832,0.4832,0.4832,0.4832,0.4832,0.4832,0.4832,0.4832,0.4832,0.4832,0.4832,0.4832,0.4832,0.4832,0.4832,0.4832,0.4832,0.4832,0.4832,0.4832,0.4832,0.4832,0.4832,0.4832,0.4832,0.4832,0.4832,0.4832,0.4832,0.4832,0.4832,0.4832,0.4832,0.4832,0.4832,0.4832,0.4832,0.4834,0.5037,0.524,0.534,0.5639,0.5937,0.6137,0.6437,0.6437,0.6437,0.6437,0.6437,0.6437,0.6437,0.6437,0.6437,0.6437,0.6437,0.6437,0.6437,0.6437,0.6437,0.6437,0.6437,0.6437,0.6437,0.6437,0.6437,0.6437,0.6437,0.6437,0.6437,0.6437,0.6437,0.6437,0.6437,0.6437,0.6437,0.6437,0.6437,0.6437,0.6437,0.6437,0.6437,0.6437,0.6437,0.6437,0.6437,0.6437,0.6437,0.6437,0.6437,0.6437,0.6437,0.6437,0.6439,0.6642,0.6742,0.6945,0.7144,0.7444,0.7643,0.7842,0.7939,0.8137,0.8038,0.4832,0.4832,0.4832,0.4832,0.4832,0.4832,0.4832,0.4832,0.4832,0.4832,0.4832,0.4832,0.4832,0.4832,0.4832,0.4832,0.4832,0.4832,0.4832,0.4832,0.4832,0.4832,0.4832,0.4832,0.4832,0.4832,0.4832,0.4832,0.4832,0.4832,0.4832,0.4832,0.4832,0.4832,0.4832,0.4832,0.4832,0.4832,0.4832,0.4832,0.4832,0.4832,0.4832,0.4832,0.4832,0.4834,0.4834,0.4834,0.4834,0.4834,0.5037,0.5338,0.5539,0.5937,0.6237,0.6337,0.6437,0.6437,0.6437,0.6437,0.6437,0.6437,0.6437,0.6437,0.6437,0.6437,0.6437,0.6437,0.6437,0.6437,0.6437,0.6437,0.6437,0.6437,0.6437,0.6437,0.6437,0.6437,0.6437,0.6437,0.6437,0.6437,0.6437,0.6437,0.6437,0.6437,0.6437,0.6437,0.6437,0.6437,0.6437,0.6437,0.6437,0.6437,0.6437,0.6437,0.6437,0.6437,0.6437,0.6437,0.6437,0.6437,0.6437,0.6439,0.6539,0.6742,0.7045,0.7247,0.7547,0.7842,0.8041,0.8237,0.8333,0.8531,0.8333,0.4832,0.4832,0.4832,0.4832,0.4832,0.4832,0.4832,0.4832,0.4832,0.4832,0.4832,0.4832,0.4832,0.4832,0.4832,0.4832,0.4832,0.4832,0.4832,0.4832,0.4832,0.4832,0.4832,0.4832,0.4832,0.4832,0.4832,0.4832,0.4832,0.4832,0.4832,0.4832,0.4832,0.4832,0.4832,0.4832,0.4832,0.4832,0.4832,0.4832,0.4832,0.4832,0.4832,0.4832,0.4834,0.4834,0.5138,0.5138,0.5138,0.5238,0.5541,0.5741,0.6039,0.6237,0.6337,0.6437,0.6437,0.6437,0.6437,0.6437,0.6437,0.6437,0.6437,0.6437,0.6437,0.6437,0.6437,0.6437,0.6437,0.6437,0.6437,0.6437,0.6437,0.6437,0.6437,0.6437,0.6437,0.6437,0.6437,0.6437,0.6437,0.6437,0.6437,0.6437,0.6437,0.6437,0.6437,0.6437,0.6437,0.6437,0.6437,0.6437,0.6437,0.6437,0.6437,0.6437,0.6437,0.6437,0.6437,0.6437,0.6437,0.6437,0.6437,0.6539,0.6742,0.7045,0.7247,0.7643,0.7939,0.8333,0.8432,0.863,0.8726,0.8924,0.873,0.4832,0.4832,0.4832,0.4832,0.4832,0.4832,0.4832,0.4832,0.4832,0.4832,0.4832,0.4832,0.4832,0.4832,0.4832,0.4832,0.4832,0.4832,0.4832,0.4832,0.4832,0.4832,0.4832,0.4832,0.4832,0.4832,0.4832,0.4832,0.4832,0.4832,0.4832,0.4832,0.4832,0.4832,0.4832,0.4832,0.4832,0.4832,0.4832,0.4832,0.4832,0.4832,0.4832,0.4832,0.4834,0.5138,0.5443,0.5646,0.5641,0.5741,0.5942,0.6139,0.6239,0.6337,0.6337,0.6437,0.6437,0.6437,0.6437,0.6437,0.6437,0.6437,0.6437,0.6437,0.6437,0.6437,0.6437,0.6437,0.6437,0.6437,0.6437,0.6437,0.6437,0.6437,0.6437,0.6437,0.6437,0.6437,0.6437,0.6437,0.6437,0.6437,0.6437,0.6437,0.6437,0.6437,0.6437,0.6437,0.6437,0.6437,0.6437,0.6437,0.6437,0.6437,0.6437,0.6437,0.6437,0.6437,0.6437,0.6437,0.6437,0.6539,0.6639,0.6742,0.6942,0.7344,0.7743,0.8038,0.8432,0.8829,0.9027,0.9225,0.932,0.9418,0.9221,0.4832,0.4832,0.4832,0.4832,0.4832,0.4832,0.4832,0.4832,0.4832,0.4832,0.4832,0.4832,0.4832,0.4832,0.4832,0.4832,0.4832,0.4832,0.4832,0.4832,0.4832,0.4832,0.4832,0.4832,0.4832,0.4832,0.4832,0.4832,0.4832,0.4832,0.4832,0.4832,0.4832,0.4832,0.4832,0.4832,0.4832,0.4832,0.4832,0.4832,0.4832,0.4832,0.4832,0.4832,0.4834,0.5138,0.5543,0.6047,0.6044,0.6042,0.6139,0.6337,0.6437,0.6437,0.6437,0.6437,0.6437,0.6437,0.6437,0.6437,0.6437,0.6437,0.6437,0.6437,0.6437,0.6437,0.6437,0.6437,0.6437,0.6437,0.6437,0.6437,0.6437,0.6437,0.6437,0.6437,0.6437,0.6437,0.6437,0.6437,0.6437,0.6437,0.6437,0.6437,0.6437,0.6437,0.6437,0.6437,0.6437,0.6437,0.6437,0.6437,0.6437,0.6437,0.6437,0.6437,0.6437,0.6437,0.6437,0.6437,0.6539,0.6642,0.6742,0.7042,0.7441,0.7842,0.8137,0.8634,0.9031,0.9327,0.9624,0.9821,0.9916,1.0015,0.9813]},{"header":{"parameterUnit":"m.s-1","parameterCategory":1,"la1":31.0,"la2":29.5877,"lo1":-88.7671,"lo2":-86.6584,"dy":0.0162,"dx":0.0185,"nx":115,"ny":88,"refTime":"2023-06-26T00:00:00:Z","depth":0,"parameterNumber":3,"parameterNumberName":"V-component_of_WINDS"},"data":[0.0,0.0,0.0,0.0,0.0,0.0,0.0,0.0,0.0,0.0,0.0,0.0,0.0,0.0,0.0,0.0,0.0,0.0,0.0,0.0,0.0,0.0,0.0,0.0,0.0,0.0,0.0,0.0,0.0,0.0,0.0,0.0,0.0,0.0,0.0,0.0,0.0,0.0,0.0,0.0,0.0,0.0,0.0,0.0,0.0,0.0,0.0,0.0,0.0,0.0,0.0,0.0,0.0,0.0,0.0,0.0,0.0,0.0,0.0,0.0,0.0,0.0,0.0,0.0,0.0,0.0,0.0,0.0,0.0,0.0,0.0,0.0,0.0,0.0,0.0,0.0,0.0,0.0,0.0,0.0,0.0,0.0,0.0,0.0,0.0,0.0,0.0,0.0,0.0,0.0,0.0,0.0,0.0,0.0,0.0,0.0,0.0,0.0,0.0,0.0,0.0,0.0,0.0,0.0,0.0,0.0,0.0,0.0,0.0,0.0,0.0,0.0,0.0,0.0,0.0,0.0,0.0,0.0,0.0,0.0,0.0,0.0,0.0,0.0,0.0,0.0,0.0,0.0,0.0,0.0,0.0,0.0,0.0,0.0,0.0,0.0,0.0,0.0,0.0,0.0,0.0,0.0,0.0,0.0,0.0,0.0,0.0,0.0,0.0,0.0,0.0,0.0,0.0,0.0,0.0,0.0,0.0,0.0,0.0,0.0,0.0,0.0,0.0,0.0,0.0,0.0,0.0,0.0,0.0,0.0,0.0,0.0,0.0,0.0,0.0,0.0,0.0,0.0,0.0,0.0,0.0,0.0,0.0,0.0,0.0,0.0,0.0,0.0,0.0,0.0,0.0,0.0,0.0,0.0,0.0,0.0,0.0,0.0,0.0,0.0,0.0,0.0,0.0,0.0,0.0,0.0,0.0,0.0,0.0,0.0,0.0,0.0,0.0,0.0,0.0,0.0,0.0,0.0,0.0,0.0,0.0,0.0,0.0,0.0,0.0,0.0,0.0,0.0,0.0,0.0,0.0,0.0,0.0,0.0,0.0,0.0,0.0,0.0,0.0,0.0,0.0,0.0,0.0,0.0,0.0,0.0,0.0,0.0,0.0,0.0,0.0,0.0,0.0,0.0,0.0,0.0,0.0,0.0,0.0,0.0,0.0,0.0,0.0,0.0,0.0,0.0,0.0,0.0,0.0,0.0,0.0,0.0,0.0,0.0,0.0,0.0,0.0,0.0,0.0,0.0,0.0,0.0,0.0,0.0,0.0,0.0,0.0,0.0,0.0,0.0,0.0,0.0,0.0,0.0,0.0,0.0,0.0,0.0,0.0,0.0,0.0,0.0,0.0,0.0,0.0,0.0,0.0,0.0,0.0,0.0,0.0,0.0,0.0,0.0,0.0,0.0,0.0,0.0,0.0,0.0,0.0,0.0,0.0,0.0,0.0,0.0,0.0,0.0,0.0,0.0,0.0,0.0,0.0,0.0,0.0,0.0,0.0,0.0,0.0,0.0,0.0,0.0,0.0,0.0,0.0,0.0,0.0,0.0,0.0,0.0,0.0,0.0,0.0,0.0,0.0,0.0,0.0,0.0,0.0,0.0,0.0,0.0,0.0,0.0,0.0,0.0,0.0,0.0,0.0,0.0,0.0,0.0,0.0,0.0,0.0,0.0,0.0,0.0,0.0,0.0,0.0,0.0,0.0,0.0,0.0,0.0,0.0,0.0,0.0,0.0,0.0,0.0,0.0,0.0,0.0,0.0,0.0,0.0,0.0,0.0,0.0,0.0,0.0,0.0,0.0,0.0,0.0,0.0,0.0,0.0,0.0,0.0,0.0,0.0,0.0,0.0,0.0,0.0,0.0,0.0,0.0,0.0,0.0,0.0,0.0,0.0,0.0,0.0,0.0,0.0,0.0,0.0,0.0,0.0,0.0,0.0,0.0,0.0,0.0,0.0,0.0,0.0,0.0,0.0,0.0,0.0,0.0,0.0,0.0,0.0,0.0,0.0,0.0,0.0,0.0,0.0,0.0,0.0,0.0,0.0,0.0,0.0,0.0,0.0,0.0,0.0,0.0,0.0,0.0,0.0,0.0,0.0,0.0,0.0,0.0,0.0,0.0,0.0,0.0,0.0,0.0,0.0,0.0,0.0,0.0,0.0,0.0,0.0,0.0,0.0,0.0,0.0,0.0,0.0,0.0,0.0,0.0,0.0,0.0,0.0,0.0,0.0,0.0,0.0,0.0,0.0,0.0,0.0,0.0,0.0,0.0,0.0,0.0,0.0,0.0,0.0,0.0,0.0,0.0,0.0,0.0,0.0,0.0,0.0,0.0,0.0,0.0,0.0,0.0,0.0,0.0,0.0,0.0,0.0,0.0,0.0,0.0,0.0,0.0,0.0,0.0,0.0,0.0,0.0,0.0,0.0,0.0,0.0,0.0,0.0,0.0,0.0,0.0,0.0,0.0,0.0,0.0,0.0,0.0,0.0,0.0,0.0,0.0,0.0,0.0,0.0,0.0,0.0,0.0,0.0,0.0,0.0,0.0,0.0,0.0,0.0,0.0,0.0,0.0,0.0,0.0,0.0,0.0,0.0,0.0,0.0,0.0,0.0,0.0,0.0,0.0,0.0,0.0,0.0,0.0,0.0,0.0,0.0,0.0,0.0,0.0,0.0,0.0,0.0,0.0,0.0,0.0,0.0,0.0,0.0,0.0,0.0,0.0,0.0,0.0,0.0,0.0,0.0,0.0,0.0,0.0,0.0,0.0,0.0,0.0,0.0,0.0,0.0,0.0,0.0,0.0,0.0,0.0,0.0,0.0,0.0,0.0,0.0,0.0,0.0,0.0,0.0,0.0,0.0,0.0,0.0,0.0,0.0,0.0,0.0,0.0,0.0,0.0,0.0,0.0,0.0,0.0,0.0,0.0,0.0,0.0,0.0,0.0,0.0,0.0,0.0,0.0,0.0,0.0,0.0,0.0,0.0,0.0,0.0,0.0,0.0,0.0,0.0,0.0,0.0,0.0,0.0,0.0,0.0,0.0,0.0,0.0,0.0,0.0,0.0,0.0,0.0,0.0,0.0,0.0,0.0,0.0,0.0,0.0,0.0,0.0,0.0,0.0,0.0,0.0,0.0,0.0,0.0,0.0,0.0,0.0,0.0,0.0,0.0,0.0,0.0,0.0,0.0,0.0,0.0,0.0,0.0,0.0,0.0,0.0,0.0,0.0,0.0,0.0,0.0,0.0,0.0,0.0,0.0,0.0,0.0,0.0,0.0,0.0,0.0,0.0,0.0,0.0,0.0,0.0,0.0,0.0,0.0,0.0,0.0,0.0,0.0,0.0,0.0,0.0,0.0,0.0,0.0,0.0,0.0,0.0,0.0,0.0,0.0,0.0,0.0,0.0,0.0,0.0,0.0,0.0,0.0,0.0,0.0,0.0,0.0,0.0,0.0,0.0,0.0,0.0,0.0,0.0,0.0,0.0,0.0,0.0,0.0,0.0,0.0,0.0,0.0,0.0,0.0,0.0,0.0,0.0,0.0,0.0,0.0,0.0,0.0,0.0,0.0,0.0,0.0,0.0,0.0,0.0,0.0,0.0,0.0,0.0,0.0,0.0,0.0,0.0,0.0,0.0,0.0,0.0,0.0,0.0,0.0,0.0,0.0,0.0,0.0,0.0,0.0,0.0,0.0,0.0,0.0,0.0,0.0,0.0,0.0,0.0,0.0,0.0,0.0,0.0,0.0,0.0,0.0,0.0,0.0,0.0,0.0,0.0,0.0,0.0,0.0,0.0,0.0,0.0,0.0,0.0,0.0,0.0,0.0,0.0,0.0,0.0,0.0,0.0,0.0,0.0,0.0,0.0,0.0,0.0,0.0,0.0,0.0,0.0,0.0,0.0,0.0,0.0,0.0,0.0,0.0,0.0,0.0,0.0,0.0,0.0,0.0,0.0,0.0,0.0,0.0,0.0,0.0,0.0,0.0,0.0,0.0,0.0,0.0,0.0,0.0,0.0,0.0,0.0,0.0,0.0,0.0,0.0,0.0,0.0,0.0,0.0,0.0,0.0,0.0,0.0,0.0,0.0,0.0,0.0,0.0,0.0,0.0,0.0,0.0,0.0,0.0,0.0,0.0,0.0,0.0,0.0,0.0,0.0,0.0,0.0,0.0,0.0,0.0,0.0,0.0,0.0,0.0,0.0,0.0,0.0,0.0,0.0,0.0,0.0,0.0,0.0,0.0,0.0,0.0,0.0,0.0,0.0,0.0,0.0,0.0,0.0,0.0,-2.7078,0.0,0.0,0.0,0.0,0.0,0.0,0.0,0.0,0.0,0.0,0.0,0.0,0.0,0.0,0.0,0.0,0.0,0.0,0.0,0.0,0.0,0.0,0.0,0.0,0.0,0.0,0.0,0.0,0.0,0.0,0.0,0.0,0.0,0.0,0.0,0.0,0.0,0.0,0.0,0.0,0.0,0.0,0.0,0.0,0.0,0.0,0.0,0.0,0.0,0.0,0.0,0.0,0.0,0.0,0.0,0.0,0.0,0.0,0.0,0.0,0.0,0.0,0.0,0.0,0.0,0.0,0.0,0.0,0.0,0.0,0.0,0.0,0.0,0.0,0.0,0.0,0.0,0.0,0.0,0.0,0.0,0.0,0.0,0.0,0.0,0.0,0.0,0.0,0.0,0.0,0.0,0.0,0.0,0.0,0.0,0.0,0.0,0.0,0.0,0.0,0.0,0.0,0.0,0.0,0.0,0.0,0.0,0.0,0.0,0.0,-3.0014,-2.9625,-2.9994,-2.939,-2.7721,0.0,0.0,0.0,0.0,0.0,0.0,0.0,0.0,0.0,0.0,0.0,0.0,0.0,0.0,0.0,0.0,0.0,0.0,0.0,0.0,0.0,0.0,0.0,0.0,0.0,0.0,0.0,0.0,0.0,0.0,0.0,0.0,0.0,0.0,0.0,0.0,0.0,0.0,0.0,0.0,0.0,0.0,0.0,0.0,0.0,0.0,0.0,0.0,0.0,0.0,0.0,0.0,0.0,0.0,0.0,0.0,0.0,0.0,0.0,0.0,0.0,0.0,0.0,0.0,0.0,0.0,0.0,0.0,0.0,0.0,0.0,0.0,0.0,0.0,0.0,0.0,0.0,0.0,0.0,0.0,0.0,0.0,0.0,0.0,0.0,0.0,0.0,0.0,0.0,0.0,0.0,0.0,0.0,0.0,0.0,0.0,0.0,0.0,0.0,0.0,0.0,0.0,0.0,0.0,0.0,0.0,0.0,0.0,0.0,0.0,0.0,0.0,-3.0802,-3.0002,-2.8275,0.0,0.0,0.0,0.0,0.0,0.0,0.0,0.0,0.0,0.0,0.0,0.0,0.0,0.0,0.0,0.0,0.0,0.0,0.0,0.0,0.0,0.0,0.0,0.0,0.0,0.0,0.0,0.0,0.0,0.0,0.0,0.0,0.0,0.0,0.0,0.0,0.0,0.0,0.0,0.0,0.0,0.0,0.0,0.0,0.0,0.0,0.0,0.0,0.0,0.0,0.0,0.0,0.0,0.0,0.0,0.0,0.0,0.0,0.0,0.0,0.0,0.0,0.0,0.0,0.0,0.0,0.0,0.0,0.0,0.0,0.0,0.0,0.0,0.0,0.0,0.0,0.0,0.0,0.0,0.0,0.0,0.0,0.0,0.0,0.0,0.0,0.0,0.0,0.0,0.0,0.0,0.0,0.0,0.0,0.0,0.0,0.0,0.0,0.0,0.0,0.0,0.0,0.0,0.0,0.0,0.0,0.0,0.0,0.0,0.0,-3.0785,-3.0796,-3.0785,0.0,-2.8356,0.0,0.0,0.0,0.0,0.0,0.0,0.0,0.0,0.0,0.0,0.0,0.0,0.0,0.0,0.0,0.0,0.0,0.0,0.0,0.0,0.0,0.0,0.0,0.0,0.0,0.0,0.0,0.0,0.0,0.0,0.0,0.0,0.0,0.0,0.0,0.0,0.0,0.0,0.0,0.0,0.0,0.0,0.0,0.0,0.0,0.0,0.0,0.0,0.0,0.0,0.0,0.0,0.0,0.0,0.0,0.0,0.0,0.0,0.0,0.0,0.0,0.0,0.0,0.0,0.0,0.0,0.0,0.0,0.0,0.0,0.0,0.0,0.0,0.0,0.0,0.0,0.0,0.0,0.0,0.0,0.0,0.0,0.0,0.0,0.0,0.0,0.0,0.0,0.0,0.0,0.0,0.0,0.0,0.0,0.0,0.0,0.0,0.0,0.0,0.0,0.0,0.0,0.0,0.0,0.0,0.0,0.0,0.0,0.0,0.0,-3.0796,-3.0801,-2.984,-2.8993,0.0,0.0,0.0,0.0,0.0,0.0,0.0,0.0,0.0,0.0,0.0,0.0,0.0,0.0,0.0,0.0,0.0,0.0,0.0,0.0,0.0,0.0,0.0,0.0,0.0,0.0,0.0,0.0,0.0,0.0,0.0,0.0,0.0,0.0,0.0,0.0,0.0,0.0,0.0,0.0,0.0,0.0,0.0,0.0,0.0,0.0,0.0,0.0,0.0,0.0,0.0,0.0,0.0,0.0,0.0,0.0,0.0,0.0,0.0,0.0,0.0,0.0,0.0,0.0,0.0,0.0,0.0,0.0,0.0,0.0,0.0,0.0,0.0,0.0,0.0,0.0,0.0,0.0,0.0,0.0,0.0,0.0,0.0,0.0,0.0,0.0,0.0,0.0,0.0,0.0,0.0,0.0,0.0,0.0,0.0,0.0,0.0,0.0,0.0,0.0,0.0,0.0,0.0,0.0,0.0,0.0,0.0,0.0,0.0,0.0,-3.0801,-3.0801,-3.0723,-2.9181,-2.8298,-2.8288,0.0,0.0,0.0,0.0,0.0,0.0,0.0,0.0,0.0,0.0,0.0,0.0,0.0,0.0,0.0,0.0,0.0,0.0,0.0,0.0,0.0,0.0,0.0,0.0,0.0,0.0,0.0,0.0,0.0,0.0,0.0,0.0,0.0,0.0,0.0,0.0,0.0,0.0,0.0,0.0,0.0,0.0,0.0,0.0,0.0,0.0,0.0,0.0,0.0,0.0,0.0,0.0,0.0,0.0,0.0,0.0,0.0,0.0,0.0,0.0,0.0,0.0,0.0,0.0,0.0,0.0,0.0,0.0,0.0,0.0,0.0,0.0,0.0,0.0,0.0,0.0,0.0,0.0,0.0,0.0,0.0,0.0,0.0,0.0,0.0,0.0,0.0,0.0,0.0,0.0,0.0,0.0,0.0,0.0,0.0,0.0,0.0,0.0,0.0,0.0,0.0,0.0,0.0,0.0,0.0,0.0,0.0,0.0,-3.0801,-3.0801,-3.0801,-3.0762,-2.9181,-2.8303,0.0,0.0,0.0,0.0,0.0,0.0,0.0,0.0,0.0,0.0,0.0,0.0,0.0,0.0,0.0,0.0,0.0,0.0,0.0,0.0,0.0,0.0,0.0,0.0,0.0,0.0,0.0,0.0,0.0,0.0,0.0,0.0,0.0,0.0,0.0,0.0,0.0,0.0,0.0,0.0,0.0,0.0,0.0,0.0,0.0,0.0,0.0,0.0,0.0,0.0,0.0,0.0,0.0,0.0,0.0,0.0,0.0,0.0,0.0,0.0,0.0,0.0,0.0,0.0,0.0,0.0,0.0,0.0,0.0,0.0,0.0,0.0,0.0,0.0,0.0,0.0,0.0,0.0,0.0,0.0,0.0,0.0,0.0,0.0,0.0,0.0,0.0,0.0,0.0,0.0,0.0,0.0,0.0,0.0,0.0,0.0,0.0,0.0,0.0,0.0,0.0,0.0,0.0,0.0,0.0,0.0,0.0,0.0,0.0,-3.086,-3.086,-3.086,-3.0782,-2.9708,-2.8869,0.0,0.0,0.0,0.0,0.0,0.0,0.0,0.0,0.0,0.0,0.0,0.0,0.0,0.0,0.0,0.0,0.0,0.0,0.0,0.0,0.0,0.0,0.0,0.0,0.0,0.0,0.0,0.0,0.0,0.0,0.0,0.0,0.0,0.0,0.0,0.0,0.0,0.0,0.0,0.0,0.0,0.0,0.0,0.0,0.0,0.0,0.0,0.0,0.0,0.0,0.0,0.0,0.0,0.0,0.0,0.0,0.0,0.0,0.0,0.0,0.0,0.0,0.0,0.0,0.0,0.0,0.0,0.0,0.0,0.0,0.0,0.0,0.0,0.0,0.0,0.0,0.0,0.0,0.0,0.0,0.0,0.0,0.0,0.0,0.0,0.0,0.0,0.0,0.0,0.0,0.0,0.0,0.0,0.0,0.0,0.0,0.0,0.0,0.0,0.0,0.0,0.0,0.0,0.0,0.0,0.0,0.0,0.0,0.0,-3.0919,0.0,-3.088,-3.0782,-3.0021,-2.9181,0.0,0.0,0.0,0.0,0.0,0.0,0.0,0.0,0.0,0.0,0.0,0.0,0.0,0.0,0.0,0.0,0.0,0.0,0.0,0.0,0.0,0.0,0.0,0.0,0.0,0.0,0.0,0.0,0.0,0.0,0.0,0.0,0.0,0.0,0.0,0.0,0.0,0.0,0.0,0.0,0.0,0.0,0.0,0.0,0.0,0.0,0.0,0.0,0.0,0.0,0.0,0.0,0.0,0.0,0.0,0.0,0.0,0.0,0.0,0.0,0.0,0.0,0.0,0.0,0.0,0.0,0.0,0.0,0.0,0.0,0.0,0.0,0.0,0.0,0.0,0.0,0.0,0.0,0.0,0.0,0.0,0.0,0.0,0.0,0.0,0.0,0.0,0.0,0.0,0.0,0.0,0.0,0.0,0.0,0.0,0.0,0.0,0.0,0.0,0.0,0.0,0.0,0.0,0.0,0.0,0.0,0.0,0.0,-3.0919,-3.0919,-3.0919,-3.086,-3.0782,-3.004,-2.922,0.0,0.0,0.0,0.0,0.0,0.0,0.0,0.0,0.0,0.0,0.0,0.0,0.0,0.0,0.0,0.0,0.0,0.0,0.0,0.0,0.0,0.0,0.0,0.0,0.0,0.0,0.0,0.0,0.0,0.0,0.0,0.0,0.0,0.0,0.0,0.0,0.0,0.0,0.0,0.0,0.0,0.0,0.0,0.0,0.0,0.0,0.0,0.0,0.0,0.0,0.0,0.0,0.0,0.0,0.0,0.0,0.0,0.0,0.0,0.0,0.0,0.0,0.0,0.0,0.0,0.0,0.0,0.0,0.0,0.0,0.0,0.0,0.0,0.0,0.0,0.0,0.0,0.0,0.0,0.0,0.0,0.0,0.0,0.0,0.0,0.0,0.0,0.0,0.0,0.0,0.0,0.0,0.0,0.0,0.0,0.0,0.0,0.0,0.0,0.0,0.0,0.0,0.0,0.0,0.0,0.0,0.0,0.0,0.0,-3.0916,-3.0907,-3.088,-3.086,-3.0587,-2.9767,0.0,0.0,0.0,0.0,0.0,0.0,0.0,0.0,0.0,0.0,0.0,0.0,0.0,0.0,0.0,0.0,0.0,0.0,0.0,0.0,0.0,0.0,0.0,0.0,0.0,0.0,0.0,0.0,0.0,0.0,0.0,0.0,0.0,0.0,0.0,0.0,0.0,0.0,0.0,0.0,0.0,0.0,0.0,0.0,0.0,0.0,0.0,0.0,0.0,0.0,0.0,0.0,0.0,0.0,0.0,0.0,0.0,0.0,0.0,0.0,0.0,0.0,0.0,0.0,0.0,0.0,0.0,0.0,0.0,0.0,0.0,0.0,0.0,0.0,0.0,0.0,0.0,0.0,0.0,0.0,0.0,0.0,0.0,0.0,0.0,0.0,0.0,0.0,0.0,0.0,0.0,0.0,0.0,0.0,0.0,0.0,0.0,0.0,0.0,0.0,0.0,0.0,0.0,0.0,0.0,0.0,0.0,0.0,0.0,-3.0918,-3.0914,-3.0907,-3.0919,-3.086,-3.006,-2.8381,0.0,0.0,0.0,0.0,0.0,0.0,0.0,0.0,0.0,0.0,0.0,0.0,0.0,0.0,0.0,0.0,0.0,0.0,0.0,0.0,0.0,0.0,0.0,0.0,0.0,0.0,0.0,0.0,0.0,0.0,0.0,0.0,0.0,0.0,0.0,0.0,0.0,0.0,0.0,0.0,0.0,0.0,0.0,0.0,0.0,0.0,0.0,0.0,0.0,0.0,0.0,0.0,0.0,0.0,0.0,0.0,0.0,0.0,0.0,0.0,0.0,0.0,0.0,0.0,0.0,0.0,0.0,0.0,0.0,0.0,0.0,0.0,0.0,0.0,0.0,0.0,0.0,0.0,0.0,0.0,0.0,0.0,0.0,0.0,0.0,0.0,0.0,0.0,0.0,0.0,0.0,0.0,0.0,0.0,0.0,0.0,0.0,0.0,0.0,0.0,0.0,0.0,0.0,0.0,0.0,0.0,0.0,0.0,-3.0898,-3.0918,-3.0916,-3.0921,-3.0899,-3.0079,0.0,0.0,0.0,0.0,0.0,0.0,0.0,0.0,0.0,0.0,0.0,0.0,0.0,0.0,0.0,0.0,0.0,0.0,0.0,0.0,0.0,0.0,0.0,0.0,0.0,0.0,0.0,0.0,0.0,0.0,0.0,0.0,0.0,0.0,0.0,0.0,0.0,0.0,0.0,0.0,0.0,0.0,0.0,0.0,0.0,0.0,0.0,0.0,0.0,0.0,0.0,0.0,0.0,0.0,0.0,0.0,0.0,0.0,0.0,0.0,0.0,0.0,0.0,0.0,0.0,0.0,0.0,0.0,0.0,0.0,0.0,0.0,0.0,0.0,0.0,0.0,0.0,0.0,0.0,0.0,0.0,0.0,0.0,0.0,0.0,0.0,0.0,0.0,0.0,0.0,0.0,0.0,0.0,0.0,0.0,0.0,0.0,0.0,0.0,0.0,0.0,0.0,0.0,0.0,0.0,0.0,0.0,0.0,0.0,-3.0907,-3.0917,-3.0917,-3.0911,-3.0923,-3.0079,0.0,0.0,0.0,0.0,0.0,0.0,0.0,0.0,0.0,0.0,0.0,0.0,0.0,0.0,0.0,0.0,0.0,0.0,0.0,0.0,0.0,0.0,0.0,0.0,0.0,0.0,0.0,0.0,0.0,0.0,0.0,0.0,0.0,0.0,0.0,0.0,0.0,0.0,0.0,0.0,0.0,0.0,0.0,0.0,0.0,0.0,0.0,0.0,0.0,0.0,0.0,0.0,0.0,0.0,0.0,0.0,0.0,0.0,0.0,0.0,0.0,0.0,0.0,0.0,0.0,0.0,0.0,0.0,0.0,0.0,0.0,0.0,0.0,0.0,0.0,0.0,0.0,0.0,0.0,0.0,0.0,0.0,0.0,0.0,0.0,0.0,0.0,0.0,0.0,0.0,0.0,0.0,0.0,0.0,0.0,0.0,0.0,0.0,0.0,0.0,0.0,0.0,0.0,0.0,0.0,0.0,0.0,0.0,-3.0841,-3.0919,-3.0915,-3.0918,-3.0914,-3.0925,-3.0255,0.0,0.0,0.0,0.0,0.0,0.0,0.0,0.0,0.0,0.0,0.0,0.0,0.0,0.0,0.0,0.0,0.0,0.0,0.0,0.0,0.0,0.0,0.0,0.0,0.0,0.0,0.0,0.0,0.0,0.0,0.0,0.0,0.0,0.0,0.0,0.0,0.0,0.0,0.0,0.0,0.0,0.0,0.0,0.0,0.0,0.0,0.0,0.0,0.0,0.0,0.0,0.0,0.0,0.0,0.0,0.0,0.0,0.0,0.0,0.0,0.0,0.0,0.0,0.0,0.0,0.0,0.0,0.0,0.0,0.0,0.0,0.0,0.0,0.0,0.0,0.0,0.0,0.0,0.0,0.0,0.0,0.0,0.0,0.0,0.0,0.0,0.0,0.0,0.0,0.0,0.0,0.0,0.0,0.0,0.0,0.0,0.0,0.0,0.0,0.0,0.0,0.0,0.0,0.0,0.0,0.0,0.0,0.0,-3.0819,-3.0899,-3.0916,-3.0917,-3.0914,-3.0905,-3.0489,0.0,0.0,0.0,0.0,0.0,0.0,0.0,0.0,0.0,0.0,0.0,0.0,0.0,0.0,0.0,0.0,0.0,0.0,0.0,0.0,0.0,0.0,0.0,0.0,0.0,0.0,0.0,0.0,0.0,0.0,0.0,0.0,0.0,0.0,0.0,0.0,0.0,0.0,0.0,0.0,0.0,0.0,0.0,0.0,0.0,0.0,0.0,0.0,0.0,0.0,0.0,0.0,0.0,0.0,0.0,0.0,0.0,0.0,0.0,0.0,0.0,0.0,0.0,0.0,0.0,0.0,0.0,0.0,0.0,0.0,0.0,0.0,0.0,0.0,0.0,0.0,0.0,0.0,0.0,0.0,0.0,0.0,0.0,0.0,0.0,0.0,0.0,0.0,0.0,0.0,0.0,0.0,0.0,0.0,0.0,0.0,0.0,0.0,0.0,0.0,0.0,0.0,0.0,0.0,0.0,0.0,0.0,0.0,-3.083,-3.0899,-3.0917,-3.0909,-3.0914,-3.0925,-3.0506,0.0,0.0,0.0,0.0,0.0,0.0,0.0,0.0,0.0,0.0,0.0,0.0,0.0,0.0,0.0,0.0,0.0,0.0,0.0,0.0,0.0,0.0,0.0,0.0,0.0,0.0,0.0,0.0,0.0,0.0,0.0,0.0,0.0,0.0,0.0,0.0,0.0,0.0,0.0,0.0,0.0,0.0,0.0,0.0,0.0,0.0,0.0,0.0,-2.5698,0.0,0.0,0.0,0.0,0.0,0.0,0.0,0.0,0.0,0.0,0.0,0.0,0.0,0.0,0.0,0.0,0.0,0.0,0.0,0.0,0.0,0.0,0.0,0.0,0.0,0.0,0.0,0.0,0.0,0.0,0.0,0.0,0.0,0.0,0.0,0.0,0.0,0.0,0.0,0.0,0.0,0.0,0.0,0.0,0.0,0.0,0.0,0.0,0.0,0.0,0.0,0.0,0.0,0.0,0.0,0.0,0.0,0.0,0.0,-3.0827,-3.0899,-3.0916,-3.0921,-3.0907,-3.0921,-3.0684,0.0,0.0,0.0,0.0,0.0,0.0,0.0,0.0,0.0,0.0,0.0,0.0,0.0,0.0,0.0,0.0,0.0,0.0,0.0,0.0,0.0,0.0,0.0,0.0,0.0,0.0,0.0,0.0,0.0,0.0,0.0,0.0,0.0,0.0,0.0,0.0,0.0,0.0,0.0,0.0,0.0,0.0,0.0,0.0,0.0,0.0,0.0,0.0,0.0,0.0,0.0,0.0,0.0,0.0,0.0,0.0,0.0,0.0,0.0,0.0,0.0,0.0,0.0,0.0,0.0,0.0,0.0,0.0,0.0,0.0,0.0,0.0,0.0,0.0,0.0,0.0,0.0,0.0,0.0,0.0,0.0,0.0,0.0,0.0,0.0,0.0,0.0,0.0,0.0,0.0,0.0,0.0,0.0,0.0,0.0,0.0,0.0,0.0,0.0,0.0,0.0,0.0,0.0,0.0,0.0,0.0,0.0,-3.0785,-3.0846,-3.0899,-3.0917,-3.0921,-3.0899,-3.088,-3.088,-3.086,0.0,0.0,0.0,0.0,0.0,0.0,0.0,0.0,0.0,0.0,0.0,0.0,0.0,0.0,0.0,0.0,0.0,0.0,0.0,0.0,0.0,0.0,0.0,0.0,0.0,0.0,0.0,0.0,0.0,0.0,0.0,0.0,0.0,0.0,0.0,0.0,0.0,0.0,-2.458,-2.5351,0.0,0.0,0.0,0.0,0.0,0.0,0.0,0.0,-2.5882,0.0,0.0,0.0,0.0,0.0,0.0,0.0,0.0,0.0,0.0,0.0,0.0,0.0,0.0,0.0,0.0,0.0,0.0,0.0,0.0,0.0,0.0,0.0,0.0,0.0,0.0,0.0,0.0,0.0,0.0,0.0,0.0,0.0,0.0,0.0,0.0,0.0,0.0,0.0,0.0,0.0,0.0,0.0,0.0,0.0,0.0,0.0,0.0,0.0,0.0,0.0,0.0,0.0,0.0,0.0,0.0,-3.0791,-3.0801,-3.0827,-3.0899,-3.0918,-3.0909,-3.0899,-3.0841,-3.0841,-3.0821,0.0,0.0,0.0,0.0,0.0,0.0,0.0,0.0,0.0,0.0,0.0,0.0,0.0,0.0,0.0,0.0,0.0,0.0,0.0,0.0,0.0,0.0,0.0,0.0,0.0,0.0,0.0,0.0,0.0,0.0,0.0,0.0,0.0,0.0,0.0,0.0,0.0,0.0,0.0,-2.6229,-2.6845,0.0,0.0,0.0,0.0,0.0,0.0,0.0,0.0,-2.6447,0.0,0.0,0.0,0.0,0.0,0.0,0.0,0.0,0.0,0.0,0.0,0.0,0.0,0.0,0.0,0.0,0.0,0.0,0.0,0.0,0.0,0.0,0.0,0.0,0.0,0.0,0.0,0.0,0.0,0.0,0.0,0.0,0.0,0.0,0.0,0.0,0.0,0.0,0.0,0.0,0.0,0.0,0.0,0.0,0.0,0.0,0.0,0.0,0.0,0.0,0.0,0.0,0.0,0.0,0.0,-3.0852,-3.0849,-3.0872,-3.0899,-3.0918,-3.0925,-3.0899,-3.0821,-3.0821,0.0,0.0,0.0,0.0,0.0,0.0,0.0,0.0,0.0,0.0,0.0,0.0,0.0,0.0,0.0,0.0,0.0,0.0,0.0,0.0,0.0,0.0,0.0,0.0,0.0,0.0,0.0,0.0,0.0,0.0,0.0,0.0,0.0,0.0,0.0,0.0,0.0,0.0,0.0,0.0,-2.6457,-2.7142,-2.7546,0.0,0.0,0.0,0.0,0.0,0.0,-2.7585,-2.7423,0.0,0.0,0.0,0.0,0.0,0.0,0.0,0.0,0.0,0.0,0.0,0.0,0.0,0.0,0.0,0.0,0.0,0.0,0.0,0.0,0.0,0.0,0.0,0.0,0.0,0.0,0.0,0.0,0.0,0.0,0.0,0.0,0.0,0.0,0.0,0.0,0.0,0.0,0.0,0.0,0.0,0.0,0.0,0.0,0.0,0.0,0.0,0.0,0.0,0.0,0.0,0.0,0.0,0.0,0.0,-3.0919,-3.0919,-3.0923,-3.0912,-3.0914,-3.088,-3.088,-3.086,-3.0841,0.0,0.0,0.0,0.0,0.0,0.0,0.0,0.0,0.0,0.0,0.0,0.0,0.0,0.0,0.0,0.0,0.0,0.0,0.0,0.0,0.0,0.0,0.0,0.0,0.0,0.0,0.0,0.0,0.0,0.0,0.0,0.0,0.0,0.0,0.0,0.0,0.0,0.0,0.0,0.0,0.0,-2.7546,-2.8344,-2.8612,0.0,0.0,0.0,0.0,-2.8468,-2.8437,0.0,0.0,0.0,0.0,0.0,0.0,0.0,0.0,0.0,0.0,0.0,0.0,0.0,0.0,0.0,0.0,0.0,0.0,0.0,0.0,0.0,0.0,0.0,0.0,0.0,0.0,0.0,0.0,0.0,0.0,0.0,0.0,0.0,0.0,0.0,0.0,0.0,0.0,0.0,0.0,0.0,0.0,0.0,0.0,0.0,0.0,0.0,0.0,0.0,0.0,0.0,0.0,0.0,0.0,0.0,0.0,-3.0899,-3.0919,-3.0914,-3.0907,-3.0921,-3.088,-3.0821,-3.086,-3.088,0.0,0.0,0.0,0.0,0.0,0.0,0.0,0.0,0.0,0.0,0.0,0.0,0.0,0.0,0.0,0.0,0.0,0.0,0.0,0.0,0.0,0.0,0.0,0.0,0.0,0.0,0.0,0.0,0.0,0.0,0.0,0.0,0.0,0.0,0.0,0.0,0.0,0.0,0.0,0.0,0.0,-2.8379,-2.924,-2.9958,-3.0458,0.0,0.0,-3.0137,-2.9385,-2.9249,0.0,0.0,0.0,0.0,0.0,0.0,0.0,0.0,0.0,0.0,0.0,0.0,0.0,0.0,0.0,0.0,0.0,0.0,0.0,0.0,0.0,0.0,0.0,0.0,0.0,0.0,0.0,0.0,0.0,0.0,0.0,0.0,0.0,0.0,0.0,0.0,0.0,0.0,0.0,0.0,0.0,0.0,0.0,0.0,0.0,0.0,0.0,0.0,0.0,0.0,0.0,0.0,0.0,0.0,0.0,-3.0911,-3.0914,-3.0914,-3.0917,-3.0914,-3.0925,-3.088,-3.086,-3.088,-3.0925,0.0,0.0,0.0,0.0,0.0,0.0,0.0,0.0,0.0,0.0,0.0,0.0,0.0,0.0,0.0,0.0,0.0,0.0,0.0,0.0,0.0,0.0,0.0,0.0,0.0,0.0,0.0,0.0,0.0,0.0,0.0,0.0,0.0,0.0,0.0,0.0,0.0,0.0,0.0,0.0,0.0,0.0,-2.9401,-3.0153,0.0,0.0,0.0,-3.0513,-3.0145,0.0,0.0,0.0,0.0,0.0,0.0,0.0,0.0,0.0,0.0,0.0,0.0,0.0,0.0,0.0,0.0,0.0,0.0,0.0,0.0,0.0,0.0,0.0,0.0,0.0,0.0,0.0,0.0,0.0,0.0,0.0,0.0,0.0,0.0,0.0,0.0,0.0,0.0,0.0,0.0,0.0,0.0,0.0,0.0,0.0,0.0,0.0,0.0,0.0,0.0,0.0,0.0,0.0,0.0,0.0,0.0,0.0,-3.0918,-3.0918,-3.0918,-3.0918,-3.0913,-3.0923,-3.0919,-3.0919,0.0,0.0,0.0,0.0,0.0,0.0,0.0,0.0,0.0,0.0,0.0,0.0,0.0,0.0,0.0,0.0,0.0,0.0,0.0,0.0,0.0,0.0,0.0,0.0,0.0,0.0,0.0,-2.8711,0.0,0.0,0.0,0.0,0.0,0.0,0.0,0.0,0.0,0.0,0.0,0.0,0.0,0.0,-2.9531,-2.9686,-3.0246,-3.0649,0.0,0.0,-3.0577,-3.0567,-3.0577,-3.0577,0.0,0.0,0.0,0.0,0.0,0.0,0.0,0.0,0.0,0.0,0.0,0.0,0.0,0.0,0.0,0.0,0.0,0.0,0.0,0.0,0.0,0.0,0.0,0.0,0.0,0.0,0.0,0.0,0.0,0.0,0.0,0.0,0.0,0.0,0.0,0.0,0.0,0.0,0.0,0.0,0.0,0.0,0.0,0.0,0.0,0.0,0.0,0.0,0.0,0.0,0.0,0.0,0.0,0.0,-3.0916,-3.0918,-3.0918,-3.0918,-3.0918,-3.0918,-3.0915,-3.0919,-3.0919,-3.0909,0.0,0.0,0.0,0.0,0.0,0.0,0.0,0.0,0.0,0.0,0.0,0.0,0.0,0.0,0.0,0.0,0.0,0.0,0.0,0.0,0.0,0.0,0.0,0.0,0.0,0.0,0.0,0.0,0.0,0.0,0.0,0.0,0.0,0.0,0.0,0.0,0.0,0.0,0.0,0.0,0.0,-2.9687,-3.0408,-3.0548,-3.0569,0.0,-3.0509,-3.049,-3.0519,-3.0509,-3.053,-3.0578,0.0,0.0,0.0,0.0,0.0,0.0,0.0,0.0,0.0,0.0,0.0,0.0,0.0,0.0,0.0,0.0,0.0,0.0,0.0,0.0,0.0,0.0,0.0,0.0,0.0,0.0,0.0,0.0,0.0,0.0,0.0,0.0,0.0,0.0,0.0,0.0,0.0,0.0,0.0,0.0,0.0,0.0,0.0,0.0,0.0,0.0,0.0,0.0,0.0,0.0,0.0,0.0,0.0,-3.0912,-3.0918,-3.0918,-3.0918,-3.0918,-3.0918,-3.0918,-3.0915,-3.0905,-3.0909,0.0,0.0,0.0,0.0,0.0,0.0,0.0,0.0,0.0,0.0,0.0,0.0,0.0,0.0,0.0,0.0,0.0,0.0,0.0,0.0,0.0,0.0,0.0,0.0,0.0,0.0,0.0,0.0,-3.0915,-3.0907,-3.0919,0.0,0.0,0.0,0.0,0.0,0.0,0.0,0.0,0.0,0.0,-3.0255,-3.0567,-3.0569,0.0,0.0,-3.0449,-3.0449,-3.0479,-3.0449,-3.0449,-3.053,-3.054,0.0,0.0,0.0,0.0,0.0,0.0,0.0,0.0,0.0,0.0,0.0,0.0,0.0,0.0,0.0,0.0,0.0,0.0,0.0,0.0,0.0,0.0,0.0,0.0,0.0,0.0,0.0,0.0,0.0,0.0,0.0,0.0,0.0,0.0,0.0,0.0,0.0,0.0,0.0,0.0,0.0,0.0,0.0,0.0,0.0,0.0,0.0,0.0,0.0,0.0,0.0,0.0,-3.0905,-3.0916,-3.0918,-3.0918,-3.0918,-3.0918,-3.1015,-3.1247,-3.1257,-3.1394,0.0,0.0,0.0,0.0,0.0,0.0,0.0,0.0,0.0,0.0,0.0,0.0,0.0,0.0,0.0,0.0,0.0,0.0,0.0,0.0,0.0,0.0,0.0,0.0,0.0,0.0,0.0,0.0,-3.0907,-3.0877,-3.0877,0.0,0.0,0.0,0.0,0.0,0.0,0.0,0.0,0.0,0.0,-3.0568,-3.0559,-3.049,-3.046,-3.0458,-3.0428,-3.0417,-3.0447,-3.0436,-3.0425,-3.0458,0.0,0.0,0.0,0.0,0.0,0.0,0.0,0.0,0.0,0.0,0.0,0.0,0.0,0.0,0.0,0.0,0.0,0.0,0.0,0.0,0.0,0.0,0.0,0.0,0.0,0.0,0.0,-3.0537,0.0,0.0,-3.0443,0.0,0.0,0.0,0.0,0.0,0.0,0.0,0.0,0.0,0.0,0.0,0.0,0.0,0.0,0.0,0.0,0.0,0.0,0.0,0.0,0.0,0.0,-3.0938,-3.0938,-3.0975,-3.0957,-3.0957,-3.0918,-3.1306,-3.2048,-3.2085,-3.2475,-3.3278,0.0,0.0,0.0,0.0,0.0,0.0,0.0,0.0,0.0,0.0,0.0,0.0,0.0,0.0,0.0,0.0,0.0,0.0,0.0,0.0,0.0,0.0,0.0,0.0,0.0,0.0,-3.0943,-3.0919,-3.0914,0.0,0.0,0.0,0.0,0.0,0.0,0.0,0.0,0.0,-3.062,-3.0602,-3.054,-3.0421,-3.0394,-3.0386,-3.039,-3.039,-3.0398,-3.039,-3.039,-3.0402,0.0,0.0,0.0,0.0,0.0,0.0,0.0,0.0,0.0,0.0,0.0,0.0,0.0,0.0,0.0,0.0,0.0,0.0,0.0,0.0,0.0,0.0,0.0,0.0,0.0,0.0,0.0,-3.2402,-3.24,0.0,0.0,0.0,0.0,0.0,0.0,0.0,0.0,0.0,0.0,0.0,-3.548,-3.5802,0.0,0.0,0.0,0.0,0.0,0.0,0.0,0.0,0.0,0.0,0.0,0.0,-3.2561,-3.2561,-3.2557,-3.2578,-3.2559,-3.2559,-3.2692,-3.2963,-3.2963,-3.308,-3.3373,0.0,0.0,0.0,0.0,0.0,0.0,0.0,0.0,0.0,0.0,0.0,0.0,0.0,0.0,0.0,0.0,0.0,0.0,0.0,0.0,0.0,0.0,0.0,0.0,0.0,-3.1745,0.0,0.0,0.0,0.0,0.0,0.0,0.0,0.0,0.0,0.0,0.0,-3.0637,-3.0607,-3.052,-3.0458,-3.039,-3.039,-3.039,0.0,0.0,0.0,0.0,0.0,0.0,0.0,0.0,0.0,0.0,0.0,0.0,0.0,0.0,-3.0559,-3.0578,-3.0569,-3.0472,-3.0202,0.0,0.0,0.0,0.0,0.0,0.0,0.0,0.0,0.0,0.0,0.0,0.0,0.0,0.0,-3.3334,-3.3297,-3.3264,0.0,0.0,0.0,0.0,0.0,0.0,0.0,0.0,-3.5894,-3.5924,-3.5943,-3.5978,-3.601,0.0,-3.6016,-3.5415,0.0,0.0,0.0,0.0,0.0,0.0,0.0,0.0,-3.3385,-3.339,-3.3379,-3.3378,-3.3379,-3.3378,-3.3547,-3.3844,-3.4153,-3.4309,-3.429,-3.3997,-3.3851,0.0,0.0,0.0,0.0,0.0,0.0,0.0,0.0,0.0,0.0,0.0,0.0,0.0,0.0,0.0,0.0,0.0,0.0,0.0,0.0,0.0,0.0,0.0,-3.2611,0.0,0.0,0.0,0.0,0.0,0.0,0.0,0.0,0.0,-3.167,-3.1504,-3.1477,-3.1447,-3.109,-3.0829,-3.0864,0.0,0.0,0.0,0.0,0.0,0.0,0.0,-3.0398,-3.0398,-3.0402,-3.0394,-3.0394,-3.0428,-3.0449,-3.046,0.0,0.0,-3.0569,-3.0617,-3.0617,-3.0617,-3.0559,-3.0376,-2.9835,-2.9679,-2.9475,0.0,0.0,0.0,0.0,0.0,0.0,0.0,0.0,-3.3516,-3.3492,0.0,-3.3445,0.0,0.0,0.0,0.0,-3.4681,-3.5495,0.0,0.0,-3.5962,-3.6013,-3.6009,-3.6021,-3.601,-3.601,-3.601,-3.5991,-3.5971,-3.5982,0.0,0.0,0.0,0.0,0.0,0.0,-3.3469,-3.3515,-3.3524,-3.3485,-3.3515,-3.3504,-3.3902,-3.4722,-3.5542,-3.5971,-3.5952,-3.5171,-3.4742,-3.4742,-3.3902,0.0,0.0,0.0,0.0,0.0,0.0,0.0,0.0,0.0,0.0,0.0,0.0,0.0,0.0,0.0,0.0,0.0,0.0,0.0,0.0,-3.3467,0.0,0.0,0.0,0.0,0.0,0.0,0.0,0.0,0.0,-3.3275,-3.319,-3.3103,-3.3063,-3.2975,0.0,0.0,0.0,0.0,-3.0494,-3.0494,-3.0475,-3.0475,-3.0467,-3.0456,-3.0436,-3.0398,0.0,0.0,-3.0398,-3.0394,-3.0398,-3.0398,-3.046,-3.052,-3.0569,-3.0617,-3.0617,-3.0617,-3.0598,-3.0588,-3.0501,-3.0414,-3.0404,-3.3823,0.0,0.0,0.0,0.0,-3.3961,-3.4454,-3.524,-3.5266,-3.5256,-3.5225,-3.5232,0.0,0.0,0.0,0.0,0.0,0.0,-3.5973,-3.5977,-3.5978,-3.6007,-3.6004,-3.6013,-3.6007,-3.6015,-3.6012,-3.601,-3.601,-3.6009,-3.5851,-3.5636,0.0,0.0,0.0,0.0,-3.5254,-3.5261,-3.5254,-3.5254,-3.5242,-3.5254,-3.5366,-3.562,-3.5854,-3.601,-3.601,-3.5757,-3.562,-3.56,-3.4788,0.0,0.0,0.0,0.0,0.0,0.0,0.0,0.0,0.0,0.0,0.0,0.0,0.0,0.0,0.0,0.0,0.0,0.0,0.0,-3.4266,-3.4884,-3.5015,0.0,0.0,0.0,0.0,0.0,0.0,0.0,0.0,0.0,-3.4886,-3.3793,-3.3029,0.0,0.0,-3.2557,-3.2557,-3.2333,-3.2199,-3.2179,-3.2179,0.0,-3.141,-3.1333,-3.1121,-3.0494,-3.0398,-3.0398,-3.0398,-3.039,-3.0414,-3.0458,-3.0479,-3.053,-3.0588,-3.0617,-3.0617,-3.0617,-3.0617,-3.0598,-3.0569,-3.053,-3.0491,-3.5929,-3.5333,-3.3971,-3.3895,-3.4676,-3.471,-3.5203,-3.601,-3.6009,-3.6003,-3.601,-3.6009,-3.6005,-3.6017,-3.6007,0.0,0.0,0.0,-3.602,-3.6017,-3.6007,-3.6018,-3.6007,-3.6007,-3.6011,-3.6016,-3.6015,-3.6013,-3.6013,-3.6013,-3.6013,-3.6013,0.0,-3.6007,-3.6007,-3.6015,-3.6012,-3.6013,-3.601,-3.601,-3.601,-3.601,-3.601,-3.601,-3.601,-3.601,-3.601,-3.601,-3.601,-3.5991,-3.5503,-3.5218,0.0,0.0,0.0,0.0,0.0,0.0,0.0,0.0,0.0,0.0,0.0,-3.2871,-3.3359,0.0,0.0,0.0,-3.4224,-3.4644,-3.5171,-3.5678,0.0,0.0,0.0,0.0,0.0,0.0,0.0,-3.5775,-3.5649,-3.5604,-3.5584,-3.4653,-3.3986,-3.3981,-3.3667,-3.341,-3.3417,0.0,-3.2891,-3.2891,-3.2891,-3.2737,-3.2256,-3.2179,-3.1891,-3.1064,-3.091,-3.0763,-3.0448,-3.039,-3.0414,-3.0439,-3.0479,-3.051,-3.054,-3.0569,-3.0617,-3.0617,-3.0617,-3.0617,-3.0617,-3.0579,-3.055,-3.8609,-3.8336,-3.5148,-3.4311,-3.4996,-3.5007,-3.5417,-3.6089,-3.6093,-3.6073,-3.6009,-3.6018,-3.6013,-3.6016,-3.6013,0.0,-3.6013,-3.6005,-3.6005,-3.6016,-3.6016,-3.6007,-3.6016,-3.6016,-3.6016,-3.6016,-3.6016,-3.6016,-3.6016,-3.6016,-3.6016,-3.6016,-3.6016,-3.6016,-3.6016,-3.6015,-3.6012,-3.6013,-3.6013,-3.601,-3.601,-3.601,-3.601,-3.601,-3.601,-3.601,-3.601,-3.601,-3.601,-3.601,-3.601,-3.601,-3.5974,0.0,0.0,0.0,0.0,0.0,0.0,0.0,0.0,0.0,0.0,0.0,0.0,0.0,0.0,0.0,-3.5525,0.0,-3.601,-3.601,0.0,0.0,0.0,-3.5987,-3.5911,-3.5838,-3.576,-3.5718,0.0,0.0,-3.5604,-3.5528,-3.5489,-3.5488,-3.4814,-3.4314,-3.4293,-3.3667,-3.3122,-3.3218,-3.3141,-3.3103,-3.3026,-3.291,-3.2583,-3.1929,-3.1737,-3.1371,-3.071,-3.0444,-3.0417,-3.0428,-3.046,-3.0491,-3.052,-3.0569,-3.0607,-3.0598,-3.0598,-3.0598,-3.0607,-3.0607,-3.0588,-3.8598,-3.8531,-3.7714,-3.7487,-3.767,-3.7668,-3.7415,-3.6988,-3.6989,-3.6614,-3.6016,-3.6013,-3.6003,-3.6014,-3.6021,-3.601,-3.601,-3.6016,-3.6005,-3.6014,-3.6014,-3.6015,-3.6016,-3.6016,-3.6016,-3.6016,-3.6016,-3.6016,-3.6016,-3.6016,-3.6016,-3.6016,-3.6016,-3.6016,-3.6016,-3.601,-3.6003,-3.6007,-3.6018,-3.601,-3.601,-3.601,-3.601,-3.601,-3.601,-3.601,-3.601,-3.601,-3.601,-3.601,-3.601,-3.601,-3.601,-3.5804,0.0,0.0,0.0,0.0,0.0,0.0,0.0,0.0,0.0,-3.4686,-3.532,0.0,-3.5691,0.0,-3.5882,-3.601,-3.601,-3.601,0.0,0.0,-3.6017,-3.5968,-3.5911,-3.583,-3.5763,-3.5718,-3.5646,-3.5616,-3.5623,-3.5541,-3.5501,-3.5488,-3.5315,-3.5185,-3.5166,-3.5032,-3.4872,-3.4834,-3.4814,-3.4661,-3.3987,-3.3314,-3.2884,-3.2716,-3.2139,-3.165,-3.148,-3.0893,-3.0479,-3.0471,-3.0481,-3.0501,-3.0579,-3.0588,-3.0606,-3.0606,-3.0606,-3.0606,-3.0606,-3.0623,-3.0613,-3.9719,-3.9704,-3.9704,-3.9715,-3.9663,-3.891,-3.8327,-3.7878,-3.788,-3.7602,-3.7165,-3.7145,-3.7153,-3.7162,-3.7157,-3.7157,-3.7161,-3.7161,-3.7145,-3.7148,-3.7168,-3.7148,-3.7168,-3.7148,-3.6953,-3.6601,-3.6582,-3.6387,-3.6016,-3.6016,-3.6016,-3.6016,-3.6016,-3.6015,-3.6011,-3.6021,-3.6016,-3.6003,-3.6016,-3.601,-3.601,-3.601,-3.601,-3.601,-3.601,-3.601,-3.601,-3.601,-3.601,-3.601,-3.601,-3.601,-3.601,-3.601,-3.6018,0.0,0.0,0.0,0.0,0.0,0.0,0.0,0.0,0.0,0.0,0.0,-3.6016,-3.6003,-3.6016,-3.601,-3.601,-3.601,-3.601,-3.601,-3.6017,-3.5987,-3.5885,-3.5842,-3.5773,-3.5708,-3.5646,-3.5616,-3.5596,-3.5554,-3.5482,-3.5488,-3.5507,-3.5507,-3.5507,-3.5507,-3.5507,-3.5507,-3.5507,-3.5334,-3.4822,-3.4379,-3.3949,-3.3619,-3.3176,-3.2764,-3.2389,-3.1967,-3.1553,-3.1177,-3.11,-3.0984,-3.0713,-3.0615,-3.0613,-3.0613,-3.0621,-3.0621,-3.0613,-3.0621,-3.061,-4.1276,-4.1262,-4.115,-4.1111,-4.0994,-3.9529,-3.8837,-3.8759,-3.8743,-3.8687,-3.859,-3.859,-3.859,-3.8593,-3.8602,-3.8609,-3.8613,-3.8613,-3.8613,-3.8613,-3.8613,-3.8613,-3.8613,-3.8613,-3.8203,-3.748,-3.7461,-3.707,-3.6348,-3.6328,-3.6289,-3.6171,-3.6172,-3.6111,-3.6016,-3.6013,-3.601,-3.601,-3.601,-3.601,-3.601,-3.601,-3.601,-3.601,-3.601,-3.601,-3.601,-3.601,-3.601,-3.601,-3.601,-3.601,-3.601,-3.601,-3.601,0.0,-3.601,0.0,0.0,0.0,0.0,0.0,0.0,0.0,0.0,-3.6018,-3.601,-3.601,-3.601,-3.601,-3.601,-3.601,-3.601,-3.601,-3.5997,-3.5963,-3.5911,-3.5842,-3.5782,-3.5708,-3.5637,-3.5612,-3.5601,-3.5553,-3.5502,-3.5507,-3.552,-3.5501,-3.552,-3.5501,-3.5488,-3.5488,-3.5488,-3.5476,-3.5445,-3.5457,-3.52,-3.4619,-3.4284,-3.4071,-3.333,-3.31,-3.2821,-3.2174,-3.2029,-3.1786,-3.0933,-3.0795,-3.0754,-3.0657,-3.0661,-3.0688,-3.0645,-3.0618,-3.0634,-4.2149,-4.2086,-4.1393,-4.11,-4.1061,-4.07,-4.0164,-3.9579,-3.9583,-3.9173,-3.8534,-3.8518,-3.8505,-3.8531,-3.8573,-3.8615,-3.8598,-3.8612,-3.8613,-3.8613,-3.8613,-3.8613,-3.8613,-3.8613,-3.8516,-3.8359,-3.8359,-3.8262,-3.8105,-3.8105,-3.7752,-3.7055,-3.7049,-3.6698,-3.6048,0.0,0.0,0.0,-3.601,-3.601,-3.601,-3.601,-3.601,-3.601,-3.601,0.0,-3.601,-3.601,-3.601,-3.601,-3.601,0.0,0.0,0.0,0.0,0.0,0.0,0.0,0.0,0.0,0.0,0.0,-3.601,-3.6013,-3.6016,-3.6013,-3.601,-3.601,-3.601,-3.601,-3.601,-3.6007,-3.6004,-3.601,-3.597,-3.5914,-3.5885,-3.5857,-3.5779,-3.5718,-3.5658,-3.5635,-3.567,-3.5584,-3.5605,-3.5688,-3.5599,-3.5579,-3.5637,-3.5592,-3.5502,-3.5502,-3.5554,-3.5579,-3.5591,-3.5591,-3.5538,-3.5303,-3.4784,-3.4389,-3.4197,-3.3635,-3.3218,-3.2947,-3.2936,-3.2684,-3.1831,-3.1701,-3.1511,-3.0819,-3.0723,-3.0698,-3.069,-3.069,-3.0704,-4.2987,-4.2961,-4.2519,-4.2344,0.0,-4.2291,-4.2045,-4.1611,-4.0752,-4.0145,-3.9804,-3.9789,-3.9794,-3.9782,-3.9829,-3.9832,-3.9819,-3.9834,-3.9822,-3.9844,-3.9824,-3.9844,-3.9902,-3.9863,-3.9648,-3.9258,-3.9238,-3.9023,-3.8613,-3.861,-3.8368,-3.7946,-3.7958,-3.7727,-3.7292,-3.6855,-3.644,-3.601,-3.601,-3.601,-3.601,-3.601,-3.601,-3.601,-3.601,0.0,0.0,0.0,0.0,0.0,0.0,0.0,0.0,-3.601,0.0,-3.601,-3.601,-3.601,-3.601,-3.601,-3.601,-3.601,-3.601,-3.601,-3.601,-3.601,-3.601,-3.601,-3.601,-3.6166,-3.6599,-3.6635,-3.6788,-3.7165,-3.7199,-3.7171,-3.7176,-3.7117,-3.7078,-3.7055,-3.6988,-3.6927,-3.6925,-3.6903,-3.6899,-3.6883,-3.6895,-3.6861,-3.6795,-3.6091,-3.556,-3.5528,-3.5572,-3.5616,-3.562,-3.562,-3.5623,-3.557,-3.532,-3.5108,-3.5117,-3.4777,-3.4359,-3.3979,-3.386,-3.3616,-3.2819,-3.2628,-3.235,-3.1586,-3.1345,-3.1162,-3.087,-3.0748,-3.0748,-4.3806,-4.3789,-4.3653,-4.3566,-4.3575,-4.3586,-4.3586,-4.3489,-4.2057,0.0,0.0,-4.1551,-4.1543,-4.1515,-4.1393,-4.1328,-4.1322,-4.1186,-4.1101,-4.1112,-4.1113,-4.1133,-4.1191,-4.1191,-4.084,-4.0156,-4.0137,-3.9765,-3.9062,-3.9049,-3.8957,-3.8843,-3.8824,-3.8765,-3.8567,-3.7887,-3.7184,-3.6482,-3.6166,-3.601,-3.601,-3.601,-3.601,-3.601,-3.601,-3.601,-3.601,-3.601,-3.601,-3.601,-3.601,-3.601,-3.601,-3.601,-3.601,-3.601,-3.601,-3.601,-3.601,-3.601,-3.6069,-3.6225,-3.6225,-3.6166,-3.603,-3.6147,-3.6225,-3.6225,-3.6362,-3.6755,-3.7458,-3.7516,-3.7786,-3.8443,-3.8521,-3.8497,-3.8494,-3.8461,-3.8319,-3.841,-3.8268,-3.8297,-3.8228,-3.8149,-3.8216,-3.8197,-3.8078,-3.8214,-3.8033,-3.6845,-3.584,-3.5659,-3.5631,-3.5612,-3.5626,-3.5648,-3.5669,-3.5689,-3.5708,-3.5736,-3.5793,-3.5801,-3.5519,-3.4882,-3.48,-3.4445,-3.3732,-3.3531,-3.3231,-3.2405,-3.2255,-3.1992,-3.1246,-3.1027,-3.0998,-4.4615,-4.4576,-4.383,-4.351,-4.351,-4.353,-4.352,-4.3501,-4.3314,-4.3233,-4.3261,-4.3257,-4.324,-4.3221,-4.2479,-4.2169,-4.2167,-4.1456,-4.1111,-4.1116,-4.1112,-4.1113,-4.1113,-4.1172,-4.1152,-4.1016,-4.1016,-4.0915,-4.0765,-4.072,-4.0405,-3.98,-3.9722,-3.9351,-3.8645,-3.847,-3.8355,-3.8199,-3.6774,-3.601,-3.601,-3.601,-3.601,-3.601,-3.601,-3.601,-3.601,-3.601,-3.601,-3.601,-3.601,-3.601,-3.601,-3.601,-3.601,-3.601,-3.601,-3.601,-3.601,-3.601,-3.6323,-3.7048,-3.7126,-3.6813,-3.6088,-3.6696,-3.7126,-3.7126,-3.775,-3.8277,-3.8414,-3.8369,-3.8393,-3.8531,-3.8539,-3.8533,-3.8611,-3.8585,-3.8583,-3.8536,-3.8402,-3.8433,-3.8481,-3.8403,-3.8452,-3.8355,-3.8568,-3.8345,-3.8228,-3.7452,-3.654,-3.5892,-3.5689,-3.5689,-3.5699,-3.5737,-3.5756,-3.5782,-3.5779,-3.5803,-3.5864,-3.5872,-3.5801,-3.5697,-3.5626,-3.532,-3.4592,-3.4433,-3.4067,-3.339,-3.3204,-3.292,-3.2104,-3.189,-3.1659,-4.5424,-4.5356,-4.4965,-4.4799,-4.4799,-4.4788,-4.4808,-4.4808,-4.483,-4.4356,-4.3577,-4.3556,-4.3572,-4.3549,-4.3169,-4.3019,-4.3031,-4.2666,-4.2522,-4.2516,-4.2507,-4.2516,-4.248,-4.207,-4.1836,-4.1816,-4.1406,-4.1169,-4.1169,-4.1108,-4.0893,-4.0561,-4.0561,-4.0346,-3.9956,-3.9488,-3.9253,-3.9214,-3.8024,-3.7419,-3.7379,-3.695,-3.6696,-3.6716,-3.6264,-3.601,-3.601,-3.601,-3.601,-3.601,-3.601,-3.601,-3.601,-3.601,-3.601,-3.603,-3.6443,-3.6696,-3.6696,-3.7165,-3.7594,-3.7965,-3.8004,-3.7848,-3.7458,-3.777,-3.8004,-3.8004,-3.8375,-3.8765,-3.9195,-3.9211,-3.9376,-3.9867,-3.9911,-3.9914,-3.9908,-3.987,-3.9831,-3.9836,-3.9813,-3.9796,-3.977,-3.977,-3.977,-3.9751,-3.976,-3.9585,-3.9129,-3.8732,-3.7937,-3.6726,-3.6415,-3.6239,-3.5888,-3.5788,-3.5811,-3.5845,-3.5846,-3.5859,-3.5897,-3.5903,-3.5908,-3.5938,-3.5963,-3.5807,-3.5364,-3.5349,-3.4987,-3.4328,-3.4098,-3.375,-3.3074,-3.2472,-3.1831,-4.596,-4.5898,-4.5898,-4.5898,-4.5898,-4.5898,-4.5898,-4.5898,-4.5898,-4.5196,-4.4142,-4.4054,-4.4093,-4.4139,-4.3977,-4.3863,-4.3877,-4.3746,-4.3675,-4.3697,-4.37,-4.3696,-4.3631,-4.2987,-4.2695,-4.2637,-4.2051,-4.1776,-4.1746,-4.1699,-4.1579,-4.14,-4.1205,-4.1108,-4.1069,-4.0444,-4.0093,-4.0054,-3.9468,-3.8983,-3.859,-3.7926,-3.7594,-3.7536,-3.695,-3.6579,-3.6599,-3.6579,-3.6579,-3.6599,-3.6599,-3.6579,-3.6579,-3.6579,-3.6579,-3.6657,-3.7223,-3.7594,-3.7633,-3.8219,-3.8687,-3.8863,-3.8863,-3.8963,-3.9139,-3.9175,-3.9058,-3.8921,-3.9097,-3.9468,-3.9976,-4.0093,-4.0366,-4.1026,-4.1105,-4.1013,-4.1067,-4.1045,-4.102,-4.1007,-4.0986,-4.0945,-4.0996,-4.0996,-4.091,-4.0871,-4.0991,-4.0707,-4.0135,-4.0018,-3.9322,-3.8163,-3.7514,-3.7094,-3.6312,-3.6158,-3.6099,-3.5975,-3.5908,-3.5919,-3.5924,-3.5929,-3.5953,-3.5981,-3.6001,-3.5966,-3.599,-3.5974,-3.5681,-3.5103,-3.4989,-3.4722,-3.3868,-3.3029,-3.217,-4.5905,-4.5899,-4.5905,-4.5898,-4.5905,-4.5905,-4.5905,-4.5905,-4.5886,-4.5859,-4.56,-4.5739,-4.5744,-4.5765,-4.5035,-4.472,-4.4708,-4.3955,-4.3701,-4.3773,-4.3693,-4.3704,-4.3788,-4.3642,-4.3572,-4.3555,-4.3437,-4.332,-4.332,-4.3368,-4.3024,-4.2282,-4.1498,-4.1169,-4.113,-4.1033,-4.0971,-4.0971,-4.0912,-4.0132,-3.8707,-3.8531,-3.8473,-3.8492,-3.8394,-3.8355,-3.8238,-3.8355,-3.8355,-3.8355,-3.8316,-3.8336,-3.8316,-3.8355,-3.8336,-3.8316,-3.8434,-3.8473,-3.8512,-3.8531,-3.898,-3.9585,-3.9683,-3.9995,-4.0698,-4.0815,-4.0522,-3.9995,-4.0385,-4.0776,-4.0971,-4.0952,-4.0948,-4.1058,-4.1109,-4.11,-4.1111,-4.1095,-4.107,-4.1013,-4.1,-4.0979,-4.1011,-4.1003,-4.1011,-4.1006,-4.1013,-4.0981,-4.0812,-4.0785,-4.0577,-3.9616,-3.8916,-3.8085,-3.7313,-3.7083,-3.684,-3.6221,-3.5992,-3.6079,-3.6138,-3.6055,-3.6016,-3.5997,-3.6009,-3.6017,-3.6007,-3.601,-3.5991,-3.5796,-3.5686,-3.5579,-3.4739,-3.3895,-3.3034,-4.5887,-4.5841,-4.5841,-4.5835,-4.5835,-4.5854,-4.5854,-4.5854,-4.5835,-4.5854,-4.5899,-4.5917,-4.5972,-4.6016,-4.5697,-4.5589,-4.5577,-4.527,-4.5163,-4.5183,-4.5167,-4.5206,-4.5187,-4.4686,-4.4457,-4.4405,-4.396,-4.3709,-4.3711,-4.3709,-4.3507,-4.3183,-4.2798,-4.2628,-4.2593,-4.2121,-4.1882,-4.1843,-4.1367,-4.0756,-4.0112,-3.9605,-3.9351,-3.9253,-3.8843,-3.8609,-3.8609,-3.8609,-3.8609,-3.8609,-3.8609,-3.8609,-3.8609,-3.8609,-3.8609,-3.8629,-3.9058,-3.9527,-4.0034,-4.0073,-4.0229,-4.0561,-4.0581,-4.0756,-4.1049,-4.1108,-4.0912,-4.0698,-4.0893,-4.1108,-4.1108,-4.1108,-4.1108,-4.1101,-4.1117,-4.1109,-4.1113,-4.1115,-4.1106,-4.1067,-4.1056,-4.1064,-4.1058,-4.1058,-4.1064,-4.105,-4.107,-4.107,-4.1075,-4.1081,-4.095,-4.0638,-4.0242,-3.9463,-3.8327,-3.801,-3.7804,-3.7472,-3.7031,-3.6781,-3.6723,-3.6264,-3.6016,-3.6035,-3.6074,-3.6077,-3.6003,-3.6003,-3.6003,-3.6021,-3.6009,-3.5859,-3.5527,-3.4778,-3.4068,-4.5847,-4.58,-4.58,-4.58,-4.58,-4.58,-4.58,-4.58,-4.58,-4.5847,-4.5874,-4.5893,-4.5917,-4.5972,-4.6046,-4.6095,-4.6105,-4.6152,-4.6185,-4.6208,-4.6209,-4.624,-4.6186,-4.5644,-4.5336,-4.5265,-4.475,-4.4427,-4.4374,-4.414,-4.4062,-4.4038,-4.3825,-4.3711,-4.3633,-4.3047,-4.2772,-4.2713,-4.2097,-4.1716,-4.142,-4.0873,-4.0444,-4.0151,-3.9605,-3.9273,-3.9292,-3.9292,-3.9273,-3.9273,-3.9276,-3.9276,-3.9295,-3.9292,-3.9295,-3.9331,-3.9839,-4.0424,-4.1069,-4.1108,-4.1108,-4.1108,-4.1108,-4.1108,-4.1108,-4.1108,-4.1108,-4.1088,-4.1108,-4.1108,-4.1108,-4.1108,-4.1108,-4.1108,-4.1101,-4.1101,-4.1108,-4.1113,-4.11,-4.1105,-4.1096,-4.1115,-4.1111,-4.1111,-4.1111,-4.1096,-4.11,-4.11,-4.1105,-4.1105,-4.1105,-4.1105,-4.107,-4.0446,-3.9169,-3.8904,-3.8892,-3.8473,-3.7931,-3.7658,-3.7636,-3.7038,-3.648,-3.679,-3.65,-3.6188,-3.6052,-3.6012,-3.6012,-3.6009,-3.5994,-3.5996,-3.5898,-3.5371,-3.5133,-4.5814,-4.58,-4.58,-4.58,-4.58,-4.58,-4.58,-4.58,-4.58,-4.58,-4.5814,-4.588,-4.5898,-4.5898,-4.5975,-4.6037,-4.6095,-4.6105,-4.6152,-4.6193,-4.6208,-4.6209,-4.6209,-4.6162,-4.6143,-4.612,-4.6007,-4.5997,-4.6009,-4.5325,-4.4954,-4.4917,-4.4233,-4.3782,-4.3821,-4.3745,-4.3646,-4.3609,-4.3473,-4.3144,-4.2461,-4.2285,-4.1855,-4.1189,-4.0971,-4.0854,-4.0893,-4.0952,-4.0932,-4.0952,-4.0873,-4.0912,-4.0932,-4.0912,-4.0873,-4.0912,-4.0971,-4.103,-4.1088,-4.1108,-4.1108,-4.1108,-4.1108,-4.1108,-4.1108,-4.1108,-4.1147,-4.1127,-4.1225,-4.1205,-4.1283,-4.1205,-4.1166,-4.1205,-4.1166,-4.1186,-4.1205,-4.1296,-4.1133,-4.1148,-4.1144,-4.112,-4.1115,-4.1115,-4.11,-4.1109,-4.1113,-4.1113,-4.1101,-4.1104,-4.1104,-4.1108,-4.1049,-4.0792,-3.9962,-3.979,-3.9471,-3.9127,-3.8914,-3.8547,-3.8539,-3.84,-3.7922,-3.7519,-3.7344,-3.6934,-3.6309,-3.6016,-3.6016,-3.6015,-3.6016,-3.6016,-3.6016,-3.6016,-3.5801,-4.58,-4.58,-4.58,-4.58,-4.58,-4.58,-4.58,-4.58,-4.58,-4.58,-4.5814,-4.5861,-4.5898,-4.5898,-4.5975,-4.6007,-4.6056,-4.6076,-4.6114,-4.613,-4.6193,-4.6196,-4.6203,-4.6209,-4.6206,-4.624,-4.624,-4.6249,-4.6218,-4.5955,-4.5841,-4.5802,-4.5548,-4.5372,-4.5255,-4.4806,-4.4552,-4.4474,-4.4017,-4.3532,-4.3259,-4.322,-4.3066,-4.2732,-4.1665,-4.1108,-4.1108,-4.1108,-4.1108,-4.1108,-4.1108,-4.1108,-4.1108,-4.1108,-4.1108,-4.1108,-4.1108,-4.1108,-4.1108,-4.1108,-4.1108,-4.1108,-4.1108,-4.1166,-4.1108,-4.1127,-4.1322,-4.1791,-4.1927,-4.2123,-4.2415,-4.1791,-4.1342,-4.181,-4.1947,-4.2142,-4.2494,-4.2295,-4.1921,-4.1843,-4.1488,-4.1117,-4.1214,-4.1117,-4.1101,-4.1104,-4.1104,-4.1124,-4.1108,-4.1108,-4.1111,-4.1099,-4.1094,-4.101,-4.0773,-4.0656,-4.0506,-4.0201,-3.9934,-3.9568,-3.9431,-3.8961,-3.8457,-3.8301,-3.8144,-3.7793,-3.7148,-3.6367,-3.6308,-3.6129,-3.6127,-3.6011,-3.6016,-3.6013,-3.6011,-4.58,-4.58,-4.58,-4.58,-4.58,-4.58,-4.58,-4.58,-4.58,-4.58,-4.5814,-4.588,-4.5898,-4.5917,-4.5956,-4.5977,-4.6007,-4.6037,-4.6076,-4.6123,-4.6149,-4.6174,-4.6203,-4.6216,-4.6203,-4.6201,-4.6206,-4.6211,-4.6216,-4.6249,-4.6273,-4.6253,-4.6273,-4.6253,-4.6156,-4.5664,-4.5391,-4.5254,-4.4793,-4.4406,-4.4172,-4.4114,-4.3967,-4.3572,-4.2536,-4.1943,-4.1941,-4.1936,-4.1931,-4.195,-4.1927,-4.1947,-4.1931,-4.1931,-4.1931,-4.1927,-4.1947,-4.1947,-4.195,-4.1931,-4.1947,-4.1947,-4.1947,-4.1947,-4.1927,-4.1927,-4.224,-4.2669,-4.2825,-4.3118,-4.3313,-4.263,-4.2201,-4.2728,-4.2806,-4.304,-4.3567,-4.3157,-4.2864,-4.2747,-4.2396,-4.2025,-4.1931,-4.1973,-4.1858,-4.1585,-4.1507,-4.1448,-4.1175,-4.1111,-4.1116,-4.1108,-4.1112,-4.1111,-4.0992,-4.0935,-4.0937,-4.0703,-4.0586,-4.0331,-4.0097,-3.9589,-3.9237,-3.9101,-3.8827,-3.8495,-3.789,-3.703,-3.6617,-3.645,-3.6155,-3.6003,-3.6003,-3.6005,-3.6003,-4.58,-4.58,-4.58,-4.58,-4.58,-4.58,-4.58,-4.58,-4.58,-4.58,-4.5814,-4.588,-4.5898,-4.5917,-4.5956,-4.5977,-4.5977,-4.6007,-4.6056,-4.6085,-4.6104,-4.6149,-4.6212,-4.6208,-4.6209,-4.6203,-4.6201,-4.6206,-4.6206,-4.6211,-4.6211,-4.6211,-4.6211,-4.6216,-4.6206,-4.6114,-4.6133,-4.608,-4.5956,-4.5672,-4.5109,-4.5008,-4.466,-4.398,-4.3767,-4.3711,-4.3691,-4.3605,-4.3473,-4.3531,-4.3551,-4.3668,-4.3492,-4.3473,-4.359,-4.3469,-4.3567,-4.3609,-4.357,-4.3489,-4.3411,-4.3411,-4.3567,-4.3411,-4.3352,-4.343,-4.3509,-4.3665,-4.3704,-4.3782,-4.386,-4.3801,-4.3704,-4.3704,-4.3704,-4.3762,-4.386,-4.3762,-4.3684,-4.3626,-4.343,-4.3626,-4.3648,-4.3423,-4.3078,-4.2574,-4.238,-4.2203,-4.1676,-4.1554,-4.1281,-4.1191,-4.1306,-4.1403,-4.1245,-4.1107,-4.1101,-4.1058,-4.1001,-4.0865,-4.0793,-4.0443,-4.017,-3.9994,-3.9564,-3.9232,-3.8739,-3.7938,-3.747,-3.7187,-3.6677,-3.6261,-3.6264,-3.6284,-3.6046,-4.58,-4.58,-4.58,-4.58,-4.58,-4.58,-4.58,-4.58,-4.58,-4.58,-4.5814,-4.5861,-4.5898,-4.591,-4.5956,-4.5977,-4.5977,-4.6007,-4.6037,-4.6095,-4.6105,-4.6132,-4.6185,-4.6212,-4.6208,-4.6203,-4.6209,-4.6216,-4.6196,-4.6196,-4.6203,-4.6209,-4.6203,-4.6209,-4.6206,-4.6206,-4.6206,-4.6206,-4.6197,-4.6065,-4.585,-4.5863,-4.5753,-4.5539,-4.5489,-4.5495,-4.5419,-4.4333,-4.3729,-4.3749,-4.3707,-4.3707,-4.3707,-4.3707,-4.3707,-4.3704,-4.37,-4.3704,-4.3704,-4.3743,-4.3782,-4.3723,-4.3743,-4.3704,-4.3704,-4.3762,-4.4036,-4.4465,-4.4602,-4.4777,-4.5343,-4.55,-4.5187,-4.466,-4.4602,-4.4836,-4.5187,-4.4933,-4.4348,-4.3801,-4.3704,-4.3704,-4.3726,-4.3754,-4.3728,-4.3414,-4.3294,-4.312,-4.2908,-4.2695,-4.2578,-4.2164,-4.2056,-4.183,-4.1699,-4.1504,-4.1364,-4.128,-4.1222,-4.1124,-4.1114,-4.1077,-4.0882,-4.0665,-4.0255,-3.99,-3.9423,-3.8892,-3.8349,-3.7917,-3.7457,-3.7121,-3.6832,-3.6598,-3.636,-4.58,-4.58,-4.58,-4.58,-4.58,-4.58,-4.58,-4.58,-4.58,-4.58,-4.5814,-4.5861,-4.5898,-4.591,-4.5975,-4.5997,-4.5977,-4.5977,-4.6007,-4.6066,-4.6076,-4.6123,-4.6158,-4.6193,-4.6208,-4.6215,-4.6196,-4.6196,-4.6196,-4.6196,-4.6203,-4.6209,-4.6203,-4.6209,-4.6209,-4.6209,-4.6209,-4.6209,-4.6209,-4.6209,-4.6195,-4.6231,-4.6264,-4.6261,-4.628,-4.63,-4.6206,-4.5213,-4.4665,-4.4661,-4.4679,-4.4655,-4.4667,-4.4703,-4.4683,-4.466,-4.466,-4.4699,-4.466,-4.4758,-4.466,-4.468,-4.466,-4.468,-4.468,-4.466,-4.4953,-4.5363,-4.548,-4.5714,-4.6163,-4.628,-4.6027,-4.5558,-4.548,-4.5734,-4.6124,-4.5831,-4.5347,-4.4881,-4.4745,-4.465,-4.4657,-4.4666,-4.4492,-4.4301,-4.4195,-4.3957,-4.383,-4.3654,-4.3303,-4.3046,-4.2936,-4.2635,-4.2229,-4.1956,-4.1679,-4.1503,-4.1367,-4.1211,-4.1117,-4.1117,-4.1,-4.0941,-4.0649,-4.059,-4.0188,-3.954,-3.8974,-3.859,-3.8307,-3.7927,-3.7581,-3.6976,-3.6699,-4.58,-4.58,-4.58,-4.58,-4.58,-4.58,-4.58,-4.58,-4.58,-4.5814,-4.5827,-4.5861,-4.5917,-4.591,-4.5975,-4.5977,-4.5977,-4.5977,-4.5977,-4.6026,-4.6066,-4.6095,-4.6102,-4.6174,-4.6208,-4.6196,-4.6196,-4.6196,-4.6196,-4.6196,-4.6196,-4.6203,-4.6196,-4.6196,-4.6203,-4.6203,-4.6203,-4.6203,-4.6203,-4.6203,-4.6203,-4.6203,-4.6209,-4.6214,-4.6253,-4.6292,-4.6238,-4.6092,-4.6124,-4.6249,-4.6074,-4.6034,-4.6215,-4.6264,-4.6111,-4.6056,-4.6245,-4.6128,-4.6206,-4.5994,-4.6036,-4.6017,-4.5994,-4.628,-4.6046,-4.5948,-4.5987,-4.6124,-4.6163,-4.6222,-4.628,-4.63,-4.6261,-4.6284,-4.6147,-4.6222,-4.6284,-4.6264,-4.6056,-4.6104,-4.6256,-4.6256,-4.6055,-4.6067,-4.5729,-4.5316,-4.5073,-4.4754,-4.438,-4.4278,-4.3953,-4.3807,-4.3748,-4.3397,-4.2988,-4.269,-4.2437,-4.227,-4.193,-4.1466,-4.1178,-4.11,-4.1091,-4.1033,-4.1013,-4.1013,-4.0833,-4.0164,-3.9847,-3.97,-3.9316,-3.8795,-3.8288,-3.7751,-3.7141,-4.58,-4.58,-4.58,-4.58,-4.58,-4.58,-4.58,-4.58,-4.58,-4.5827,-4.5874,-4.5893,-4.5937,-4.5972,-4.5986,-4.5977,-4.5977,-4.5977,-4.5977,-4.5977,-4.6026,-4.6056,-4.6093,-4.6166,-4.6201,-4.6196,-4.6196,-4.6196,-4.6196,-4.6196,-4.6196,-4.6196,-4.6196,-4.6196,-4.6196,-4.6196,-4.6196,-4.6196,-4.6196,-4.6196,-4.6196,-4.6196,-4.6203,-4.6203,-4.6228,-4.624,-4.6236,-4.6234,-4.6251,-4.6303,-4.6297,-4.6303,-4.6288,-4.6307,-4.6307,-4.6307,-4.6307,-4.6301,-4.6293,-4.6301,-4.6306,-4.6306,-4.6301,-4.6293,-4.63,-4.63,-4.63,-4.63,-4.63,-4.6303,-4.6303,-4.6303,-4.6306,-4.6295,-4.6293,-4.629,-4.6295,-4.629,-4.629,-4.6287,-4.6288,-4.6305,-4.6303,-4.6276,-4.6202,-4.5961,-4.5839,-4.5772,-4.5299,-4.5221,-4.5075,-4.4694,-4.4493,-4.4136,-4.3779,-4.3481,-4.326,-4.313,-4.2611,-4.1805,-4.1426,-4.1086,-4.1056,-4.1006,-4.1006,-4.1006,-4.0994,-4.0695,-4.065,-4.05,-4.0059,-3.9435,-3.9156,-3.8695,-3.7877,-4.6123,-4.58,-4.58,-4.58,-4.58,-4.58,-4.58,-4.5814,-4.5827,-4.586,-4.5906,-4.5925,-4.596,-4.6003,-4.5986,-4.5977,-4.5977,-4.5977,-4.5977,-4.5977,-4.5997,-4.6047,-4.6104,-4.6169,-4.6212,-4.6208,-4.6215,-4.6196,-4.6196,-4.6196,-4.6196,-4.6196,-4.6196,-4.6196,-4.6196,-4.6196,-4.6196,-4.6196,-4.6196,-4.6196,-4.6196,-4.6196,-4.6196,-4.6196,-4.6196,-4.6209,-4.6201,-4.6197,-4.6234,-4.629,-4.6306,-4.629,-4.6301,-4.6303,-4.6303,-4.6303,-4.6303,-4.6289,-4.6306,-4.6289,-4.6287,-4.6306,-4.6289,-4.6288,-4.6305,-4.6301,-4.63,-4.63,-4.63,-4.63,-4.63,-4.63,-4.6301,-4.6306,-4.6306,-4.6305,-4.6307,-4.6306,-4.6288,-4.6287,-4.6297,-4.63,-4.629,-4.6296,-4.6288,-4.6236,-4.6158,-4.6147,-4.6064,-4.6162,-4.6053,-4.5553,-4.5299,-4.5051,-4.472,-4.4421,-4.4024,-4.3884,-4.3397,-4.2537,-4.1733,-4.1266,-4.1065,-4.1032,-4.1006,-4.0986,-4.0972,-4.0972,-4.0914,-4.068,-4.0392,-4.0229,-3.9968,-3.9524,-3.8708,-4.6781,-4.6071,-4.6071,-4.6013,-4.5974,-4.5935,-4.5935,-4.5814,-4.586,-4.5893,-4.5919,-4.5968,-4.5991,-4.5983,-4.5986,-4.5977,-4.5977,-4.5977,-4.5977,-4.5977,-4.6007,-4.6037,-4.6095,-4.6141,-4.6177,-4.6193,-4.6208,-4.6215,-4.6196,-4.6196,-4.6196,-4.6196,-4.6196,-4.6196,-4.6196,-4.6196,-4.6196,-4.6196,-4.6196,-4.6196,-4.6196,-4.6196,-4.6196,-4.6196,-4.6196,-4.6203,-4.6203,-4.6209,-4.6206,-4.6292,-4.6296,-4.6277,-4.628,-4.6284,-4.6277,-4.6277,-4.6277,-4.627,-4.6286,-4.6284,-4.6295,-4.629,-4.63,-4.6305,-4.6306,-4.6288,-4.6289,-4.6289,-4.6289,-4.6289,-4.6288,-4.6288,-4.6288,-4.6268,-4.6285,-4.6284,-4.6286,-4.6303,-4.6297,-4.6297,-4.6284,-4.6292,-4.6299,-4.6294,-4.627,-4.6234,-4.6209,-4.6177,-4.6164,-4.6157,-4.613,-4.5998,-4.5924,-4.6016,-4.5685,-4.5365,-4.4928,-4.4588,-4.4103,-4.3335,-4.2196,-4.1621,-4.1241,-4.1057,-4.0971,-4.0952,-4.0943,-4.0952,-4.0952,-4.0913,-4.0634,-4.076,-4.0799,-4.0228,-3.95,-4.8005,-4.785,-4.7831,-4.7444,-4.6883,-4.6806,-4.6438,-4.5852,-4.5899,-4.5958,-4.5925,-4.5968,-4.6003,-4.5986,-4.5997,-4.5977,-4.5977,-4.5977,-4.5977,-4.5977,-4.5977,-4.6007,-4.6037,-4.6085,-4.6152,-4.6197,-4.6212,-4.6201,-4.6215,-4.6196,-4.6196,-4.6196,-4.6196,-4.6196,-4.6196,-4.6196,-4.6196,-4.6196,-4.6196,-4.6196,-4.6196,-4.6196,-4.6196,-4.6196,-4.6196,-4.6203,-4.6203,-4.6203,-4.6209,-4.6222,-4.624,-4.6236,-4.6234,-4.6241,-4.6225,-4.622,-4.6248,-4.6231,-4.6241,-4.6241,-4.6249,-4.63,-4.6284,-4.6287,-4.629,-4.629,-4.6293,-4.6293,-4.629,-4.629,-4.628,-4.6253,-4.6241,-4.6228,-4.6238,-4.6221,-4.623,-4.6269,-4.6264,-4.6236,-4.6231,-4.6226,-4.6226,-4.6215,-4.6209,-4.619,-4.6176,-4.6123,-4.6127,-4.613,-4.6113,-4.6093,-4.6066,-4.6056,-4.5949,-4.5667,-4.5424,-4.5142,-4.4743,-4.4208,-4.3073,-4.2325,-4.2044,-4.151,-4.0927,-4.0927,-4.0995,-4.0859,-4.0869,-4.0859,-4.0859,-4.0859,-4.0801,-4.0489,-4.0324,-4.8783,-4.8411,-4.8411,-4.814,-4.7753,-4.7695,-4.7245,-4.6577,-4.6487,-4.6293,-4.6007,-4.5991,-4.5994,-4.5997,-4.5977,-4.5977,-4.5977,-4.5977,-4.5977,-4.5977,-4.5977,-4.5977,-4.5977,-4.6037,-4.6085,-4.6152,-4.6149,-4.6158,-4.6154,-4.6181,-4.6201,-4.6208,-4.6215,-4.6196,-4.6196,-4.6196,-4.6196,-4.6196,-4.6196,-4.6196,-4.6196,-4.6196,-4.6196,-4.6196,-4.6196,-4.6196,-4.6196,-4.6196,-4.6196,-4.6203,-4.6209,-4.6203,-4.6206,-4.6201,-4.6211,-4.6203,-4.6203,-4.6203,-4.6211,-4.6197,-4.6211,-4.627,-4.626,-4.6245,-4.6249,-4.6245,-4.6264,-4.6245,-4.6245,-4.624,-4.625,-4.622,-4.6211,-4.6201,-4.6201,-4.6183,-4.6164,-4.622,-4.624,-4.6215,-4.6209,-4.6183,-4.6177,-4.617,-4.6157,-4.6154,-4.6146,-4.6091,-4.6074,-4.6095,-4.6066,-4.6026,-4.6025,-4.6003,-4.5983,-4.5867,-4.5747,-4.5572,-4.5398,-4.4863,-4.4067,-4.3477,-4.2994,-4.2255,-4.1488,-4.108,-4.108,-4.0942,-4.0865,-4.0818,-4.0828,-4.0807,-4.0768,-4.0652,-4.0563,-4.9459,-4.8778,-4.8778,-4.872,-4.8604,-4.86,-4.813,-4.7442,-4.7249,-4.6802,-4.6244,-4.6102,-4.5997,-4.5977,-4.5977,-4.5977,-4.5977,-4.5977,-4.5977,-4.5977,-4.5977,-4.5977,-4.5977,-4.6007,-4.6037,-4.6076,-4.6095,-4.6093,-4.6122,-4.6158,-4.6185,-4.6212,-4.6208,-4.6196,-4.6196,-4.6196,-4.6196,-4.6196,-4.6196,-4.6196,-4.6196,-4.6196,-4.6196,-4.6196,-4.6196,-4.6196,-4.6196,-4.6196,-4.6196,-4.6196,-4.6196,-4.6196,-4.6203,-4.6203,-4.6195,-4.6203,-4.6209,-4.6216,-4.6215,-4.6195,-4.6209,-4.6203,-4.6209,-4.6206,-4.6206,-4.6206,-4.6226,-4.6201,-4.6181,-4.6195,-4.6195,-4.6177,-4.6183,-4.6189,-4.619,-4.615,-4.613,-4.6157,-4.6177,-4.619,-4.6164,-4.615,-4.6135,-4.6127,-4.6111,-4.6113,-4.6084,-4.6075,-4.6056,-4.6026,-4.6005,-4.5994,-4.596,-4.5956,-4.5937,-4.5917,-4.5828,-4.5776,-4.5738,-4.5408,-4.4911,-4.464,-4.3993,-4.2881,-4.2152,-4.1803,-4.1443,-4.1315,-4.118,-4.0951,-4.0804,-4.0792,-4.0812,-4.0812,-4.0742,-5.06,-5.05,-5.05,-5.0113,-4.9533,-4.948,-4.903,-4.823,-4.7643,-4.7222,-4.6981,-4.6335,-4.6055,-4.5977,-4.5977,-4.5977,-4.5977,-4.5977,-4.5977,-4.5977,-4.5977,-4.5977,-4.5977,-4.5997,-4.6026,-4.6037,-4.6056,-4.6095,-4.6104,-4.6122,-4.6149,-4.6185,-4.6189,-4.6196,-4.6196,-4.6196,-4.6189,-4.6189,-4.6196,-4.6215,-4.6196,-4.6196,-4.6196,-4.6196,-4.6196,-4.6196,-4.6196,-4.6196,-4.6196,-4.6196,-4.6196,-4.6196,-4.6196,-4.6203,-4.6209,-4.6209,-4.6203,-4.6203,-4.6209,-4.6209,-4.6203,-4.6203,-4.6196,-4.6215,-4.6195,-4.6195,-4.6203,-4.6177,-4.6164,-4.6123,-4.6123,-4.6135,-4.6099,-4.6119,-4.6111,-4.6093,-4.6114,-4.6104,-4.6099,-4.6111,-4.6091,-4.6111,-4.6093,-4.6075,-4.6066,-4.6047,-4.6026,-4.6016,-4.6005,-4.5983,-4.5929,-4.5917,-4.5917,-4.5912,-4.5919,-4.5887,-4.5848,-4.5802,-4.5783,-4.5783,-4.5498,-4.5595,-4.4995,-4.3918,-4.3124,-4.2698,-4.2337,-4.1879,-4.1466,-4.1195,-4.1021,-4.0815,-4.0796,-4.0808,-4.0796,-5.0906,-5.0906,-5.0906,-5.0709,-5.0414,-5.0385,-4.991,-4.9181,-4.8754,-4.8099,-4.7373,-4.6851,-4.6396,-4.6104,-4.5977,-4.5977,-4.5977,-4.5977,-4.5977,-4.5977,-4.5977,-4.5977,-4.5977,-4.5977,-4.5977,-4.6007,-4.6037,-4.6047,-4.6056,-4.6095,-4.6123,-4.6141,-4.6154,-4.615,-4.6135,-4.6146,-4.6146,-4.6146,-4.6181,-4.6208,-4.6196,-4.6196,-4.6196,-4.6196,-4.6196,-4.6215,-4.6201,-4.6201,-4.6189,-4.615,-4.6142,-4.6154,-4.6135,-4.615,-4.6176,-4.6196,-4.6196,-4.6196,-4.6215,-4.6208,-4.6181,-4.6146,-4.6162,-4.6169,-4.6157,-4.615,-4.6169,-4.6142,-4.6154,-4.6111,-4.6111,-4.6113,-4.6084,-4.6065,-4.6047,-4.6026,-4.6014,-4.5986,-4.5997,-4.6017,-4.6056,-4.6066,-4.6037,-4.6046,-4.6025,-4.5994,-4.5972,-4.596,-4.5949,-4.5925,-4.588,-4.588,-4.588,-4.5867,-4.586,-4.586,-4.586,-4.5814,-4.58,-4.58,-4.58,-4.5794,-4.5601,-4.4976,-4.4337,-4.3666,-4.2931,-4.237,-4.1912,-4.1467,-4.119,-4.0977,-4.0861,-4.079,-4.0778,-5.0906,-5.0906,-5.0906,-5.0941,-5.1005,-5.1,-5.0655,-5.0112,-4.9846,-4.9062,-4.7939,-4.762,-4.7076,-4.6385,-4.6074,-4.5977,-4.5977,-4.5977,-4.5977,-4.5977,-4.5977,-4.5977,-4.5977,-4.5977,-4.5977,-4.5997,-4.6007,-4.5977,-4.6026,-4.6066,-4.6076,-4.6114,-4.6119,-4.6107,-4.6122,-4.6113,-4.6104,-4.6122,-4.613,-4.6193,-4.6189,-4.6176,-4.6196,-4.6189,-4.6169,-4.6174,-4.6185,-4.6166,-4.6146,-4.6115,-4.6119,-4.6113,-4.6113,-4.6107,-4.615,-4.6169,-4.6169,-4.6189,-4.6176,-4.6174,-4.6158,-4.6123,-4.6113,-4.6122,-4.6122,-4.6111,-4.6102,-4.6065,-4.6075,-4.6095,-4.6066,-4.6047,-4.6037,-4.5998,-4.5977,-4.596,-4.5937,-4.5917,-4.591,-4.5964,-4.6035,-4.6005,-4.5983,-4.5983,-4.5972,-4.596,-4.5917,-4.5925,-4.5912,-4.5887,-4.5841,-4.5841,-4.5841,-4.5827,-4.5814,-4.5833,-4.5814,-4.5814,-4.58,-4.58,-4.58,-4.58,-4.562,-4.5465,-4.5253,-4.4543,-4.3711,-4.3053,-4.2802,-4.2376,-4.1583,-4.1216,-4.1293,-4.0991,-4.0746,-5.0906,-5.0906,-5.0906,-5.0941,-5.1005,-5.1053,-5.1037,-5.0843,-5.0219,-4.9823,-4.9318,-4.8708,-4.7872,-4.6987,-4.6249,-4.6016,-4.5977,-4.5977,-4.5977,-4.5977,-4.5977,-4.5977,-4.5977,-4.5977,-4.5977,-4.5977,-4.5977,-4.5977,-4.6007,-4.6007,-4.6056,-4.6095,-4.6095,-4.6115,-4.6104,-4.6095,-4.6115,-4.6104,-4.6113,-4.6119,-4.6111,-4.6111,-4.6115,-4.6111,-4.6102,-4.6122,-4.6141,-4.6122,-4.6102,-4.6102,-4.6102,-4.6095,-4.6105,-4.6114,-4.6122,-4.6122,-4.6111,-4.6119,-4.6103,-4.6127,-4.6132,-4.6095,-4.6095,-4.6095,-4.6104,-4.6085,-4.6076,-4.6007,-4.6016,-4.6005,-4.5994,-4.5953,-4.5925,-4.5936,-4.5914,-4.5912,-4.5893,-4.5887,-4.588,-4.5873,-4.5929,-4.5929,-4.5898,-4.5898,-4.5917,-4.5905,-4.5912,-4.5899,-4.5874,-4.586,-4.5827,-4.5827,-4.5814,-4.5814,-4.58,-4.58,-4.58,-4.58,-4.58,-4.58,-4.58,-4.58,-4.58,-4.5664,-4.5529,-4.5336,-4.4601,-4.4078,-4.3846,-4.3247,-4.2454,-4.2086,-4.1874,-4.1435,-4.0926,-5.0906,-5.0906,-5.0937,-5.1005,-5.1053,-5.1095,-5.1134,-5.1081,-5.0802,-5.0348,-4.9784,-4.8988,-4.7861,-4.6754,-4.6113,-4.5997,-4.5977,-4.5977,-4.5977,-4.5977,-4.5977,-4.5977,-4.5977,-4.5977,-4.5977,-4.5977,-4.5977,-4.5977,-4.5977,-4.5977,-4.6007,-4.6037,-4.6046,-4.6056,-4.6056,-4.6056,-4.6037,-4.6047,-4.6095,-4.6123,-4.6111,-4.6102,-4.6114,-4.6115,-4.6115,-4.6105,-4.6114,-4.6114,-4.6085,-4.6056,-4.6056,-4.6047,-4.6046,-4.6047,-4.6037,-4.6037,-4.6037,-4.6066,-4.6084,-4.6104,-4.6076,-4.6056,-4.6037,-4.6047,-4.6047,-4.6056,-4.6035,-4.5994,-4.5953,-4.5929,-4.5949,-4.5917,-4.591,-4.591,-4.5886,-4.5867,-4.5866,-4.5847,-4.5841,-4.5835,-4.5835,-4.5848,-4.5848,-4.588,-4.5867,-4.5854,-4.5854,-4.586,-4.5847,-4.5814,-4.5814,-4.5814,-4.5814,-4.58,-4.58,-4.58,-4.58,-4.58,-4.58,-4.58,-4.58,-4.58,-4.58,-4.58,-4.5703,-4.549,-4.522,-4.4852,-4.4369,-4.3866,-4.3324,-4.3015,-4.2667,-4.1983,-4.144,-5.0906,-5.0941,-5.0971,-5.1034,-5.1095,-5.1082,-5.1139,-5.1202,-5.1183,-5.0697,-4.9765,-4.8755,-4.7492,-4.6502,-4.6152,-4.5977,-4.5977,-4.5977,-4.5977,-4.5977,-4.5977,-4.5977,-4.5977,-4.5977,-4.5977,-4.5977,-4.5977,-4.5977,-4.5977,-4.5977,-4.5977,-4.5977,-4.6007,-4.6007,-4.5997,-4.6007,-4.6007,-4.6007,-4.6046,-4.6066,-4.6066,-4.6066,-4.6075,-4.6085,-4.6085,-4.6065,-4.6066,-4.6066,-4.6037,-4.6026,-4.6007,-4.6007,-4.6007,-4.6007,-4.6007,-4.6007,-4.6007,-4.6026,-4.6056,-4.6066,-4.6056,-4.6026,-4.5997,-4.6007,-4.5986,-4.5983,-4.5972,-4.5972,-4.5937,-4.5905,-4.5893,-4.5893,-4.5861,-4.5867,-4.5867,-4.5827,-4.5814,-4.5814,-4.5827,-4.5827,-4.5827,-4.5814,-4.5827,-4.586,-4.5847,-4.5814,-4.58,-4.58,-4.58,-4.58,-4.58,-4.58,-4.58,-4.58,-4.58,-4.58,-4.58,-4.58,-4.58,-4.58,-4.58,-4.58,-4.58,-4.58,-4.58,-4.5722,-4.551,-4.5181,-4.4891,-4.4601,-4.4272,-4.3866,-4.3388,-4.2665,-4.1972,-5.0941,-5.0986,-5.0986,-5.1029,-5.1095,-5.1095,-5.1139,-5.1202,-5.1183,-5.06,-4.9473,-4.823,-4.7376,-4.6948,-4.6288,-4.5977,-4.5977,-4.5977,-4.5977,-4.5977,-4.5977,-4.5977,-4.5977,-4.5977,-4.5977,-4.5977,-4.5977,-4.5977,-4.5977,-4.5977,-4.5977,-4.5977,-4.5977,-4.5977,-4.5977,-4.5977,-4.5977,-4.5977,-4.6016,-4.5997,-4.6017,-4.6007,-4.6007,-4.5997,-4.5997,-4.6007,-4.6026,-4.6026,-4.6007,-4.5977,-4.5977,-4.5977,-4.5977,-4.5977,-4.5977,-4.5977,-4.5977,-4.5997,-4.6026,-4.6026,-4.6007,-4.5997,-4.5997,-4.5986,-4.5994,-4.6003,-4.596,-4.5917,-4.588,-4.5887,-4.5874,-4.586,-4.5827,-4.5827,-4.5847,-4.5827,-4.5814,-4.5814,-4.5814,-4.58,-4.58,-4.58,-4.58,-4.5833,-4.5847,-4.58,-4.58,-4.58,-4.58,-4.58,-4.58,-4.58,-4.58,-4.58,-4.58,-4.58,-4.58,-4.58,-4.58,-4.58,-4.58,-4.58,-4.58,-4.58,-4.58,-4.58,-4.58,-4.5529,-4.5355,-4.5432,-4.5181,-4.4606,-4.3993,-4.3294,-4.2598,-5.0986,-5.1067,-5.1062,-5.1069,-5.1095,-5.1139,-5.119,-5.1086,-5.0619,-4.959,-4.8308,-4.7589,-4.7007,-4.6521,-4.6249,-4.5977,-4.5977,-4.5977,-4.5977,-4.5977,-4.5977,-4.5977,-4.5977,-4.5977,-4.5977,-4.5977,-4.5977,-4.5977,-4.5977,-4.5977,-4.5977,-4.5977,-4.5977,-4.5977,-4.5977,-4.5977,-4.5977,-4.5977,-4.5977,-4.5977,-4.5977,-4.5977,-4.5977,-4.5977,-4.5977,-4.5977,-4.5997,-4.5997,-4.5997,-4.5977,-4.5977,-4.5977,-4.5977,-4.5977,-4.5977,-4.5977,-4.5977,-4.5977,-4.5977,-4.5977,-4.5977,-4.5977,-4.5997,-4.5986,-4.5991,-4.596,-4.5937,-4.588,-4.5874,-4.5847,-4.5847,-4.5833,-4.5814,-4.58,-4.58,-4.58,-4.58,-4.58,-4.58,-4.58,-4.58,-4.58,-4.58,-4.58,-4.58,-4.58,-4.58,-4.58,-4.58,-4.58,-4.58,-4.58,-4.58,-4.58,-4.58,-4.58,-4.58,-4.58,-4.58,-4.58,-4.58,-4.58,-4.58,-4.58,-4.58,-4.58,-4.58,-4.58,-4.5742,-4.5664,-4.549,-4.5186,-4.4539,-4.3897,-4.3297,-5.0278,-5.0319,-5.0326,-5.0487,-5.0732,-5.0802,-5.0658,-5.0348,-4.9765,-4.8716,-4.7298,-4.7045,-4.6618,-4.6113,-4.5977,-4.5977,-4.5977,-4.5977,-4.5977,-4.5977,-4.5977,-4.5977,-4.5977,-4.5977,-4.5977,-4.5977,-4.5977,-4.5977,-4.5977,-4.5977,-4.5977,-4.5977,-4.5977,-4.5977,-4.5977,-4.5977,-4.5977,-4.5977,-4.5977,-4.5977,-4.5977,-4.5977,-4.5977,-4.5977,-4.5977,-4.5977,-4.5977,-4.5977,-4.5977,-4.5977,-4.5977,-4.5977,-4.5977,-4.5977,-4.5977,-4.5977,-4.5997,-4.5997,-4.5997,-4.5977,-4.5997,-4.5986,-4.5986,-4.5983,-4.598,-4.5925,-4.5899,-4.5841,-4.5814,-4.58,-4.58,-4.58,-4.58,-4.58,-4.58,-4.58,-4.58,-4.58,-4.58,-4.58,-4.58,-4.58,-4.58,-4.58,-4.58,-4.58,-4.58,-4.58,-4.58,-4.58,-4.58,-4.58,-4.58,-4.58,-4.58,-4.58,-4.58,-4.58,-4.58,-4.58,-4.58,-4.58,-4.58,-4.58,-4.58,-4.58,-4.58,-4.58,-4.58,-4.58,-4.5612,-4.5457,-4.5128,-4.4538,-4.4087,-4.8567,-4.8541,-4.8618,-4.9128,-4.9804,-4.992,-4.9493,-4.8949,-4.8677,-4.8094,-4.7143,-4.6463,-4.6133,-4.5977,-4.5977,-4.5977,-4.5977,-4.5977,-4.5977,-4.5977,-4.5977,-4.5977,-4.5977,-4.5977,-4.5977,-4.5977,-4.5977,-4.5977,-4.5977,-4.5977,-4.5977,-4.5977,-4.5977,-4.5977,-4.5977,-4.5977,-4.5977,-4.5977,-4.5977,-4.5977,-4.5977,-4.5977,-4.5977,-4.5977,-4.5977,-4.5977,-4.5977,-4.5977,-4.5977,-4.5977,-4.5977,-4.5977,-4.5977,-4.5977,-4.5977,-4.5977,-4.5997,-4.5997,-4.5997,-4.5997,-4.5975,-4.5983,-4.5983,-4.5968,-4.5919,-4.5893,-4.5893,-4.5847,-4.5814,-4.58,-4.58,-4.58,-4.58,-4.58,-4.58,-4.58,-4.58,-4.58,-4.58,-4.58,-4.58,-4.58,-4.58,-4.58,-4.58,-4.58,-4.58,-4.58,-4.58,-4.58,-4.58,-4.58,-4.58,-4.58,-4.58,-4.58,-4.58,-4.58,-4.58,-4.58,-4.58,-4.58,-4.58,-4.58,-4.58,-4.58,-4.58,-4.58,-4.58,-4.58,-4.5819,-4.5655,-4.5437,-4.5198,-4.4746,-4.8503,-4.856,-4.8577,-4.8413,-4.8289,-4.8813,-4.8832,-4.8522,-4.7978,-4.7259,-4.6521,-4.6055,-4.5977,-4.5977,-4.5977,-4.5977,-4.5977,-4.5977,-4.5977,-4.5977,-4.5977,-4.5977,-4.5977,-4.5977,-4.5977,-4.5977,-4.5977,-4.5977,-4.5977,-4.5977,-4.5977,-4.5977,-4.5977,-4.5977,-4.5977,-4.5977,-4.5977,-4.5977,-4.5977,-4.5977,-4.5977,-4.5977,-4.5977,-4.5977,-4.5977,-4.5977,-4.5977,-4.5977,-4.5977,-4.5977,-4.5977,-4.5977,-4.5977,-4.5977,-4.5977,-4.5986,-4.5994,-4.598,-4.5949,-4.5937,-4.5932,-4.5944,-4.5949,-4.5944,-4.5906,-4.5893,-4.588,-4.5833,-4.58,-4.58,-4.58,-4.58,-4.58,-4.58,-4.58,-4.58,-4.58,-4.58,-4.58,-4.58,-4.58,-4.58,-4.58,-4.58,-4.58,-4.58,-4.58,-4.58,-4.58,-4.58,-4.58,-4.58,-4.58,-4.58,-4.58,-4.58,-4.58,-4.58,-4.58,-4.58,-4.58,-4.58,-4.58,-4.58,-4.58,-4.58,-4.58,-4.58,-4.58,-4.58,-4.5805,-4.5776,-4.5596,-4.551,-4.5404,-4.7668,-4.7691,-4.7695,-4.7395,-4.7026,-4.7784,-4.7997,-4.7648,-4.7104,-4.6521,-4.6074,-4.5997,-4.5977,-4.5977,-4.5977,-4.5977,-4.5977,-4.5977,-4.5977,-4.5977,-4.5977,-4.5977,-4.5977,-4.5977,-4.5977,-4.5977,-4.5977,-4.5977,-4.5977,-4.5977,-4.5977,-4.5977,-4.5977,-4.5977,-4.5977,-4.5977,-4.5977,-4.5977,-4.5977,-4.5977,-4.5977,-4.5977,-4.5977,-4.5977,-4.5977,-4.5977,-4.5977,-4.5977,-4.5977,-4.5977,-4.5977,-4.5997,-4.5997,-4.5977,-4.5977,-4.5986,-4.5968,-4.5951,-4.5919,-4.5874,-4.5874,-4.5867,-4.588,-4.5899,-4.5874,-4.586,-4.5847,-4.5814,-4.58,-4.58,-4.58,-4.58,-4.58,-4.58,-4.58,-4.58,-4.58,-4.58,-4.58,-4.58,-4.58,-4.58,-4.58,-4.58,-4.58,-4.58,-4.58,-4.58,-4.58,-4.58,-4.58,-4.58,-4.58,-4.58,-4.58,-4.58,-4.58,-4.58,-4.58,-4.58,-4.58,-4.58,-4.58,-4.58,-4.58,-4.58,-4.58,-4.58,-4.5819,-4.5791,-4.5761,-4.5746,-4.5696,-4.5668,-4.5657,-4.6014,-4.5997,-4.5997,-4.6055,-4.6171,-4.6948,-4.6812,-4.6074,-4.6035,-4.6035,-4.5977,-4.5977,-4.5977,-4.5977,-4.5977,-4.5977,-4.5977,-4.5977,-4.5977,-4.5977,-4.5977,-4.5977,-4.5977,-4.5977,-4.5977,-4.5977,-4.5977,-4.5977,-4.5977,-4.5977,-4.5977,-4.5977,-4.5977,-4.5977,-4.5977,-4.5977,-4.5977,-4.5977,-4.5977,-4.5977,-4.5977,-4.5977,-4.5977,-4.5977,-4.5977,-4.5977,-4.5977,-4.5977,-4.5977,-4.5977,-4.5977,-4.5997,-4.5997,-4.5977,-4.5977,-4.5964,-4.5925,-4.5893,-4.588,-4.5833,-4.5833,-4.5827,-4.586,-4.5847,-4.5847,-4.5833,-4.5814,-4.5814,-4.58,-4.58,-4.58,-4.58,-4.58,-4.58,-4.58,-4.58,-4.58,-4.58,-4.58,-4.58,-4.58,-4.58,-4.58,-4.58,-4.58,-4.58,-4.58,-4.58,-4.58,-4.58,-4.58,-4.58,-4.58,-4.58,-4.58,-4.58,-4.58,-4.58,-4.58,-4.58,-4.58,-4.58,-4.58,-4.58,-4.58,-4.58,-4.58,-4.5819,-4.5805,-4.5776,-4.5746,-4.5715,-4.5684,-4.5671,-4.5657,-4.5994,-4.5997,-4.5977,-4.5977,-4.6016,-4.6268,-4.621,-4.6016,-4.5977,-4.5977,-4.5977,-4.5977,-4.5977,-4.5977,-4.5977,-4.5977,-4.5977,-4.5977,-4.5977,-4.5977,-4.5977,-4.5977,-4.5977,-4.5977,-4.5977,-4.5977,-4.5977,-4.5977,-4.5977,-4.5977,-4.5977,-4.5977,-4.5977,-4.5977,-4.5977,-4.5977,-4.5977,-4.5977,-4.5977,-4.5977,-4.5977,-4.5977,-4.5977,-4.5977,-4.5977,-4.5977,-4.5977,-4.5977,-4.5977,-4.5977,-4.5977,-4.5997,-4.5994,-4.5986,-4.5986,-4.5919,-4.5866,-4.5814,-4.5833,-4.5814,-4.58,-4.58,-4.5833,-4.5814,-4.5814,-4.58,-4.58,-4.58,-4.58,-4.58,-4.58,-4.58,-4.58,-4.58,-4.58,-4.58,-4.58,-4.58,-4.58,-4.58,-4.58,-4.58,-4.58,-4.58,-4.58,-4.58,-4.58,-4.58,-4.58,-4.58,-4.58,-4.58,-4.58,-4.58,-4.58,-4.58,-4.58,-4.58,-4.58,-4.58,-4.58,-4.58,-4.58,-4.58,-4.58,-4.58,-4.58,-4.5805,-4.581,-4.5781,-4.5735,-4.5703,-4.5671,-4.5657,-4.564,-4.5986,-4.5997,-4.5977,-4.5977,-4.5977,-4.5977,-4.5977,-4.5977,-4.5977,-4.5977,-4.5977,-4.5977,-4.5977,-4.5977,-4.5977,-4.5977,-4.5977,-4.5977,-4.5977,-4.5977,-4.5977,-4.5977,-4.5977,-4.5977,-4.5977,-4.5977,-4.5977,-4.5977,-4.5977,-4.5977,-4.5977,-4.5977,-4.5977,-4.5977,-4.5977,-4.5977,-4.5977,-4.5977,-4.5977,-4.5977,-4.5977,-4.5977,-4.5977,-4.5977,-4.5977,-4.5977,-4.5977,-4.5977,-4.5977,-4.5997,-4.5997,-4.5994,-4.5991,-4.5972,-4.5929,-4.5866,-4.5833,-4.58,-4.5814,-4.58,-4.58,-4.58,-4.58,-4.58,-4.58,-4.58,-4.58,-4.58,-4.58,-4.58,-4.58,-4.58,-4.58,-4.58,-4.58,-4.58,-4.58,-4.58,-4.58,-4.58,-4.58,-4.58,-4.58,-4.58,-4.58,-4.58,-4.58,-4.58,-4.58,-4.58,-4.58,-4.58,-4.58,-4.58,-4.58,-4.58,-4.58,-4.58,-4.58,-4.58,-4.58,-4.58,-4.58,-4.58,-4.58,-4.5819,-4.5805,-4.581,-4.58,-4.577,-4.5722,-4.569,-4.5637,-4.562,-4.5603,-4.5977,-4.5977,-4.5977,-4.5977,-4.5977,-4.5977,-4.5977,-4.5977,-4.5977,-4.5977,-4.5977,-4.5977,-4.5977,-4.5977,-4.5977,-4.5977,-4.5977,-4.5977,-4.5977,-4.5977,-4.5977,-4.5977,-4.5977,-4.5977,-4.5977,-4.5977,-4.5977,-4.5977,-4.5977,-4.5977,-4.5977,-4.5977,-4.5977,-4.5977,-4.5977,-4.5977,-4.5977,-4.5977,-4.5977,-4.5977,-4.5977,-4.5977,-4.5977,-4.5977,-4.5977,-4.5977,-4.5977,-4.5977,-4.5977,-4.5997,-4.5994,-4.5991,-4.598,-4.5925,-4.5867,-4.5841,-4.58,-4.58,-4.58,-4.58,-4.58,-4.58,-4.58,-4.58,-4.58,-4.58,-4.58,-4.58,-4.58,-4.58,-4.58,-4.58,-4.58,-4.58,-4.58,-4.58,-4.58,-4.58,-4.58,-4.58,-4.58,-4.58,-4.58,-4.58,-4.58,-4.58,-4.58,-4.58,-4.58,-4.58,-4.58,-4.58,-4.58,-4.58,-4.58,-4.58,-4.58,-4.58,-4.58,-4.58,-4.58,-4.58,-4.58,-4.58,-4.5819,-4.581,-4.5795,-4.5785,-4.5754,-4.5706,-4.5673,-4.564,-4.5603,-4.5568,-4.5586,-4.5977,-4.5977,-4.5977,-4.5977,-4.5977,-4.5977,-4.5977,-4.5977,-4.5977,-4.5977,-4.5977,-4.5977,-4.5977,-4.5977,-4.5977,-4.5977,-4.5977,-4.5977,-4.5977,-4.5977,-4.5977,-4.5977,-4.5977,-4.5977,-4.5977,-4.5977,-4.5977,-4.5977,-4.5977,-4.5977,-4.5977,-4.5977,-4.5977,-4.5977,-4.5977,-4.5977,-4.5977,-4.5977,-4.5977,-4.5977,-4.5977,-4.5977,-4.5977,-4.5977,-4.5977,-4.5997,-4.5997,-4.5997,-4.5997,-4.5997,-4.5994,-4.596,-4.5937,-4.5867,-4.5827,-4.5814,-4.58,-4.58,-4.58,-4.58,-4.58,-4.58,-4.58,-4.58,-4.58,-4.58,-4.58,-4.58,-4.58,-4.58,-4.58,-4.58,-4.58,-4.58,-4.58,-4.58,-4.58,-4.58,-4.58,-4.58,-4.58,-4.58,-4.58,-4.58,-4.58,-4.58,-4.58,-4.58,-4.58,-4.58,-4.58,-4.58,-4.58,-4.58,-4.58,-4.58,-4.58,-4.58,-4.58,-4.58,-4.58,-4.58,-4.58,-4.5819,-4.5805,-4.5795,-4.577,-4.5758,-4.5709,-4.564,-4.5605,-4.555,-4.5513,-4.5476,-4.5513,-4.5977,-4.5977,-4.5977,-4.5977,-4.5977,-4.5977,-4.5977,-4.5977,-4.5977,-4.5977,-4.5977,-4.5977,-4.5977,-4.5977,-4.5977,-4.5977,-4.5977,-4.5977,-4.5977,-4.5977,-4.5977,-4.5977,-4.5977,-4.5977,-4.5977,-4.5977,-4.5977,-4.5977,-4.5977,-4.5977,-4.5977,-4.5977,-4.5977,-4.5977,-4.5977,-4.5977,-4.5977,-4.5977,-4.5977,-4.5977,-4.5977,-4.5977,-4.5977,-4.5977,-4.5997,-4.5997,-4.5983,-4.5983,-4.5983,-4.5972,-4.5956,-4.5932,-4.5874,-4.5827,-4.5814,-4.58,-4.58,-4.58,-4.58,-4.58,-4.58,-4.58,-4.58,-4.58,-4.58,-4.58,-4.58,-4.58,-4.58,-4.58,-4.58,-4.58,-4.58,-4.58,-4.58,-4.58,-4.58,-4.58,-4.58,-4.58,-4.58,-4.58,-4.58,-4.58,-4.58,-4.58,-4.58,-4.58,-4.58,-4.58,-4.58,-4.58,-4.58,-4.58,-4.58,-4.58,-4.58,-4.58,-4.58,-4.58,-4.58,-4.58,-4.58,-4.5805,-4.5795,-4.577,-4.5758,-4.5673,-4.5603,-4.5513,-4.5495,-4.5457,-4.5419,-4.5381,-4.5438,-4.5977,-4.5977,-4.5977,-4.5977,-4.5977,-4.5977,-4.5977,-4.5977,-4.5977,-4.5977,-4.5977,-4.5977,-4.5977,-4.5977,-4.5977,-4.5977,-4.5977,-4.5977,-4.5977,-4.5977,-4.5977,-4.5977,-4.5977,-4.5977,-4.5977,-4.5977,-4.5977,-4.5977,-4.5977,-4.5977,-4.5977,-4.5977,-4.5977,-4.5977,-4.5977,-4.5977,-4.5977,-4.5977,-4.5977,-4.5977,-4.5977,-4.5977,-4.5977,-4.5977,-4.5997,-4.5983,-4.5987,-4.5983,-4.5944,-4.5932,-4.5906,-4.586,-4.5847,-4.5814,-4.5814,-4.58,-4.58,-4.58,-4.58,-4.58,-4.58,-4.58,-4.58,-4.58,-4.58,-4.58,-4.58,-4.58,-4.58,-4.58,-4.58,-4.58,-4.58,-4.58,-4.58,-4.58,-4.58,-4.58,-4.58,-4.58,-4.58,-4.58,-4.58,-4.58,-4.58,-4.58,-4.58,-4.58,-4.58,-4.58,-4.58,-4.58,-4.58,-4.58,-4.58,-4.58,-4.58,-4.58,-4.58,-4.58,-4.58,-4.5805,-4.5791,-4.5795,-4.5765,-4.5722,-4.5657,-4.5586,-4.5495,-4.5419,-4.538,-4.5341,-4.5301,-4.5281,-4.5321,-4.5977,-4.5977,-4.5977,-4.5977,-4.5977,-4.5977,-4.5977,-4.5977,-4.5977,-4.5977,-4.5977,-4.5977,-4.5977,-4.5977,-4.5977,-4.5977,-4.5977,-4.5977,-4.5977,-4.5977,-4.5977,-4.5977,-4.5977,-4.5977,-4.5977,-4.5977,-4.5977,-4.5977,-4.5977,-4.5977,-4.5977,-4.5977,-4.5977,-4.5977,-4.5977,-4.5977,-4.5977,-4.5977,-4.5977,-4.5977,-4.5977,-4.5977,-4.5977,-4.5977,-4.5997,-4.5983,-4.5976,-4.5932,-4.5912,-4.5893,-4.586,-4.5814,-4.58,-4.58,-4.58,-4.58,-4.58,-4.58,-4.58,-4.58,-4.58,-4.58,-4.58,-4.58,-4.58,-4.58,-4.58,-4.58,-4.58,-4.58,-4.58,-4.58,-4.58,-4.58,-4.58,-4.58,-4.58,-4.58,-4.58,-4.58,-4.58,-4.58,-4.58,-4.58,-4.58,-4.58,-4.58,-4.58,-4.58,-4.58,-4.58,-4.58,-4.58,-4.58,-4.58,-4.58,-4.58,-4.58,-4.58,-4.58,-4.5805,-4.581,-4.5795,-4.575,-4.5687,-4.564,-4.5568,-4.5477,-4.54,-4.5339,-4.5277,-4.5235,-4.5194,-4.5173,-4.5197]}]]